[[[{"header":{"parameterUnit":"kt","parameterCategory":2,"dx":1,"dy":1,"la1":29.285339999999998,"la2":30.599998999999997,"lo1":-89.70041500000002,"lo2":-87.6738589999976,"nx":112,"ny":82,"refTime":"2022-10-24T12:00:00:Z","depth":0,"parameterNumber":1,"parameterNumberName":"U-component_of_WINDS"},"data":[-4.4303,-4.2535,0.0,-4.1634,-4.1033,0.0,-4.1774,0.0,0.0,0.0,0.0,0.0,0.0,0.0,0.0,0.0,0.0,0.0,0.0,0.0,0.0,0.0,0.0,0.0,0.0,0.0,0.0,0.0,0.0,0.0,0.0,0.0,-2.7594,-2.7781,-2.7781,-2.7781,-2.7781,-2.7992,-2.8085,-2.8085,-2.8551,-2.883,-2.883,-2.9226,-2.9412,-2.9597,-2.9597,-2.969,-2.985,-2.985,-2.985,-2.985,-2.985,-3.0035,-3.0313,-2.9758,-2.9943,-3.0405,-3.0682,-3.0313,-2.9876,-3.022,-3.0313,-3.0313,-2.9943,-3.0035,-3.0338,-3.0196,-3.0027,-2.9808,-2.9915,-2.9536,-2.9016,-2.8644,-2.8364,-2.8085,-2.7875,-2.7781,-2.7781,-2.7781,-2.7781,-2.7781,-2.7781,-2.7781,-2.7781,-2.7781,-2.7781,-2.7781,-2.7781,-2.7781,-2.7781,-2.7781,-2.7781,-2.7781,-2.7781,-2.7781,-2.7781,-2.7781,-2.7781,-2.7781,-2.7781,-2.7781,-2.7875,-2.8086,-2.7899,-2.7875,-2.8086,-2.7875,-2.7781,-2.7781,-2.7781,-2.7781,0.0,0.0,-4.0309,-4.0809,0.0,0.0,0.0,0.0,0.0,0.0,0.0,0.0,0.0,0.0,0.0,0.0,0.0,0.0,0.0,0.0,0.0,0.0,0.0,0.0,0.0,0.0,0.0,0.0,0.0,0.0,0.0,-2.7617,-2.7781,-2.7781,-2.7781,-2.7781,-2.7781,-2.7781,-2.7781,-2.7781,-2.8178,-2.8271,-2.8364,-2.8644,-2.8947,-2.9133,-2.9133,-2.9226,-2.9319,-2.9319,-2.9319,-2.9319,-2.9319,-2.9597,-2.9758,-2.9294,-2.9387,-2.985,-3.0128,-2.9876,-2.9412,-2.9758,-2.985,-2.9758,-2.9412,-2.9597,-2.9758,-2.9412,-2.9319,-2.9319,-2.9133,-2.8854,-2.8551,-2.8364,-2.8085,-2.7781,-2.7781,-2.7781,-2.7781,-2.7781,-2.7781,-2.7781,-2.7781,-2.7781,-2.7781,-2.7781,-2.7781,-2.7781,-2.7781,-2.7781,-2.7781,-2.7781,-2.7781,-2.7781,-2.7781,-2.7781,-2.7781,-2.7781,-2.7781,-2.7781,-2.7781,-2.7781,-2.7781,-2.7781,-2.7781,-2.7781,-2.7781,-2.7781,-2.7781,-2.7781,-2.7128,-2.6753,0.0,0.0,0.0,-4.1208,0.0,0.0,0.0,0.0,-3.9356,0.0,0.0,0.0,0.0,0.0,0.0,0.0,0.0,0.0,0.0,0.0,0.0,0.0,0.0,0.0,0.0,0.0,0.0,0.0,0.0,0.0,-2.7875,-2.7781,-2.7781,-2.7781,-2.7781,-2.7781,-2.7781,-2.7781,-2.7781,-2.7781,-2.7781,-2.7781,-2.7781,-2.7781,-2.8085,-2.8551,-2.8551,-2.8854,-2.9319,-2.9319,-2.9319,-2.9319,-2.9319,-2.9319,-2.9226,-2.8737,-2.8854,-2.9319,-2.9319,-2.9319,-2.9319,-2.9319,-2.9319,-2.9319,-2.9319,-2.9319,-2.9319,-2.9319,-2.9319,-2.9226,-2.8644,-2.8551,-2.8458,-2.7875,-2.7781,-2.7781,-2.7781,-2.7781,-2.7781,-2.7781,-2.7781,-2.7781,-2.7781,-2.7781,-2.7781,-2.7781,-2.7781,-2.7781,-2.7781,-2.7781,-2.7781,-2.7781,-2.7781,-2.7781,-2.7781,-2.7781,-2.7781,-2.7781,-2.7781,-2.7781,-2.7781,-2.7781,-2.7781,-2.7781,-2.7781,-2.7781,-2.7781,-2.7781,-2.7781,-2.7595,-2.5606,-2.4645,-4.1774,0.0,0.0,0.0,0.0,0.0,0.0,0.0,0.0,0.0,0.0,0.0,0.0,0.0,0.0,0.0,0.0,0.0,0.0,0.0,0.0,0.0,0.0,0.0,0.0,0.0,0.0,0.0,0.0,0.0,-2.7852,-2.7781,-2.7781,-2.7781,-2.7781,-2.7781,-2.7781,-2.7781,-2.7781,-2.7781,-2.7781,-2.7781,-2.7781,-2.7781,-2.7875,-2.7992,-2.7992,-2.8085,-2.8271,-2.8271,-2.8271,-2.8271,-2.8271,-2.8271,-2.8178,-2.8085,-2.8364,-2.8737,-2.8364,-2.8737,-2.9319,-2.8947,-2.8737,-2.8737,-2.8364,-2.8458,-2.8737,-2.8364,-2.8271,-2.8178,-2.8085,-2.7992,-2.7992,-2.7805,-2.7781,-2.7781,-2.7781,-2.7781,-2.7781,-2.7781,-2.7781,-2.7781,-2.7781,-2.7781,-2.7781,-2.7781,-2.7781,-2.7781,-2.7781,-2.7781,-2.7781,-2.7781,-2.7781,-2.7781,-2.7781,-2.7781,-2.7781,-2.7781,-2.7781,-2.7781,-2.7781,-2.7781,-2.7781,-2.7781,-2.7781,-2.7781,-2.7781,-2.7781,-2.7034,-2.5512,-2.4927,-2.389,0.0,0.0,0.0,0.0,0.0,0.0,-3.5608,0.0,-3.4978,0.0,0.0,0.0,0.0,0.0,0.0,0.0,0.0,0.0,0.0,0.0,0.0,0.0,0.0,0.0,0.0,0.0,0.0,0.0,0.0,-2.8908,-2.7852,-2.7781,-2.7781,-2.7781,-2.7781,-2.7781,-2.7781,-2.7781,-2.7781,-2.7781,-2.7781,-2.7781,-2.7781,-2.7781,-2.7781,-2.7781,-2.7781,-2.7781,-2.7781,-2.7781,-2.7781,-2.7781,-2.7781,-2.7781,-2.7781,-2.7781,-2.7992,-2.8178,-2.7898,-2.8178,-2.8644,-2.8364,-2.8271,-2.8178,-2.7898,-2.7992,-2.8178,-2.7875,-2.7781,-2.7781,-2.7781,-2.7781,-2.7781,-2.7781,-2.7781,-2.7781,-2.7781,-2.7781,-2.7781,-2.7781,-2.7781,-2.7781,-2.7781,-2.7781,-2.7781,-2.7781,-2.7781,-2.7781,-2.7781,-2.7781,-2.7781,-2.7781,-2.7781,-2.7781,-2.7781,-2.7781,-2.7781,-2.7781,-2.7781,-2.7781,-2.7781,-2.7781,-2.7781,-2.7781,-2.7781,-2.7781,-2.7781,-2.7781,-2.5888,-2.2187,-2.2187,-2.1523,0.0,0.0,0.0,0.0,-3.4888,0.0,0.0,0.0,0.0,0.0,0.0,0.0,0.0,0.0,0.0,0.0,0.0,0.0,0.0,0.0,0.0,0.0,0.0,0.0,0.0,0.0,0.0,-2.7828,-2.865,-2.879,-2.7852,-2.7781,-2.7781,-2.7781,-2.7781,-2.7781,-2.7781,-2.7781,-2.7781,-2.7781,-2.7781,-2.7781,-2.7781,-2.7781,-2.7781,-2.7781,-2.7781,-2.7781,-2.7781,-2.7781,-2.7781,-2.7781,-2.7781,-2.7781,-2.7781,-2.7781,-2.7781,-2.7781,-2.7781,-2.7781,-2.7781,-2.7781,-2.7781,-2.7781,-2.7781,-2.7781,-2.7781,-2.7781,-2.7781,-2.7781,-2.7781,-2.7781,-2.7781,-2.7781,-2.7781,-2.7781,-2.7781,-2.7781,-2.7781,-2.7781,-2.7781,-2.7781,-2.7781,-2.7781,-2.7781,-2.7781,-2.7781,-2.7781,-2.7781,-2.7781,-2.7781,-2.7781,-2.7781,-2.7781,-2.7781,-2.7781,-2.7781,-2.7781,-2.7781,-2.7781,-2.7781,-2.7781,-2.7781,-2.7781,-2.7781,-2.7688,-2.7408,-2.7408,-2.4456,-1.8676,-1.8676,-1.858,-3.7103,-3.5698,0.0,0.0,0.0,-3.3258,0.0,0.0,0.0,0.0,0.0,0.0,0.0,0.0,0.0,0.0,0.0,0.0,0.0,0.0,0.0,0.0,0.0,0.0,0.0,0.0,-2.6091,-2.7712,-2.7969,-2.8016,-2.7805,-2.7781,-2.7781,-2.7781,-2.7781,-2.7781,-2.7781,-2.7781,-2.7781,-2.7781,-2.7781,-2.7781,-2.7781,-2.7781,-2.7781,-2.7781,-2.7781,-2.7781,-2.7781,-2.7781,-2.7781,-2.7781,-2.7781,-2.7781,-2.7781,-2.7781,-2.7781,-2.7781,-2.7781,-2.7781,-2.7781,-2.7781,-2.7781,-2.7781,-2.7781,-2.7781,-2.7781,-2.7781,-2.7781,-2.7781,-2.7781,-2.7781,-2.7781,-2.7781,-2.7781,-2.7781,-2.7781,-2.7781,-2.7781,-2.7781,-2.7781,-2.7781,-2.7781,-2.7781,-2.7781,-2.7781,-2.7781,-2.7781,-2.7781,-2.7781,-2.7781,-2.7781,-2.7781,-2.7781,-2.7781,-2.7781,-2.7781,-2.7781,-2.7781,-2.7781,-2.7781,-2.7781,-2.7781,-2.7781,-2.7781,-2.6941,-2.5303,-2.5303,-2.304,-1.8676,-1.8676,-1.7731,-3.5339,-3.3621,-3.2164,-3.2164,-3.1431,0.0,0.0,0.0,0.0,0.0,0.0,0.0,0.0,0.0,0.0,0.0,0.0,0.0,0.0,0.0,0.0,0.0,0.0,0.0,0.0,0.0,-2.3083,-2.6003,-2.7221,-2.7781,-2.7781,-2.7781,-2.7781,-2.7781,-2.7781,-2.7781,-2.7781,-2.7781,-2.7781,-2.7781,-2.7781,-2.7781,-2.7781,-2.7781,-2.7781,-2.7781,-2.7781,-2.7781,-2.7781,-2.7781,-2.7781,-2.7781,-2.7781,-2.7781,-2.7781,-2.7781,-2.7781,-2.7781,-2.7781,-2.7781,-2.7781,-2.7781,-2.7781,-2.7781,-2.7781,-2.7781,-2.7781,-2.7781,-2.7781,-2.7781,-2.7781,-2.7781,-2.7781,-2.7781,-2.7781,-2.7781,-2.7781,-2.7781,-2.7781,-2.7781,-2.7781,-2.7781,-2.7781,-2.7781,-2.7781,-2.7781,-2.7781,-2.7781,-2.7781,-2.7781,-2.7781,-2.7781,-2.7781,-2.7781,-2.7781,-2.7781,-2.7315,-2.6263,-2.6263,-2.5794,-2.4854,-2.57,-2.6263,-2.6263,-2.7315,-2.6731,-2.4645,-2.2661,-2.0094,-1.7058,-1.7058,-1.6576,-3.323,-3.126,-2.9649,-2.938,-2.813,0.0,-2.4114,-2.3835,0.0,0.0,0.0,0.0,0.0,0.0,0.0,0.0,0.0,0.0,0.0,0.0,0.0,0.0,0.0,0.0,0.0,0.0,-2.0324,-2.3249,-2.5794,-2.7408,-2.7781,-2.7781,-2.7781,-2.7781,-2.7781,-2.7781,-2.7781,-2.7781,-2.7781,-2.7781,-2.7781,-2.7781,-2.7781,-2.7781,-2.7781,-2.7781,-2.7781,-2.7781,-2.7781,-2.7781,-2.7781,-2.7781,-2.7781,-2.7781,-2.7781,-2.7781,-2.7781,-2.7781,-2.7781,-2.7852,-2.7946,-2.7828,-2.7875,-2.7922,-2.7828,-2.7781,-2.7781,-2.7781,-2.7781,-2.7781,-2.7781,-2.7781,-2.7781,-2.7781,-2.7781,-2.7781,-2.7781,-2.7781,-2.7781,-2.7781,-2.7781,-2.7781,-2.7781,-2.7781,-2.7781,-2.7781,-2.7781,-2.7781,-2.7781,-2.7781,-2.7781,-2.7781,-2.7781,-2.7781,-2.7781,-2.7408,-2.645,-2.4739,-2.4645,-2.3985,-2.2377,-2.389,-2.4645,-2.4645,-2.5982,-2.5606,-2.3513,-2.0285,-1.7635,-1.5528,-1.5528,-1.5528,-2.9741,-2.7981,-2.5914,-2.4447,-2.3985,0.0,-2.1752,-2.1391,0.0,0.0,0.0,0.0,0.0,0.0,0.0,0.0,0.0,0.0,0.0,0.0,0.0,0.0,0.0,0.0,0.0,0.0,-1.9153,-1.9267,-2.2851,-2.5794,-2.7688,-2.7781,-2.7781,-2.7781,-2.7781,-2.7781,-2.7781,-2.7781,-2.7781,-2.7781,-2.7781,-2.7781,-2.7781,-2.7781,-2.7781,-2.7781,-2.7781,-2.7781,-2.7781,-2.7781,-2.7781,-2.7781,-2.7781,-2.7781,-2.7781,-2.7781,-2.7781,-2.7781,-2.7781,-2.811,-2.8438,-2.7946,-2.811,-2.8415,-2.7946,-2.7781,-2.7781,-2.7781,-2.7781,-2.7781,-2.7781,-2.7781,-2.7781,-2.7781,-2.7781,-2.7781,-2.7781,-2.7781,-2.7781,-2.7781,-2.7781,-2.7781,-2.7781,-2.7781,-2.7781,-2.7781,-2.7781,-2.7781,-2.7781,-2.7781,-2.7781,-2.7781,-2.7781,-2.7781,-2.7781,-2.6075,-2.4927,-2.4739,-2.4645,-2.455,-2.4362,-2.455,-2.4645,-2.4645,-2.3229,-2.1428,-1.9346,-1.8868,-1.7635,-1.5528,-1.5528,-1.5528,-2.6361,-2.5081,-2.3855,-2.2036,0.0,0.0,0.0,-1.8613,0.0,0.0,0.0,0.0,0.0,0.0,0.0,0.0,0.0,0.0,0.0,0.0,0.0,0.0,0.0,0.0,0.0,0.0,0.0,0.0,-2.019,-2.2567,-2.5794,-2.7128,-2.7781,-2.7781,-2.7781,-2.7781,-2.7781,-2.7781,-2.7781,-2.7781,-2.7781,-2.7781,-2.7781,-2.7781,-2.7781,-2.7781,-2.7781,-2.7781,-2.7781,-2.7781,-2.7781,-2.7781,-2.7781,-2.7781,-2.7781,-2.7781,-2.7781,-2.7828,-2.8157,-2.8415,-2.8626,-2.8697,-2.8861,-2.8955,-2.8415,-2.8274,-2.8204,-2.7875,-2.7781,-2.7781,-2.7781,-2.7781,-2.7781,-2.7781,-2.7781,-2.7781,-2.7781,-2.7781,-2.7781,-2.7781,-2.7781,-2.7781,-2.7781,-2.7781,-2.7781,-2.7781,-2.7781,-2.7781,-2.7781,-2.6753,-2.645,-2.7688,-2.6731,-2.645,-2.7688,-2.5888,-2.4173,-2.304,-2.1808,-2.0666,-1.9426,-2.0571,-2.1142,-2.1142,-2.1618,-2.1332,-2.0476,-1.8005,-1.6383,-1.5528,-1.5528,-1.5528,-2.3662,0.0,0.0,0.0,0.0,0.0,0.0,0.0,0.0,0.0,0.0,0.0,0.0,0.0,0.0,0.0,0.0,0.0,0.0,0.0,0.0,0.0,0.0,0.0,0.0,0.0,0.0,0.0,-1.8292,-1.9903,-2.2851,-2.5042,-2.6356,-2.6941,-2.7501,-2.7781,-2.7781,-2.7781,-2.7781,-2.7781,-2.7781,-2.7781,-2.7781,-2.7781,-2.7781,-2.7781,-2.7781,-2.7781,-2.7781,-2.7781,-2.7875,-2.8016,-2.8016,-2.811,-2.8227,-2.8227,-2.8227,-2.8274,-2.8673,-2.8908,-2.9072,-2.9283,-2.9471,-2.9471,-2.8978,-2.8814,-2.8743,-2.8345,-2.8227,-2.8204,-2.8063,-2.7899,-2.7781,-2.7781,-2.7781,-2.7781,-2.7781,-2.7781,-2.7781,-2.7781,-2.7781,-2.7781,-2.7781,-2.7781,-2.7781,-2.7781,-2.7315,-2.6941,-2.6941,-2.5115,-2.4456,-2.5982,-2.4739,-2.4456,-2.5982,-2.4173,-2.2377,-2.0952,-1.9538,-1.8005,-1.648,-1.7813,-1.8676,-1.8676,-1.9521,-1.9999,-1.9999,-1.7058,-1.5528,-1.5528,-1.5528,-1.5528,0.0,0.0,0.0,-1.6026,-1.5469,-1.4959,-1.3619,0.0,0.0,0.0,0.0,0.0,0.0,0.0,0.0,0.0,0.0,0.0,0.0,0.0,0.0,0.0,0.0,0.0,0.0,0.0,0.0,0.0,0.0,-1.8676,-1.8868,-2.0857,-2.2851,-2.4739,-2.6753,-2.7781,-2.7781,-2.7781,-2.7781,-2.7781,-2.7781,-2.7781,-2.7781,-2.7781,-2.7781,-2.7781,-2.7781,-2.7781,-2.7781,-2.7781,-2.811,-2.8579,-2.8579,-2.8884,-2.933,-2.933,-2.933,-2.933,-2.9354,-2.9682,-3.0011,-2.9518,-2.9705,-3.0011,-2.9494,-2.9354,-2.9354,-2.933,-2.933,-2.9213,-2.872,-2.818,-2.7781,-2.7781,-2.7781,-2.7781,-2.7781,-2.7781,-2.7781,-2.7781,-2.7781,-2.7781,-2.7781,-2.7781,-2.7781,-2.7781,-2.6075,-2.4739,-2.4739,-2.304,-2.1903,-2.1903,-2.1903,-2.1903,-2.1903,-1.9999,-1.8772,-1.8772,-1.8676,-1.8676,-1.858,-1.8676,-1.8676,-1.8676,-1.6769,-1.5721,-1.5721,-1.5625,-1.5528,-1.5528,-1.5528,-1.5528,-1.978,-1.7843,-1.5781,-1.3803,-1.3384,-1.3318,-1.2987,0.0,0.0,0.0,0.0,0.0,0.0,0.0,0.0,0.0,0.0,0.0,0.0,0.0,0.0,0.0,0.0,0.0,0.0,0.0,0.0,0.0,0.0,0.0,-1.858,-1.9346,-2.0666,-2.2661,-2.3418,-2.4362,-2.57,-2.7128,-2.7781,-2.7781,-2.7781,-2.7781,-2.7781,-2.7781,-2.7781,-2.7781,-2.7781,-2.7781,-2.7781,-2.7781,-2.811,-2.8603,-2.8603,-2.8908,-2.9377,-2.9377,-2.9377,-2.9424,-2.9752,-2.9987,-3.0151,-3.0316,-3.0503,-3.055,-3.0034,-2.987,-2.9799,-2.9471,-2.9377,-2.933,-2.9166,-2.8978,-2.8767,-2.8415,-2.8063,-2.7781,-2.7781,-2.6731,-2.57,-2.57,-2.4645,-2.3796,-2.3796,-2.3796,-2.3796,-2.3796,-2.3229,-2.2756,-2.2756,-2.0952,-2.019,-2.1618,-2.0476,-2.0285,-2.1618,-1.992,-1.8676,-1.8676,-1.7347,-1.6576,-1.6576,-1.6576,-1.6576,-1.6576,-1.5915,-1.5528,-1.5528,-1.5528,-1.5528,-1.5528,-1.5154,-1.5238,-1.8705,-1.6419,-1.4029,-1.2802,-1.247,-1.2499,-1.2924,-1.2998,0.0,0.0,0.0,0.0,0.0,0.0,0.0,0.0,0.0,0.0,0.0,0.0,0.0,0.0,0.0,0.0,0.0,0.0,0.0,0.0,0.0,0.0,-1.7443,-1.7524,-1.8484,-2.0571,-2.0666,-2.1618,-2.3607,-2.57,-2.7034,-2.7781,-2.7781,-2.7781,-2.7781,-2.7781,-2.7781,-2.7781,-2.7781,-2.7899,-2.8086,-2.8086,-2.8509,-2.9142,-2.9142,-2.9471,-2.9917,-2.9917,-2.9917,-2.9964,-3.0292,-3.0409,-3.0456,-3.0785,-3.0879,-3.0832,-3.0503,-3.0409,-3.0339,-3.0011,-2.9917,-2.987,-2.9682,-2.9635,-2.9518,-2.9002,-2.8462,-2.764,-2.6025,-2.455,-2.3607,-2.3607,-2.2661,-2.1808,-2.1808,-2.1808,-2.1808,-2.1808,-2.1142,-2.0666,-2.0666,-1.8868,-1.8101,-1.9426,-1.8388,-1.8101,-1.9442,-1.8292,-1.7524,-1.7524,-1.6287,-1.5528,-1.5528,-1.5528,-1.5528,-1.5528,-1.5528,-1.5528,-1.5528,-1.5335,-1.5251,-1.5251,-1.4754,-1.4657,-1.8549,-1.54,-1.2301,-1.2745,-1.2593,-1.2562,-1.3146,0.0,0.0,0.0,0.0,0.0,0.0,0.0,0.0,0.0,0.0,0.0,0.0,0.0,0.0,0.0,0.0,0.0,0.0,0.0,0.0,0.0,0.0,0.0,-1.5528,-1.5528,-1.648,-1.8388,-1.8484,-1.9538,-2.1618,-2.3418,-2.5512,-2.7595,-2.7688,-2.7781,-2.7781,-2.7781,-2.7781,-2.7781,-2.7781,-2.811,-2.8603,-2.8603,-2.9213,-3.0128,-3.0128,-3.0433,-3.0879,-3.0879,-3.0879,-3.0879,-3.0879,-3.0879,-3.0879,-3.0879,-3.0879,-3.0879,-3.0879,-3.0775,-3.0775,-3.0879,-3.0775,-3.0451,-3.0089,-2.9972,-2.9708,-2.9197,-2.8612,-2.7121,-2.2662,-2.1826,-2.1749,-2.1618,-2.1523,-2.1428,-2.1428,-2.1428,-2.1428,-2.1428,-1.9729,-1.8484,-1.8484,-1.6769,-1.5528,-1.5528,-1.5528,-1.5528,-1.5528,-1.5528,-1.5528,-1.5528,-1.5528,-1.5528,-1.5528,-1.5528,-1.5528,-1.5528,-1.5528,-1.5528,-1.5528,-1.496,-1.4766,-1.4766,-1.4173,-1.3967,-1.693,-1.4231,-1.2459,-1.2478,-1.2593,-1.2945,-1.359,0.0,-1.3854,0.0,0.0,0.0,0.0,0.0,0.0,0.0,0.0,0.0,0.0,0.0,0.0,0.0,0.0,0.0,0.0,0.0,0.0,0.0,0.0,0.0,-1.5528,-1.5528,-1.5818,-1.6287,-1.6301,-1.7347,-1.9442,-1.9903,-2.1998,-2.5512,-2.7034,-2.7781,-2.7781,-2.7781,-2.7781,-2.7781,-2.7781,-2.811,-2.8603,-2.8603,-2.9213,-3.0128,-3.0128,-3.0433,-3.0879,-3.0879,-3.0879,-3.0879,-3.0879,-3.0879,-3.0879,-3.0879,-3.0879,-3.0879,-3.0879,-2.9736,-2.8798,-3.0464,-2.8463,-2.6224,-2.7813,-2.6938,-2.547,-2.4703,-2.4448,-2.3877,-2.2165,-2.1951,-2.15,-1.9779,-1.8197,-1.7154,-1.7154,-1.7154,-1.7154,-1.7154,-1.6673,-1.6301,-1.6301,-1.5915,-1.5528,-1.5528,-1.5528,-1.5528,-1.5528,-1.5528,-1.5528,-1.5528,-1.5528,-1.5528,-1.5528,-1.5528,-1.5528,-1.5528,-1.5154,-1.496,-1.496,-1.4463,-1.4173,-1.4173,-1.3688,-1.3591,-1.7666,-1.4791,-1.285,-1.2956,-1.3231,-1.3611,-1.4108,-1.4213,-1.4298,0.0,0.0,0.0,0.0,0.0,0.0,0.0,0.0,0.0,0.0,0.0,0.0,0.0,0.0,0.0,0.0,0.0,0.0,0.0,0.0,-1.5335,-1.5528,-1.5528,-1.5528,-1.5528,-1.5528,-1.6108,-1.725,-1.8197,-1.9808,-2.2092,-2.5021,-2.6918,-2.7781,-2.7781,-2.7781,-2.7805,-2.804,-2.8462,-2.8955,-2.9189,-2.9752,-3.0456,-3.0456,-3.0644,-3.0879,-3.0879,-3.0879,-3.0879,-3.0879,-3.0879,-3.0775,-2.9736,-2.9424,-2.9215,-2.8254,-2.7103,-2.6369,-2.7501,-2.6034,-2.4454,-2.5718,-2.5087,-2.4009,-2.3568,-2.3227,-2.2376,-1.9836,-1.9364,-1.9102,-1.7598,-1.6397,-1.5528,-1.5528,-1.5528,-1.5528,-1.5528,-1.5528,-1.5528,-1.5528,-1.5528,-1.5528,-1.5528,-1.5528,-1.5528,-1.5528,-1.5528,-1.5528,-1.5528,-1.5528,-1.5528,-1.5528,-1.5528,-1.5528,-1.5528,-1.4851,-1.4463,-1.4463,-1.3882,-1.3688,-1.3688,-1.3105,-1.2997,-1.8819,-1.5809,-1.3199,-1.3505,-1.3896,-1.4287,-1.4594,-1.4657,-1.4668,0.0,0.0,0.0,0.0,0.0,0.0,0.0,0.0,0.0,0.0,0.0,0.0,0.0,0.0,0.0,0.0,0.0,0.0,0.0,0.0,0.0,-1.5335,-1.5431,-1.5431,-1.5431,-1.5528,-1.5528,-1.5528,-1.7347,-1.8484,-1.9155,-2.2661,-2.5512,-2.7781,-2.7781,-2.7781,-2.7828,-2.8368,-2.8908,-2.94,-2.9917,-3.0433,-3.0879,-3.0879,-3.0879,-3.0879,-3.0879,-3.0879,-3.0879,-3.0568,-3.0464,-3.0048,-2.7857,-2.7103,-2.6789,-2.4771,-2.3926,-2.3715,-2.4032,-2.3609,-2.3292,-2.3609,-2.3398,-2.3168,-2.3115,-2.2781,-2.1349,-1.7148,-1.6225,-1.6033,-1.5593,-1.5528,-1.5528,-1.5528,-1.5528,-1.5431,-1.5335,-1.5335,-1.5335,-1.5335,-1.5335,-1.5335,-1.5431,-1.5431,-1.5431,-1.5528,-1.5528,-1.5528,-1.5528,-1.5528,-1.5431,-1.5431,-1.5335,-1.5335,-1.5335,-1.4366,-1.387,-1.387,-1.3397,-1.3105,-1.3105,-1.2609,-1.2415,-1.687,-1.4486,-1.2787,-1.3421,-1.378,-1.4129,-1.4763,-1.4911,-1.4964,-1.5143,-1.5101,0.0,0.0,0.0,0.0,0.0,0.0,0.0,0.0,0.0,0.0,0.0,0.0,0.0,0.0,0.0,0.0,0.0,0.0,0.0,-1.4258,-1.4657,-1.4863,-1.4863,-1.5335,-1.5528,-1.5528,-1.5915,-1.7813,-2.1237,-2.1903,-2.4173,-2.7781,-2.7781,-2.7781,-2.7828,-2.8368,-2.8908,-2.94,-2.9917,-3.0433,-3.0879,-3.0879,-3.0879,-3.0879,-3.0879,-3.0879,-3.0671,-2.8798,-2.8171,-2.7857,-2.5508,-2.4665,-2.4665,-2.4243,-2.2868,-2.1807,-2.3609,-2.1399,-1.896,-2.0851,-1.9907,-1.8475,-1.8208,-1.82,-1.7975,-1.6752,-1.6416,-1.6258,-1.5633,-1.5528,-1.5528,-1.5528,-1.5154,-1.4754,-1.4366,-1.4258,-1.4258,-1.4258,-1.4258,-1.4463,-1.4863,-1.4863,-1.5057,-1.5528,-1.5528,-1.5528,-1.5528,-1.5154,-1.4863,-1.4863,-1.4463,-1.4258,-1.4258,-1.3688,-1.3397,-1.3397,-1.2803,-1.2609,-1.2609,-1.2512,-1.2415,-1.7728,-1.5152,-1.2871,-1.3569,-1.4108,-1.4552,-1.489,-1.5059,-1.5143,-1.5133,-1.5048,0.0,0.0,0.0,0.0,0.0,0.0,0.0,0.0,0.0,0.0,0.0,0.0,0.0,0.0,0.0,0.0,0.0,0.0,0.0,0.0,-1.427,-1.4366,-1.4366,-1.4851,-1.5154,-1.5154,-1.5431,-1.6576,-1.858,-2.0761,-2.2756,-2.4645,-2.57,-2.6889,-2.8251,-2.9048,-2.9541,-2.9799,-3.0316,-3.0832,-3.1301,-3.1301,-3.1465,-3.1593,-3.0291,-2.9756,-2.9391,-2.6896,-2.5964,-2.5605,-2.315,-2.2338,-2.2126,-2.0973,-1.98,-1.9174,-2.0227,-1.896,-1.758,-1.8639,-1.8117,-1.7231,-1.7194,-1.7166,-1.71,-1.6318,-1.6202,-1.6035,-1.5078,-1.4966,-1.4966,-1.4966,-1.4659,-1.427,-1.4064,-1.3967,-1.3967,-1.3967,-1.3967,-1.4076,-1.4366,-1.4366,-1.4463,-1.4754,-1.4754,-1.4754,-1.4754,-1.4463,-1.4366,-1.4366,-1.3579,-1.3191,-1.3191,-1.29,-1.2814,-1.2814,-1.2609,-1.2415,-1.2415,-1.2415,-1.2415,-1.8507,-1.5688,-1.303,-1.3834,-1.433,-1.4784,-1.4932,-1.5059,-1.5101,-1.4932,-1.489,-1.4816,0.0,0.0,0.0,0.0,0.0,0.0,0.0,0.0,0.0,0.0,0.0,0.0,0.0,0.0,0.0,0.0,0.0,0.0,0.0,0.0,0.0,-1.3882,-1.4366,-1.4669,-1.4766,-1.5154,-1.5625,0.0,-1.9538,-2.1332,-2.1808,-2.3324,-2.5138,-2.7217,-2.8602,-2.9607,-3.0175,-3.0808,-3.1301,-3.17,-3.1794,-3.1752,-3.1469,-2.9474,-2.8464,-2.7522,-2.4782,-2.3839,-2.339,-2.0949,-2.0059,-1.9693,-1.7902,-1.7271,-1.7271,-1.7271,-1.7271,-1.7271,-1.7271,-1.7271,-1.7271,-1.6948,-1.6935,-1.67,-1.5775,-1.5733,-1.5642,-1.4646,-1.4451,-1.4439,-1.438,-1.4093,-1.3843,-1.3785,-1.3773,-1.3676,-1.3676,-1.3676,-1.3676,-1.3773,-1.3882,-1.3882,-1.3967,-1.3967,-1.3967,-1.3967,-1.387,-1.3882,-1.3882,-1.29,-1.2436,-1.2488,-1.2488,-1.2488,-1.2488,-1.2488,-1.2488,-1.2488,-1.2488,-1.2488,-1.6989,-1.4735,-1.303,-1.3834,-1.4068,-1.4281,-1.4826,-1.4816,-1.4668,-1.4647,-1.4647,-1.4573,-1.4229,0.0,0.0,0.0,0.0,0.0,0.0,0.0,0.0,0.0,0.0,0.0,0.0,0.0,0.0,0.0,0.0,0.0,0.0,0.0,0.0,0.0,-1.3785,-1.427,-1.4766,-1.4863,-1.6011,0.0,-1.8772,-1.992,-2.1808,-2.1903,-2.2111,-2.2586,-2.5413,-2.7961,-3.0198,-3.1207,-3.163,-3.17,-3.2193,-3.1096,-2.9035,-2.8815,-2.7341,-2.511,-2.2647,-2.166,-2.1156,-1.8844,-1.7902,-1.758,-1.7378,-1.7271,-1.7271,-1.7271,-1.7271,-1.7271,-1.7271,-1.7271,-1.7056,-1.5967,-1.5751,-1.5668,-1.5264,-1.5216,-1.5157,-1.4781,-1.4734,-1.4651,-1.4415,-1.3958,-1.3569,-1.3333,-1.29,-1.2609,-1.2609,-1.2609,-1.2803,-1.3203,-1.33,-1.3494,-1.3979,-1.3967,-1.3967,-1.3967,-1.3591,-1.33,-1.33,-1.2706,-1.2509,-1.2829,-1.2829,-1.2829,-1.2829,-1.2829,-1.2829,-1.2829,-1.2829,-1.2829,-1.8309,-1.5679,-1.3209,-1.3876,-1.4015,-1.4132,-1.4446,-1.4583,-1.4615,-1.4615,-1.4615,-1.4541,-1.4187,-1.4139,0.0,0.0,0.0,0.0,0.0,0.0,0.0,0.0,0.0,0.0,0.0,0.0,0.0,0.0,0.0,0.0,0.0,0.0,0.0,0.0,-1.33,-1.3591,-1.3796,-1.4476,-1.5335,-1.6301,-1.7909,-1.8388,-1.8101,-1.9346,-2.0038,-2.0548,-2.2999,-2.4826,-2.628,-2.7074,-2.7495,-2.7889,-2.8357,-2.8028,-2.7338,-2.5742,-2.4484,-2.3304,-2.0713,-1.9786,-1.9503,-1.8238,-1.7831,-1.7589,-1.7323,-1.7271,-1.7271,-1.7271,-1.7271,-1.7271,-1.6935,-1.6828,-1.6613,-1.5739,-1.5536,-1.5346,-1.4772,-1.4841,-1.4769,-1.4216,-1.4068,-1.399,-1.3736,-1.3489,-1.3257,-1.2771,-1.2737,-1.2572,-1.2436,-1.2415,-1.2512,-1.2706,-1.2706,-1.2803,-1.2997,-1.3094,-1.3094,-1.3094,-1.29,-1.2846,-1.3236,-1.3046,-1.2988,-1.3083,-1.3083,-1.3083,-1.3083,-1.3083,-1.3083,-1.3083,-1.3083,-1.3083,-1.849,-1.5895,-1.3336,-1.3898,-1.4015,-1.41,-1.4298,-1.4382,-1.4404,-1.4404,-1.452,-1.4541,-1.4187,-1.4182,0.0,0.0,0.0,0.0,0.0,0.0,0.0,0.0,0.0,0.0,0.0,0.0,0.0,0.0,0.0,0.0,0.0,0.0,0.0,0.0,-1.2814,-1.3105,-1.3203,-1.3991,-1.4476,-1.4766,-1.6673,-1.6673,-1.5141,-1.6562,-1.7449,-1.7963,-2.0313,-2.1598,-2.2172,-2.37,-2.4727,-2.5458,-2.5861,-2.5862,-2.5282,-2.343,-2.2257,-2.1405,-1.9452,-1.875,-1.8604,-1.8196,-1.8043,-1.7857,-1.7563,-1.7444,-1.7271,-1.715,-1.7043,-1.6935,-1.6385,-1.617,-1.5847,-1.5201,-1.5093,-1.494,-1.4344,-1.4444,-1.4403,-1.3813,-1.3674,-1.36,-1.3368,-1.3326,-1.3167,-1.2593,-1.2755,-1.2787,-1.2446,-1.2478,-1.252,-1.252,-1.252,-1.2488,-1.2415,-1.2478,-1.252,-1.252,-1.2583,-1.2871,-1.3209,-1.322,-1.3252,-1.3326,-1.3326,-1.3326,-1.3326,-1.3326,-1.3326,-1.3326,-1.3326,-1.3326,-1.6447,-1.4646,-1.3336,-1.3898,-1.4015,-1.4143,-1.4499,-1.4245,-1.4026,-1.4026,-1.4287,-1.4541,-1.4187,-1.4446,0.0,0.0,0.0,0.0,0.0,0.0,0.0,0.0,0.0,0.0,0.0,0.0,0.0,0.0,0.0,0.0,0.0,0.0,0.0,0.0,-1.2415,-1.2706,-1.3203,-1.3203,-1.3796,-1.4766,-1.4766,-1.456,-1.3967,-1.4064,-1.4064,-1.4197,-1.7106,-1.827,-1.8546,-2.2193,-2.4541,-2.5897,-2.6397,-2.5049,-2.2727,-2.2727,-2.12,-1.9092,-1.9092,-1.8908,-1.8684,-1.867,-1.8275,-1.7897,-1.7897,-1.7589,-1.7163,-1.6707,-1.6492,-1.6385,-1.5739,-1.5213,-1.4673,-1.4123,-1.4015,-1.4015,-1.4015,-1.4015,-1.4015,-1.4015,-1.4015,-1.394,-1.3611,-1.3579,-1.341,-1.2935,-1.2861,-1.2787,-1.2446,-1.2614,-1.2861,-1.2861,-1.2861,-1.2766,-1.2436,-1.2723,-1.2861,-1.2861,-1.3083,-1.322,-1.322,-1.322,-1.3336,-1.3569,-1.3579,-1.3579,-1.3579,-1.3579,-1.3579,-1.3579,-1.3579,-1.3579,-1.6447,-1.4646,-1.3294,-1.36,-1.3898,-1.41,-1.4298,-1.4256,-1.415,-1.415,-1.4393,-1.4594,-1.452,-1.4435,-1.4239,0.0,0.0,0.0,0.0,0.0,0.0,0.0,0.0,0.0,0.0,0.0,0.0,0.0,0.0,0.0,0.0,0.0,0.0,0.0,-1.2415,-1.2512,-1.2706,-1.3008,-1.3397,-1.3699,-1.3699,-1.3785,-1.3967,-1.3967,-1.3967,-1.4088,-1.5127,-1.5692,-1.6023,-1.7513,-1.8584,-1.9403,-2.0398,-2.0023,-1.9092,-1.9447,-1.8856,-1.7922,-1.8265,-1.8097,-1.7762,-1.7912,-1.785,-1.7634,-1.7364,-1.7185,-1.6961,-1.6663,-1.617,-1.5632,-1.477,-1.4339,-1.4231,-1.4015,-1.4015,-1.4015,-1.4015,-1.4015,-1.4015,-1.4015,-1.4015,-1.394,-1.3622,-1.3706,-1.3643,-1.3178,-1.3252,-1.3262,-1.303,-1.3062,-1.3114,-1.3114,-1.3114,-1.3083,-1.2998,-1.3062,-1.3114,-1.3114,-1.3474,-1.3802,-1.3802,-1.3802,-1.3834,-1.3908,-1.3908,-1.3908,-1.3908,-1.3908,-1.3908,-1.3908,-1.3908,-1.3908,-1.5333,-1.3972,-1.3283,-1.3516,-1.3844,-1.4057,-1.4087,-1.4129,-1.4129,-1.4129,-1.4245,-1.4372,-1.4467,-1.4435,-1.4393,-1.4393,-1.4192,0.0,0.0,0.0,0.0,0.0,0.0,0.0,0.0,0.0,0.0,0.0,0.0,0.0,0.0,0.0,0.0,-1.2415,-1.2415,-1.2415,-1.2415,-1.2803,-1.2911,-1.2911,-1.2911,-1.3105,-1.3385,-1.3385,-1.3385,-1.3408,-1.3759,-1.4007,-1.4302,-1.5213,-1.5786,-1.6123,-1.7349,-1.7567,-1.733,-1.7686,-1.7567,-1.733,-1.7686,-1.7567,-1.7306,-1.7478,-1.7472,-1.721,-1.6993,-1.6747,-1.6441,-1.6149,-1.5607,-1.5105,-1.4231,-1.4015,-1.4015,-1.4015,-1.4015,-1.4015,-1.4015,-1.4015,-1.4015,-1.4015,-1.4015,-1.3972,-1.3834,-1.3919,-1.3887,-1.341,-1.3484,-1.3495,-1.3252,-1.3305,-1.3357,-1.3357,-1.3357,-1.3326,-1.3231,-1.3305,-1.3357,-1.3357,-1.3875,-1.4171,-1.4171,-1.4171,-1.4171,-1.4171,-1.4171,-1.4171,-1.4171,-1.4171,-1.4129,-1.4044,-1.4044,-1.3991,-1.3591,-1.2871,-1.3283,-1.3516,-1.3844,-1.4015,-1.4015,-1.4015,-1.4015,-1.4015,-1.3918,-1.4002,-1.4103,-1.4344,-1.4491,-1.4594,-1.4414,-1.4203,0.0,0.0,0.0,0.0,0.0,0.0,0.0,0.0,0.0,0.0,0.0,0.0,0.0,0.0,0.0,-1.2415,-1.2415,-1.2415,-1.2415,-1.2415,-1.2415,-1.2415,-1.2415,-1.2415,-1.2415,-1.2415,-1.2415,-1.2436,-1.3019,-1.322,-1.3294,-1.4886,-1.5511,-1.5567,-1.6764,-1.7212,-1.7212,-1.7212,-1.7212,-1.7212,-1.7212,-1.7212,-1.7212,-1.7212,-1.7045,-1.6716,-1.6704,-1.6362,-1.5862,-1.5262,-1.4994,-1.4621,-1.4155,-1.4036,-1.4036,-1.4015,-1.4015,-1.4015,-1.4015,-1.4015,-1.4015,-1.4015,-1.4015,-1.4015,-1.4015,-1.4015,-1.3951,-1.3632,-1.36,-1.3516,-1.3294,-1.3463,-1.36,-1.36,-1.36,-1.3516,-1.3294,-1.3495,-1.3632,-1.3653,-1.4256,-1.4615,-1.4615,-1.4615,-1.4615,-1.4615,-1.4615,-1.4615,-1.4615,-1.4615,-1.4499,-1.4176,-1.4176,-1.4161,-1.3809,-1.2998,-1.3283,-1.3516,-1.3844,-1.4015,-1.4015,-1.4015,-1.4015,-1.4015,-1.3728,-1.3651,-1.4135,-1.4109,-1.4089,-1.426,-1.4446,-1.4446,-1.4213,0.0,0.0,0.0,0.0,0.0,0.0,0.0,0.0,0.0,0.0,0.0,0.0,0.0,-1.2415,-1.2415,-1.2415,-1.2415,-1.2415,-1.2415,-1.2415,-1.2415,-1.2415,-1.2415,-1.2415,-1.2415,-1.2415,-1.2436,-1.3019,-1.322,-1.3294,-1.4334,-1.4842,-1.4885,-1.5592,-1.6144,-1.6511,-1.6511,-1.6263,-1.5895,-1.6381,-1.6263,-1.5895,-1.6381,-1.6466,-1.6375,-1.6065,-1.5918,-1.5862,-1.5364,-1.4907,-1.4526,-1.4224,-1.4182,-1.4129,-1.4057,-1.4015,-1.4015,-1.4015,-1.4015,-1.4015,-1.4015,-1.4015,-1.4015,-1.4015,-1.4015,-1.3994,-1.3951,-1.394,-1.3919,-1.3855,-1.3898,-1.394,-1.394,-1.394,-1.3919,-1.3855,-1.396,-1.4182,-1.4361,-1.452,-1.4615,-1.4615,-1.4615,-1.4615,-1.4615,-1.4615,-1.4615,-1.4615,-1.4615,-1.4583,-1.453,-1.453,-1.4404,-1.4061,-1.3199,-1.3338,-1.3047,-1.3081,-1.3161,-1.3161,-1.3161,-1.3161,-1.3161,-1.3043,-1.2902,-1.3231,-1.3377,-1.3431,-1.3538,-1.3853,-1.4079,-1.3743,-1.3951,-1.4097,0.0,0.0,0.0,0.0,0.0,0.0,0.0,0.0,0.0,0.0,0.0,-1.2572,-1.2572,-1.2467,-1.2415,-1.2415,-1.2415,-1.2415,-1.2415,-1.2415,-1.2415,-1.2415,-1.2415,-1.2415,-1.2436,0.0,-1.322,-1.3294,-1.4235,-1.4615,-1.4657,-1.5122,-1.5539,-1.5906,-1.5906,-1.5658,-1.5421,-1.5788,-1.5658,-1.5421,-1.5788,-1.5906,-1.5874,-1.5624,-1.5515,-1.5489,-1.5112,-1.4906,-1.4721,-1.4488,-1.4425,-1.4393,-1.4266,-1.4235,-1.4235,-1.4235,-1.4235,-1.4235,-1.4235,-1.4235,-1.4235,-1.4235,-1.4235,-1.4192,-1.4087,-1.4161,-1.4192,-1.4087,-1.4161,-1.4235,-1.4235,-1.4235,-1.4235,-1.4235,-1.4351,-1.4478,-1.4604,-1.4816,-1.4932,-1.4932,-1.4932,-1.4932,-1.4932,-1.4932,-1.4932,-1.4932,-1.4932,-1.4879,-1.4784,-1.4784,-1.4647,-1.4223,-1.3244,-1.326,-1.2474,-1.2196,-1.2196,-1.2196,-1.2196,-1.2196,-1.2196,-1.2196,-1.2088,-1.2196,-1.2529,-1.2684,-1.2789,-1.3167,-1.346,0.0,0.0,-1.3743,-1.3743,0.0,0.0,0.0,0.0,0.0,0.0,0.0,0.0,0.0,-1.3051,-1.2924,-1.2924,-1.2593,-1.2488,-1.2422,-1.252,-1.2499,-1.2467,-1.2467,-1.2446,-1.2415,-1.2415,-1.2415,0.0,0.0,-1.322,-1.3294,-1.4235,-1.4615,-1.4657,-1.5122,-1.5302,-1.5302,-1.5302,-1.5302,-1.5302,-1.5302,-1.5302,-1.5302,-1.5302,-1.5302,-1.5302,-1.5302,-1.5164,-1.5017,-1.5017,-1.5017,-1.4964,-1.4731,-1.4668,-1.4657,-1.4626,-1.4615,-1.4615,-1.4615,-1.4615,-1.4615,-1.4615,-1.4615,-1.4615,-1.4615,-1.4615,-1.4552,-1.4229,-1.4488,-1.4541,-1.4229,-1.4488,-1.4615,-1.4615,-1.4615,-1.4615,-1.4615,-1.4647,-1.4678,-1.4721,-1.5091,-1.5302,-1.5302,-1.5302,-1.5302,-1.5302,-1.5302,-1.5302,-1.5302,-1.5302,-1.5207,-1.5017,-1.5017,-1.489,-1.3848,-1.2622,-1.2375,-1.2295,-1.2196,-1.2196,-1.2196,-1.2196,-1.2196,-1.2196,-1.1754,-1.1537,-1.2196,-1.2084,-1.2229,-1.2798,-1.2946,-1.3098,-1.2893,-1.279,-1.2658,-1.2658,-1.2616,0.0,0.0,0.0,0.0,0.0,0.0,0.0,0.0,-1.3294,-1.3167,-1.3167,-1.2935,-1.2713,-1.2411,-1.2911,-1.3009,-1.2808,-1.2808,-1.2604,-1.2415,-1.2415,-1.2415,0.0,0.0,0.0,-1.3294,-1.4235,-1.4615,-1.4657,-1.5122,-1.5302,-1.5302,-1.5302,-1.5302,-1.5302,-1.5302,-1.5302,-1.5302,-1.5302,-1.5302,-1.5302,-1.5302,-1.527,-1.5249,-1.5249,-1.5249,-1.5196,-1.4974,-1.4911,-1.4869,-1.4668,-1.4615,-1.4615,-1.4615,-1.4615,-1.4615,-1.4615,-1.4615,-1.4615,-1.4615,-1.4615,-1.4604,-1.4562,-1.4594,-1.4604,-1.4562,-1.4594,-1.4615,-1.4615,-1.4615,-1.4615,-1.4615,-1.4805,-1.4995,-1.5186,-1.526,-1.5302,-1.5302,-1.5302,-1.5302,-1.5302,-1.5302,-1.5302,-1.5302,-1.5302,-1.5281,-1.5249,-1.5249,-1.5133,-1.326,-1.1907,-1.1329,-1.1329,-1.1329,-1.1329,-1.1329,-1.1329,-1.1329,-1.1329,-1.1112,-1.0995,-1.1221,-1.1304,-1.1432,-1.1765,-1.2012,-1.2257,-1.2406,-1.2452,-1.2446,-1.2335,-1.2252,0.0,0.0,0.0,0.0,0.0,0.0,0.0,0.0,-1.2591,-1.2473,-1.2473,-1.2574,-1.2461,-1.216,-1.2252,-1.2349,-1.2656,-1.2433,-1.252,-1.2604,-1.2478,-1.2488,0.0,0.0,0.0,-1.3643,-1.433,-1.4689,-1.4837,-1.5175,-1.5302,-1.5302,-1.5302,-1.5302,-1.5302,-1.5302,-1.5302,-1.5302,-1.5302,-1.5302,-1.5302,-1.5302,-1.5302,-1.5302,-1.5302,-1.5302,-1.527,-1.5175,-1.5154,-1.5122,-1.5017,-1.4985,-1.4985,-1.4985,-1.4985,-1.4985,-1.4985,-1.4985,-1.4985,-1.4985,-1.4752,-1.4605,-1.4711,-1.4332,-1.4014,-1.4241,-1.41,-1.3947,-1.3947,-1.4297,-1.453,-1.453,-1.4856,-1.5196,-1.5291,-1.5302,-1.5302,-1.5302,-1.5302,-1.5302,-1.5302,-1.5302,-1.5302,-1.5302,-1.5302,-1.5302,-1.5302,-1.5302,-1.5249,-1.2479,0.0,-1.058,-1.058,-1.0548,-1.0516,0.0,-1.0493,-1.0461,-1.0461,-1.0461,-1.0477,-1.0509,-1.077,-1.0871,-1.091,-1.1294,-1.1556,-1.1838,-1.1984,-1.18,-1.1129,-1.1537,0.0,0.0,0.0,0.0,0.0,0.0,0.0,0.0,-1.2048,-1.1956,-1.1956,-1.2122,-1.2008,-1.1743,-1.1694,-1.1904,-1.2281,-1.2105,-1.22,-1.2543,-1.2308,0.0,0.0,0.0,0.0,-1.4057,-1.4478,-1.4805,-1.4995,-1.5217,-1.5302,-1.5302,-1.5302,-1.5302,-1.5302,-1.5302,-1.5302,-1.5302,-1.5302,-1.5302,-1.5302,-1.5302,-1.5302,-1.5302,-1.5302,-1.5302,-1.5302,-1.5302,-1.5302,-1.5302,-1.5302,-1.5302,-1.5302,-1.5302,-1.5302,-1.5302,-1.5183,-1.5302,-1.5302,-1.4945,-1.4589,-1.4539,-1.4846,-1.4026,-1.359,-1.424,-1.3898,-1.3647,-1.3885,-1.4361,-1.4589,-1.4589,-1.5064,-1.5302,-1.5302,-1.5302,-1.5302,-1.5302,-1.5302,-1.5302,-1.5302,-1.5302,-1.5302,-1.5302,-1.5302,-1.5302,-1.5302,-1.5302,-1.5302,0.0,-1.0937,-1.0824,-1.0824,-1.081,-1.0683,-1.0683,-1.0572,0.0,-1.0461,-1.0461,-1.0509,-1.0659,-1.0842,-1.091,-1.1191,-1.1382,-1.1437,-1.1379,-1.1187,-1.0144,-0.764,-0.9252,0.0,0.0,0.0,0.0,0.0,0.0,0.0,0.0,-1.2187,-1.2178,-1.2178,-1.161,-1.1394,-1.1295,-1.1943,-1.2058,-1.1863,-1.1845,-1.1743,-1.1549,-1.1436,0.0,0.0,0.0,0.0,0.0,-1.4657,-1.4953,-1.4995,-1.5217,-1.5302,-1.5302,-1.5302,-1.5302,-1.5302,-1.5302,-1.5302,-1.5302,-1.5302,-1.5302,-1.5302,-1.5302,-1.5302,-1.5302,-1.5302,-1.5302,-1.5302,-1.5302,-1.5302,-1.5302,-1.5302,-1.5302,-1.5302,-1.5302,-1.5302,-1.5183,-1.4589,-1.4945,-1.4945,-1.3766,-1.4004,-1.4351,-1.446,-1.3875,-1.3875,-1.5043,-1.4698,-1.4589,-1.5183,-1.5302,-1.5302,-1.5302,-1.5302,-1.5302,-1.5302,-1.5302,-1.5302,-1.5302,-1.5302,-1.5302,-1.5302,-1.5302,-1.5302,-1.5302,-1.5302,-1.5302,-1.5302,-1.5302,-1.5302,-1.1132,-1.0855,-1.0855,-1.0855,-1.0808,-1.0761,-1.0761,-1.0739,-1.0612,-1.0612,-1.0612,-1.0636,-1.0691,-1.0945,-1.1159,-1.1231,-1.139,-1.1477,-1.1413,-1.1247,-1.0238,-0.7647,0.0,0.0,0.0,0.0,0.0,0.0,0.0,0.0,0.0,-1.1112,-1.1112,-1.1112,-1.0895,-1.0778,-1.0778,-1.1004,-1.1295,-1.1531,-1.1301,-1.1415,-1.1761,-1.1866,0.0,0.0,0.0,0.0,0.0,-1.4271,-1.4698,-1.5186,-1.527,-1.5302,-1.5302,-1.5302,-1.5302,-1.5302,-1.5302,-1.5302,-1.5302,-1.5302,-1.5302,-1.5302,-1.5302,-1.5302,-1.5302,-1.5302,-1.5302,-1.5302,-1.4827,-1.4708,-1.4589,-1.4242,-1.4123,-1.4123,-1.4123,-1.4123,-1.4123,-1.3766,-1.4004,-1.4004,-1.3528,-1.3289,-1.3399,-1.4242,-1.3528,-1.3289,-1.4589,-1.4242,-1.3885,-1.4123,-1.448,-1.4589,-1.4242,-1.4123,-1.4123,-1.4123,-1.4123,-1.4123,-1.4123,-1.4123,-1.4123,-1.4123,-1.4123,-1.4361,-1.4708,-1.4708,-1.4945,-1.5302,-1.5302,-1.5302,-1.0957,-1.102,-1.102,-1.102,-1.0981,-1.1056,-1.1056,-1.0921,-1.0786,-1.0786,-1.0786,-1.081,-1.0866,-1.1072,-1.1255,-1.131,-1.1421,-1.1485,-1.1429,-1.1263,-1.0275,-0.7726,-0.5092,-0.3482,0.0,0.0,0.0,0.0,0.0,0.0,0.0,-1.0461,-1.0461,-1.0461,-1.0461,-1.0461,-1.0461,-1.0461,-1.0678,-1.0995,-1.0862,-1.1016,-1.1442,-1.1666,0.0,0.0,0.0,0.0,0.0,-1.3987,-1.4458,-1.5064,-1.5302,-1.5302,-1.5302,-1.5302,-1.5302,-1.5302,-1.5302,-1.5302,-1.5302,-1.5302,-1.5302,-1.5302,-1.5302,-1.5302,-1.5302,-1.5302,-1.5183,-1.4945,-1.448,-1.4242,-1.4004,-1.3528,-1.3418,-1.3418,-1.3418,-1.3418,-1.3289,-1.317,-1.3289,-1.3299,-1.2813,-1.2574,-1.2685,-1.3637,-1.2804,-1.2574,-1.3885,-1.3528,-1.317,-1.3409,-1.3766,-1.3885,-1.3418,-1.3418,-1.3418,-1.3418,-1.3418,-1.3418,-1.3418,-1.3418,-1.3418,-1.3418,-1.3418,-1.3647,-1.4123,-1.4123,-1.4361,-1.4708,-1.4708,-1.4708,-1.1405,-1.1501,-1.1501,-1.1501,-1.1366,-1.1239,-1.1239,-1.1104,-1.0855,-1.0855,-1.0855,-1.091,-1.1199,-1.1239,-1.1294,-1.1477,-1.1501,-1.1437,-1.1263,-1.0965,-0.9879,-0.7374,-0.4948,-0.3482,-0.3482,0.0,0.0,0.0,0.0,0.0,0.0,-1.0461,-1.0461,-1.0461,-1.0461,-1.0461,-1.0461,-1.0461,-1.0461,-1.0461,-1.0461,-1.0461,-1.0453,-1.0278,-1.0713,0.0,0.0,0.0,0.0,-1.4035,-1.4361,-1.447,-1.5064,-1.5302,-1.5302,-1.5302,-1.5302,-1.5302,-1.5302,-1.5302,-1.5302,-1.5302,-1.5302,-1.5302,-1.5302,-1.5302,-1.5302,-1.5302,-1.4827,-1.4361,-1.4361,-1.3885,-1.3418,-1.3409,-1.3409,-1.3409,-1.3409,-1.3409,-1.317,-1.2566,-1.2932,-1.2932,-1.1739,-1.197,-1.2447,-1.2447,-1.1859,-1.1978,-1.3299,-1.2813,-1.2685,-1.3289,-1.3418,-1.3409,-1.3409,-1.3409,-1.3409,-1.3409,-1.3409,-1.3409,-1.3409,-1.3409,-1.3409,-1.3409,-1.3409,-1.3409,-1.3418,-1.3418,-1.3418,-1.3418,-1.3418,-1.3418,-1.1255,-1.1405,-1.1501,-1.1501,-1.1461,-1.1421,-1.1421,-1.1286,-1.112,-1.0886,-1.0855,-1.0871,-1.104,-1.1151,-1.1294,-1.1477,-1.1397,-1.0708,-0.902,-0.8656,-0.704,-0.2793,0.0,-0.0441,0.0,0.0,0.0,0.0,0.0,0.0,0.0,-1.0461,-1.0461,-1.0461,-1.0461,-1.0461,-1.0461,-1.0461,-1.0461,-1.0461,-1.0461,-1.0461,-1.0461,-1.097,-1.1127,-1.1132,0.0,0.0,0.0,-1.2896,-1.3289,-1.3766,-1.3885,-1.4004,-1.4004,-1.4004,-1.4004,-1.4004,-1.448,-1.4708,-1.4708,-1.5183,-1.5302,-1.5183,-1.4242,-1.4004,-1.4123,-1.4589,-1.447,-1.4361,-1.4361,-1.3518,-1.2574,-1.2097,-1.2097,-1.2097,-1.2097,-1.2097,-1.1978,-1.1739,-1.1859,-1.1978,-1.1501,-1.162,-1.1859,-1.2327,-1.2327,-1.2455,-1.3289,-1.3289,-1.317,-1.3409,-1.2574,-1.2097,-1.2097,-1.2097,-1.2097,-1.2097,-1.2097,-1.2097,-1.2097,-1.2097,-1.2097,-1.2097,-1.2097,-1.2217,-1.2685,-1.2685,-1.2932,-1.3418,-1.3418,-1.3418,-1.1167,-1.1318,-1.1397,-1.1397,-1.1397,-1.1374,-1.1302,-1.1263,-1.1183,-1.0894,-1.091,-1.1056,-1.0871,-1.112,-1.1271,-1.1382,-1.131,-1.0742,-0.9285,-0.8119,-0.5963,-0.1992,-0.0663,0.0,0.0,0.0,0.0,0.0,0.0,0.0,-1.0352,-1.0461,-1.0461,-1.0461,-1.0461,-1.0461,-1.0461,-1.0461,-1.0461,-1.0461,-1.0461,-1.0461,-1.0469,-1.1077,-1.1147,-1.0863,-1.1499,0.0,0.0,-1.2327,-1.2685,-1.3051,-1.3289,-1.3418,-1.3418,-1.3418,-1.3418,-1.3409,-1.3885,-1.4004,-1.4123,-1.447,-1.4589,-1.447,-1.3647,-1.3418,-1.3528,-1.3885,-1.4004,-1.3885,-1.3637,-1.3042,-1.2327,-1.162,-1.1501,-1.1501,-1.1501,-1.1501,-1.1501,-1.1501,-1.1501,-1.1501,-1.1501,-1.1501,-1.162,-1.1978,-1.2089,-1.2217,-1.2574,-1.2694,-1.2694,-1.2694,-1.1978,-1.1501,-1.1501,-1.1501,-1.1501,-1.1501,-1.1501,-1.1501,-1.1501,-1.1501,-1.1501,-1.1501,-1.1501,-1.162,-1.2089,-1.2089,-1.2217,-1.2694,-1.2694,-1.2694,-1.1096,-1.1191,-1.1191,-1.1207,-1.1215,-1.1167,-1.0894,0.0,-1.1159,-1.0871,-1.1072,-1.1144,-1.0886,-1.1104,-1.1215,-1.1239,-1.1223,-1.1036,-1.0627,-0.8433,-0.5977,-0.349,0.0,0.0,0.3272,0.349,0.0,0.0,0.0,0.0,-1.0019,-1.0352,-1.0461,-1.0461,-1.0461,-1.0461,-1.0461,-1.0461,-1.0461,-1.0461,-1.0461,-1.0469,-1.0493,-1.0651,-1.0826,-1.0894,-1.1183,0.0,0.0,-1.2089,-1.2327,-1.2447,-1.3051,-1.317,-1.317,-1.317,-1.317,-1.3299,-1.3289,-1.3289,-1.3289,-1.3409,-1.328,-1.3262,-1.3262,-1.3253,-1.3234,-1.3234,-1.3234,-1.3125,-1.254,-1.2421,-1.231,-1.162,-1.1501,-1.1501,-1.1501,-1.1501,-1.1501,-1.1501,-1.1501,-1.1501,-1.1501,-1.1501,-1.1501,-1.1501,-1.1501,-1.1501,-1.1501,-1.1501,-1.1501,-1.1501,-1.1501,-1.1501,-1.1501,-1.1501,-1.1501,-1.1501,-1.1501,-1.1501,-1.1501,-1.1501,-1.1501,-1.1501,-1.1501,-1.1501,-1.1501,-1.1501,-1.1501,-1.1501,-1.1501,-1.1501,-1.0763,-1.0818,-1.085,-1.0993,-1.091,-1.0902,-1.0863,-1.0886,-1.0977,-1.0802,-1.0794,-1.085,-1.0839,-1.0886,-1.1072,-1.1215,-1.112,-1.0278,-0.8315,-0.5857,-0.3386,-0.0981,0.1308,0.0,0.349,0.349,0.0,0.0,0.0,0.0,-0.7617,-0.9476,-1.0461,-1.0461,-1.0461,-1.0461,-1.0461,-1.0461,-1.0461,-1.0461,-1.0461,-1.0524,-1.0659,-1.0834,-1.1009,-1.1191,-1.1366,0.0,0.0,-1.162,-1.162,-1.1739,-1.1859,-1.1859,-1.1859,-1.1859,-1.1859,-1.1978,-1.2455,-1.2685,-1.2685,-1.3289,-1.2588,-1.1763,-1.1763,-1.1548,-1.1548,-1.2017,-1.2247,-1.2158,-1.2297,-1.234,-1.214,-1.1588,-1.1501,-1.1501,-1.1501,-1.1501,-1.1501,-1.1501,-1.1501,-1.1501,-1.1501,-1.1501,-1.1501,-1.1501,-1.1501,-1.1501,-1.1501,-1.1501,-1.1501,-1.1501,-1.1501,-1.1501,-1.1501,-1.1501,-1.1501,-1.1501,-1.1501,-1.1501,-1.1501,-1.1501,-1.1501,-1.1501,-1.1501,-1.1501,-1.1501,-1.1501,-1.1501,-1.1501,-1.1501,-1.1501,-1.0659,-1.0707,-1.0731,-1.0818,-1.0842,-1.0826,-1.0747,0.0,0.0,-1.0604,-1.0651,-1.0731,-1.0826,-1.0985,-1.1104,-1.1112,-1.1032,-1.0453,-0.9052,-0.6705,-0.4678,-0.3482,-0.0327,0.1853,0.1853,0.2834,0.2507,0.0,0.0,-0.5004,-0.8485,-0.9802,-1.0461,-1.0461,-1.0461,-1.0461,-1.0461,-1.0461,-1.0461,-1.0461,-1.0461,-1.0548,-1.0715,-1.0777,-1.1072,-1.1247,-1.1421,0.0,-1.1501,-1.1501,-1.1501,-1.1501,-1.1501,-1.1501,-1.1501,-1.1501,-1.1501,-1.1501,-1.1859,-1.1978,-1.1945,-1.2123,-1.1647,-1.1112,-1.1112,-1.104,-1.0969,-1.1319,-1.1432,-1.1449,-1.154,-1.1565,-1.1474,-1.1223,-1.1247,-1.1271,-1.1358,-1.1437,-1.1501,-1.1501,-1.1501,-1.1501,-1.1501,-1.1501,-1.1501,-1.1501,-1.1501,-1.1501,-1.1501,-1.1501,-1.1501,-1.1501,-1.1501,-1.1501,-1.1501,-1.1501,-1.1501,-1.1501,-1.1501,-1.1501,-1.1501,-1.1501,-1.1501,-1.1501,-1.1501,-1.1501,-1.1501,-1.1501,-1.1501,-1.1501,-1.1501,-1.1501,-1.0572,-1.062,-1.062,-1.062,-1.062,-1.058,-1.0445,-1.039,0.0,-1.0405,-1.0548,-1.0683,-1.0739,-1.0993,-1.1151,-1.1032,-1.0847,-1.0761,-1.0723,-0.8576,-0.696,0.0,-0.3265,-0.0436,0.0,0.1417,0.0,0.0,0.0,-0.5987,-1.0244,-1.0461,-1.0461,-1.0461,-1.0461,-1.0461,-1.0461,-1.0461,-1.0461,-1.0461,-1.0493,-1.0588,-1.0755,-1.0937,-1.1112,-1.1294,-1.1437,0.0,-1.1501,-1.1501,-1.1501,-1.1501,-1.1501,-1.1485,-1.1453,-1.1453,-1.1437,-1.1413,-1.1413,-1.1413,-1.1358,-1.0949,-1.0839,-1.0808,-1.0808,-1.0792,-1.0769,-1.0769,-1.0769,-1.0777,-1.0808,-1.0808,-1.0816,-1.0847,-1.0855,-1.0894,-1.1159,-1.1302,-1.1421,-1.1453,-1.1453,-1.1469,-1.1493,-1.1501,-1.1501,-1.1501,-1.1501,-1.1501,-1.1501,-1.1501,-1.1501,-1.1501,-1.1501,-1.1501,-1.1501,-1.1501,-1.1501,-1.1501,-1.1501,-1.1501,-1.1501,-1.1501,-1.1501,-1.1501,-1.1501,-1.1501,-1.1501,-1.1501,-1.1501,-1.1501,-1.1501,-1.1501,-1.0109,-1.0156,-1.0156,-1.0156,-1.0156,-1.0148,-1.0132,-1.0112,-1.004,-1.0093,-1.0374,-1.058,-1.0769,-1.0863,-1.1048,-1.1183,0.0,-1.0731,-1.0707,-0.8576,-0.696,-0.696,-0.4678,-0.2287,-0.0218,-0.1525,-0.2721,-0.3047,-0.5222,-0.7726,-1.0352,-1.0461,-1.0461,-1.0461,-1.0461,-1.0461,-1.0461,-1.0461,-1.0461,-1.0461,-1.0604,-1.0763,-1.0831,-1.112,-1.1294,-1.1469,0.0,0.0,-1.1501,-1.1501,-1.1501,-1.1501,-1.1501,-1.1405,-1.1271,-1.1271,-1.1175,-1.0926,-1.0926,-1.0926,-1.0918,-1.0871,-1.0753,-1.0739,-1.0739,-1.0643,-1.0524,-1.0524,-1.0524,-1.0564,-1.0707,-1.0739,-1.0778,-1.0824,-1.0855,-1.0863,-1.0886,-1.091,-1.0973,-1.1247,-1.1271,-1.1318,-1.1477,-1.1501,-1.1501,-1.1501,-1.1501,-1.1501,-1.1501,-1.1501,-1.1501,-1.1501,-1.1501,-1.1501,-1.1501,-1.1501,-1.1501,-1.1501,-1.1501,-1.1501,-1.1501,-1.1501,-1.1501,-1.1501,-1.1501,-1.1501,-1.1501,-1.1501,-1.1501,-1.1501,-1.1501,-1.1501,-1.0294,-1.027,-1.0085,-1.0085,-1.0015,-1.0048,-1.0048,-0.9905,-0.9858,-1.003,-1.0334,-1.0564,-1.0792,-1.1056,0.0,0.0,0.0,0.0,-1.058,-0.9621,-0.8926,0.0,-0.6856,0.0,-0.4026,-0.37,-0.4026,0.0,-0.7617,-0.9368,-1.0461,-1.0461,-1.0461,-1.0461,-1.0461,-1.0461,-1.0461,-1.0461,-1.0461,-1.0461,-1.0628,-1.0802,-1.0863,-1.1151,-1.1334,-1.1493,0.0,-1.135,-1.1342,-1.1247,-1.1091,-1.1091,-1.1091,-1.1159,-1.1088,-1.1088,-1.104,-1.0855,-1.0855,-1.0842,-1.0683,-1.0683,-1.0636,-1.0572,-1.0572,-1.0516,-1.0461,-1.0461,-1.0461,-1.0477,-1.0548,-1.0572,-1.0588,-1.0667,-1.0683,-1.0707,-1.0802,-1.0818,-1.0874,-1.1056,-1.1088,-1.1112,-1.1075,-1.1286,-1.135,-1.135,-1.1437,-1.1429,-1.1114,-1.1294,-1.135,-1.135,-1.1445,-1.1501,-1.1501,-1.1501,-1.1501,-1.1501,-1.1501,-1.1501,-1.1501,-1.1501,-1.1501,-1.1501,-1.1501,-1.1501,-1.1501,-1.1501,-1.1501,-1.1501,-1.1501,-1.1501,-1.0868,-1.0541,-1.007,-0.9975,-0.9961,-0.9866,-0.9866,-0.9723,-0.9699,-0.9952,-1.027,-1.0501,0.0,0.0,0.0,-1.0871,-1.0786,0.0,-1.0532,-1.0485,0.0,-1.0461,0.0,-0.7617,-0.7068,-0.5982,0.0,0.0,-0.9476,-1.0461,-1.0461,-1.0461,-1.0461,-1.0461,-1.0461,-1.0461,-1.0461,-1.0461,-1.0461,-1.0461,-1.0628,-1.0778,-1.0792,-1.1088,-1.1239,-1.1358,-1.1223,-1.1167,-1.1159,-1.091,-1.0855,-1.0855,-1.0855,-1.0831,-1.0792,-1.0792,-1.0761,-1.0842,-1.0842,-1.0675,-1.0461,-1.0461,-1.0461,-1.0461,-1.0461,-1.0461,-1.0461,-1.0461,-1.0461,-1.0461,-1.0461,-1.0461,-1.0461,-1.0461,-1.0461,-1.0493,-1.062,-1.0643,-1.0683,-1.0818,-1.0761,-1.0792,-1.0792,-1.1048,-1.1167,-1.1167,-1.1278,-1.1271,-1.0894,-1.1088,-1.1167,-1.1167,-1.1326,-1.1437,-1.1437,-1.1477,-1.1501,-1.1501,-1.1501,-1.1501,-1.1501,-1.1501,-1.1501,-1.1501,-1.1501,-1.1501,-1.1501,-1.1501,-1.1501,-1.1501,-1.1501,-1.1501,-1.1959,-1.1071,-1.0007,-0.9778,-0.9683,-0.9776,-0.9776,-0.954,-0.941,-0.9874,-1.0088,-1.0203,0.0,0.0,-1.0786,-1.0831,-1.0691,-1.0524,-1.0675,-1.0556,-1.0461,0.0,0.0,0.0,0.0,0.0,0.0,-1.0352,0.0,-1.0461,-1.0461,-1.0461,-1.0461,-1.0461,-1.0461,-1.0461,-1.0461,-1.0461,-1.0461,-1.0461,-1.0628,-1.0707,-1.0723,-1.0792,-1.0871,-1.0886,-1.0871,-1.0871,-1.0871,-1.0863,-1.0855,-1.0855,-1.0855,-1.0753,-1.0723,-1.0723,-1.062,-1.0485,-1.0485,-1.0477,-1.0461,-1.0461,-1.0461,-1.0461,-1.0461,-1.0461,-1.0461,-1.0461,-1.0461,-1.0461,-1.0461,-1.0461,-1.0461,-1.0461,-1.0461,-1.0461,-1.0469,-1.0477,-1.0477,-1.0485,-1.0612,-1.0723,-1.0723,-1.0866,-1.0871,-1.0871,-1.0879,-1.0879,-1.0855,-1.0863,-1.0871,-1.0871,-1.1144,-1.1255,-1.1255,-1.1405,-1.1501,-1.1501,-1.1501,-1.1501,-1.1501,-1.1501,-1.1501,-1.1501,-1.1501,-1.1501,-1.1501,-1.1501,-1.1501,-1.1501,-1.1501,-1.1501,-1.2453,-1.1771,-1.1142,-0.9993,-0.958,-0.9493,-0.9493,-0.9445,-0.9469,-0.9707,-0.9993,-1.0156,-1.0509,-1.0636,-1.0723,-1.0786,-1.0612,-1.0485,-1.054,-1.0501,-1.0461,-1.0461,-1.0461,-1.0135,0.0,0.0,0.0,-1.0461,-1.0461,-1.0461,-1.0461,-1.0461,-1.0461,-1.0461,-1.0461,-1.0081,-0.9211,-0.9211,-0.9168,-0.9076,-0.9325,-0.9826,-1.0715,-1.0098,-1.0286,-1.0847,-1.085,-1.0802,-1.0794,-1.0683,-1.0643,-1.0643,-1.0643,-1.0604,-1.0548,-1.0548,-1.0509,-1.0461,-1.0461,-1.0461,-1.0461,-1.0461,-1.0461,-1.0461,-1.0461,-1.0461,-1.0461,-1.0461,-1.0461,-1.0461,-1.0461,-1.0461,-1.0461,-1.0461,-1.0461,-1.0461,-1.0461,-1.0461,-1.0461,-1.0461,-1.0509,-1.0548,-1.0548,-1.0604,-1.0675,-1.0786,-1.0707,-1.0643,-1.0643,-1.0731,-1.0802,-1.0802,-1.0961,-1.1064,-1.1064,-1.1231,-1.1334,-1.1334,-1.1437,-1.1501,-1.1501,-1.1501,-1.1501,-1.1501,-1.1501,-1.1501,-1.1501,-1.1501,-1.1501,-1.1501,-1.1501,-1.1501,-1.3949,-1.2813,-1.1742,-1.0682,-0.9878,-0.93,-0.93,-0.93,-0.9469,-0.9707,-0.9945,-1.0175,-1.0421,-1.0548,-1.0628,-1.0628,-1.0532,-1.0461,-1.0461,-1.0461,-1.0461,-1.0461,-1.0461,0.0,0.0,0.0,0.0,-1.0374,-1.0318,-1.0286,-1.0286,-1.0286,-1.0286,-1.0286,-0.9966,-0.9374,-0.8523,-0.8103,-0.7954,-0.7866,-0.7986,-0.8574,-0.9329,-0.8823,-0.9112,-1.0114,-1.0114,-1.0289,-1.0612,-1.0509,-1.0461,-1.0461,-1.0461,-1.0461,-1.0461,-1.0461,-1.0461,-1.0461,-1.0461,-1.0461,-1.0461,-1.0461,-1.0461,-1.0461,-1.0461,-1.0461,-1.0461,-1.0461,-1.0461,-1.0461,-1.0461,-1.0461,-1.0461,-1.0461,-1.0461,-1.0461,-1.0461,-1.0461,-1.0461,-1.0461,-1.0461,-1.0461,-1.0461,-1.0461,-1.0501,-1.0604,-1.0532,-1.0461,-1.0461,-1.0556,-1.0628,-1.0628,-1.0778,-1.0769,-1.0769,-1.1048,-1.1144,-1.1144,-1.1318,-1.1413,-1.1413,-1.1469,-1.1501,-1.1501,-1.1501,-1.1501,-1.1501,-1.1501,-1.1501,-1.1501,-1.1501,-1.1501,-1.6383,-1.4352,-1.2102,-1.1804,-1.0576,-0.9503,-0.9503,-0.9503,-0.9599,-0.9952,-1.0032,-1.0032,-1.039,-1.0453,-1.0461,-1.0461,-1.0461,-1.0461,-1.0461,-1.0461,-1.0461,-1.0461,-1.0461,-1.0453,0.0,-1.0286,-1.0077,-1.0077,-1.0024,-0.9929,-0.9929,-0.9929,-0.9929,-0.9826,-0.8898,-0.8279,-0.8272,-0.7235,-0.6719,-0.6713,-0.6732,-0.679,-0.6796,-0.6917,-0.7623,-0.8709,-0.8709,-0.936,-1.0352,-1.0461,-1.0461,-1.0461,-1.0461,-1.0461,-1.0461,-1.0461,-1.0461,-1.0461,-1.0461,-1.0461,-1.0461,-1.0461,-1.0461,-1.0461,-1.0461,-1.0461,-1.0461,-1.0461,-1.0461,-1.0461,-1.0461,-1.0461,-1.0461,-1.0461,-1.0461,-1.0461,-1.0461,-1.0461,-1.0461,-1.0461,-1.0461,-1.0461,-1.0461,-1.0461,-1.0461,-1.0461,-1.0461,-1.0461,-1.0461,-1.0461,-1.0569,-1.0569,-1.0714,-1.081,-1.081,-1.097,-1.1075,-1.1075,-1.1243,-1.1464,-1.1464,-1.1508,-1.1485,-1.1485,-1.1493,-1.1493,-1.1493,-1.1501,-1.1501,-1.1501,-1.1501,-1.1501,-1.6757,-1.592,-1.5313,-1.4064,-1.3448,-1.3151,-1.3151,-1.3151,-1.2787,-1.1719,-1.1567,-1.134,-1.0435,-1.0374,-1.0461,-1.0461,-1.0461,-1.0461,-1.0461,-1.0461,-1.0461,-1.0461,-1.0461,-1.0358,-1.0104,-1.0032,-1.0001,-1.0001,-0.9961,-0.9929,-0.9929,-0.9929,-0.9517,-0.8795,-0.8485,-0.7617,-0.5992,-0.5688,-0.5445,-0.5278,-0.5445,-0.5528,-0.5428,-0.6558,-0.7188,-0.7514,-0.7514,-0.7623,-0.8064,-0.8926,-0.9252,-0.936,-1.0135,-1.0461,-1.0352,-0.9585,-0.9802,-1.0461,-1.0461,-1.0461,-1.0461,-1.0461,-1.0461,-1.0461,-1.0461,-1.0461,-1.0461,-1.0461,-1.0461,-1.0461,-1.0461,-1.0461,-1.0461,-1.0461,-1.0461,-1.0461,-1.0461,-1.0461,-1.0461,-1.0461,-1.0461,-1.0461,-1.0461,-1.0461,-1.0461,-1.0461,-1.0461,-1.0461,-1.0461,-1.0461,-1.1004,-1.2187,-1.2342,-1.2914,-1.4089,-1.4423,-1.4563,-1.4563,-1.4675,-1.4803,-1.4803,-1.3606,-1.307,-1.307,-1.1938,-1.131,-1.131,-1.1437,-1.1501,-1.1501,-1.1501,-1.1501,-1.7435,-1.6894,-1.6423,-1.5412,-1.4695,-1.4352,-1.4244,-1.4304,-1.4116,-1.3227,-1.3056,-1.2717,-1.129,-1.1108,-1.0974,0.0,-1.0239,-1.0239,-1.0239,-1.0239,-1.0239,-1.0239,-1.0239,-1.0159,-0.9953,-0.9866,-0.9818,-0.9818,-0.9747,-0.9707,-0.9707,-0.9707,-0.9203,-0.8201,-0.7696,-0.6647,-0.4884,-0.4523,-0.4215,-0.4074,-0.4323,-0.4396,-0.4298,-0.5166,-0.5556,-0.5556,-0.6105,-0.654,-0.7085,-0.7731,-0.8057,-0.8057,-0.8716,-0.9368,-0.9693,-0.9585,-0.991,-1.0569,-1.1329,-1.1537,-1.1537,-1.1537,-1.1537,-1.1438,-1.0678,-1.0461,-1.0461,-1.0461,-1.0461,-1.0461,-1.0461,-1.0461,-1.0461,-1.0461,-1.0461,-1.0461,-1.0461,-1.0461,-1.0461,-1.0461,-1.0461,-1.0461,-1.0461,-1.0461,-1.0461,-1.0461,-1.1754,-1.2394,-1.1646,-1.2178,-1.3043,-1.4004,-1.4112,-1.4435,-1.5501,-1.5642,-1.5736,-1.5736,-1.5984,-1.6014,-1.6014,-1.5105,-1.4707,-1.4707,-1.3816,-1.2964,-1.2273,-1.2271,-1.1981,-1.1278,-1.1278,-1.1278,-1.8486,-1.7552,-1.652,-1.6377,-1.5466,-1.4536,0.0,0.0,-1.4561,-1.4595,-1.4667,-1.425,-1.2758,-1.2511,-1.2007,-1.0444,-1.0135,-1.0135,-0.9929,-0.9929,-0.9913,-0.9874,-0.9874,-0.9874,-0.9874,-0.9731,-0.9635,-0.9635,-0.9485,-0.93,-0.93,-0.93,-0.8812,-0.7647,-0.6668,-0.5689,-0.4509,-0.3701,-0.3331,-0.3334,-0.3451,-0.3506,-0.3509,-0.3461,-0.349,-0.3599,-0.458,-0.5669,-0.6644,-0.6758,-0.6758,-0.6867,-0.7079,-0.8057,-0.9469,-1.0453,-1.0995,-1.132,-1.2836,-1.3269,-1.3269,-1.3269,-1.3269,-1.3053,-1.1537,-1.1104,-1.1104,-1.1104,-1.1104,-1.0995,-1.0787,-1.0787,-1.0787,-1.0569,-1.0461,-1.0461,-1.0461,-1.0461,-1.0461,-1.0461,-1.0461,-1.0461,-1.0461,-1.0678,-1.0895,-1.0995,-1.3573,-1.4963,-1.3475,-1.4651,-1.5501,-1.5501,-1.5716,-1.5823,-1.5823,-1.6038,-1.6145,-1.6145,-1.6379,-1.6514,-1.6514,-1.6413,-1.6433,-1.6433,-1.6232,-1.5342,-1.3874,-1.3904,-1.3006,-1.1197,-1.1197,-1.1286,0.0,0.0,0.0,0.0,0.0,0.0,0.0,0.0,-1.7855,-1.6529,-1.6432,-1.6098,-1.4416,-1.4393,-1.3941,-1.211,-1.1773,-1.1362,-1.0135,-0.9929,-0.9826,-0.9433,-0.9402,-0.9402,-0.9402,-0.9469,-0.9445,-0.9445,-0.9323,-0.93,-0.93,-0.93,-0.8422,-0.657,-0.6277,-0.5302,-0.3437,-0.3301,-0.3331,-0.3334,-0.3451,-0.3506,-0.3509,-0.3461,-0.349,-0.349,-0.3708,-0.3926,-0.4253,-0.5234,-0.556,-0.5778,-0.7623,-1.022,-1.2797,-1.3023,-1.3778,-1.464,-1.4974,-1.5082,-1.5082,-1.5082,-1.5082,-1.4963,-1.464,-1.4543,-1.4543,-1.4543,-1.4543,-1.422,-1.2945,-1.2512,-1.2187,-1.0787,-1.0461,-1.0461,-1.0461,-1.0461,-1.0461,-1.0461,-1.0461,-1.0461,-1.0461,-1.1646,-1.3043,-1.4328,-1.5178,-1.5393,-1.507,-1.5393,-1.5501,-1.5501,-1.6897,-1.7768,-1.7768,-1.8945,-1.9815,-1.9815,-1.9875,-1.9798,-1.9798,-1.8564,-1.7835,-1.7835,-1.6636,-1.5862,-1.5529,-1.5623,-1.4707,-1.312,-1.312,-1.3611,0.0,0.0,0.0,0.0,0.0,0.0,0.0,0.0,0.0,0.0,0.0,-1.7477,0.0,0.0,-1.5251,-1.3636,-1.3236,-1.2561,-1.0971,-1.077,-1.0699,-1.0496,-1.047,-1.047,-1.047,-0.93,-0.891,-0.9682,-0.9007,-0.8519,-0.8519,-0.9007,-0.8324,-0.6282,-0.6184,-0.5225,-0.3185,-0.3244,-0.3286,-0.3421,-0.3509,-0.4087,-0.527,-0.5206,-0.5878,-0.696,-0.696,-0.696,-0.7068,-0.7617,-0.8051,-0.8485,-1.0429,-1.2267,-1.3875,-1.4414,-1.507,-1.5716,-1.6575,-1.6897,-1.6897,-1.6897,-1.6897,-1.6789,-1.5823,-1.5501,-1.5501,-1.5501,-1.5501,-1.5393,-1.4543,-1.4328,-1.4112,-1.3249,-1.3043,-1.3043,-1.3043,-1.3043,-1.3043,-1.3043,-1.3043,-1.3043,-1.3043,-1.4435,-1.562,-1.5608,-1.7004,-1.7875,-1.7004,-1.766,-1.8251,-1.8418,-1.9299,-1.9855,-1.9855,-2.0612,-2.0981,-2.0791,-2.0776,-2.0776,-2.0776,-2.0029,-1.9495,-1.9495,-1.878,-1.7984,-1.7115,-1.7147,-1.6343,-1.4566,-1.5088,-1.5334,0.0,0.0,0.0,0.0,0.0,0.0,0.0,0.0,0.0,0.0,0.0,0.0,0.0,0.0,0.0,-1.5114,-1.4646,-1.3812,-1.2318,-1.2425,-1.2425,-1.2134,-1.2134,-1.2134,-1.2134,-1.008,-0.9397,-1.0655,-0.9487,-0.8714,-0.8714,-0.9495,-0.9105,-0.7157,-0.7182,-0.6351,-0.4639,-0.4631,-0.4713,-0.478,0.0,0.0,-0.772,-0.772,-0.8689,-1.0529,-1.0529,-1.0529,-1.0529,-1.0638,-1.0854,-1.1502,-1.3673,-1.4495,-1.4602,-1.5678,-1.6104,-1.6317,-1.7804,-1.8242,-1.8242,-1.8348,-1.8454,-1.8122,-1.6849,-1.6461,0.0,-1.6499,-1.6537,-1.6467,-1.6145,-1.6038,-1.6038,-1.5608,-1.5501,-1.5501,-1.5501,-1.5501,-1.5501,-1.5501,-1.5501,-1.5501,-1.5501,-1.7286,-1.8127,-1.6789,-1.8902,-2.0303,-1.9032,-1.9907,-2.0823,-2.1186,-2.1218,-2.1218,-2.1218,-2.1344,-2.1234,-2.0807,-2.0902,-2.0949,-2.0886,-2.0886,-2.0855,-2.0776,-2.0776,-2.0074,-1.856,-1.856,-1.7592,-1.5879,-1.7214,-1.716,0.0,0.0,0.0,0.0,0.0,0.0,0.0,0.0,0.0,0.0,0.0,0.0,0.0,0.0,0.0,0.0,-1.589,-1.5227,-1.3932,-1.4935,-1.5322,-1.387,-1.3773,-1.3773,-1.3773,-1.3083,-1.2695,-1.2889,-1.2307,-1.1929,-1.1929,0.0,0.0,0.0,0.0,-1.0327,-0.9143,-0.9355,-0.9526,-0.9541,-0.9698,-0.988,-1.0097,-1.0097,-1.0205,-1.0529,-1.0529,-1.0529,-1.0529,-1.097,-1.1187,-1.1691,-1.5409,-1.6881,-1.6984,-1.7729,-1.7934,-1.8036,-1.8241,0.0,0.0,-1.8855,-1.8957,-1.9059,-1.9248,-1.9462,-1.9707,-1.9707,-1.9906,-1.9922,-1.8303,-1.7982,-1.7553,-1.593,-1.5501,-1.5501,-1.5501,-1.5501,-1.5501,-1.5501,-1.5501,-1.5501,-1.5501,-1.7975,-2.0024,-2.0196,-2.0207,-2.0465,-2.0969,-2.0606,-2.0476,-2.0807,0.0,0.0,-2.0839,-2.1407,-2.1486,-2.0823,-2.136,-2.1565,-2.1265,-2.1374,-2.1107,-2.0791,-2.0776,-2.0371,-1.9656,-1.9656,-1.8738,-1.6984,-1.9349,-1.9875,0.0,0.0,0.0,0.0,0.0,0.0,0.0,0.0,0.0,0.0,0.0,0.0,0.0,0.0,0.0,0.0,-1.7507,-1.7317,-1.6595,-1.7068,-1.6856,-1.5116,-1.5141,-1.5225,-1.4948,-1.3374,-1.2695,-1.3556,-1.2307,-1.154,-1.154,-1.2344,-1.2158,-1.0956,-1.124,-1.0944,-0.9744,-0.9794,-0.981,-0.9809,-0.9878,-1.0645,-1.2008,-1.2008,-1.2741,0.0,-1.4007,-1.4007,-1.4007,-1.4216,-1.4321,0.0,0.0,0.0,0.0,0.0,-1.8768,-1.8989,-1.9116,-1.8953,-1.875,-1.8953,-1.8851,-1.8648,-1.8851,-1.9044,-1.9165,-1.9473,-1.9669,-1.9719,-1.9484,-1.9424,-1.9257,-1.8689,-1.8624,-1.8624,-1.8624,-1.8624,-1.8624,-1.8624,-1.8377,0.0,-1.801,-1.9122,-2.0018,-2.016,-2.0065,-2.0081,-2.047,-2.016,-2.0113,-2.046,-2.0492,-2.0492,-2.0492,-2.0934,0.0,0.0,0.0,-2.1155,-2.1012,-2.0823,0.0,0.0,0.0,0.0,0.0,0.0,0.0,0.0,-1.943,-1.9805,0.0,0.0,0.0,0.0,0.0,0.0,0.0,0.0,0.0,0.0,0.0,0.0,0.0,0.0,0.0,0.0,0.0,-1.8405,-1.8877,-1.8415,-1.7704,-1.6422,-1.638,-1.6366,-1.6067,-1.4077,-1.3266,-1.4492,-1.298,-1.2035,-1.2131,-1.2975,-1.2986,-1.1949,-1.2401,-1.2151,-1.116,-1.1427,-1.1558,-1.1446,-1.1501,-1.2428,-1.4018,-1.4018,-1.4938,-1.6482,-1.6482,-1.6534,-1.6614,-1.6819,-1.6922,-1.7038,-1.8769,-1.9226,-1.9029,-1.8665,-1.8607,-1.8867,-1.9043,-1.8866,-1.8565,-1.8665,-1.848,-1.818,-1.818,-1.8238,-1.8413,-1.86,-1.8776,-1.8999,-1.9565,-1.973,-1.9792,-2.0234,-2.0297,-2.0402,-2.0507,-2.0492,-2.0492,-2.0492,-2.0223,-1.9907,-1.9655,-1.9708,-1.974,-1.9835,-1.9772,0.0,-1.9876,-1.9734,-1.975,-2.0097,-2.0541,-2.0954,-2.0954,-2.189,-2.2256,-2.1795,-2.2205,-2.2376,-2.2154,-2.2,-2.1589,-2.0809,-2.0358,-2.0081,0.0,0.0,0.0,0.0,0.0,0.0,0.0,0.0,0.0,0.0,0.0,0.0,0.0,0.0,0.0,0.0,0.0,0.0,0.0,0.0,0.0,0.0,0.0,0.0,-2.0213,-1.8933,-1.7824,-1.8155,-1.7427,-1.6999,-1.7424,-1.6245,-1.5603,-1.6059,-1.516,-1.4794,-1.5238,-1.4899,-1.4716,-1.4611,-1.5158,-1.5444,-1.5347,-1.6278,-1.6551,-1.6278,-1.6564,-1.6564,-1.638,-1.638,-1.6482,-1.6482,-1.6482,-1.6653,-1.6917,-1.7544,-1.7858,-1.7968,-1.9608,-2.0162,-1.9971,-1.7873,-1.7212,-1.7198,-1.7183,-1.7183,-1.728,-1.7791,-1.7888,-1.7888,-1.7888,-1.8196,-1.8355,-1.786,-1.7994,-1.8343,-1.8358,-1.8358,-1.8459,-1.8968,-1.9085,-1.9289,-1.9781,-1.9883,-1.9883,-1.9883,-1.9497,-1.9244,-1.9229,-1.9229,-1.9355,-1.9803,-1.945,0.0,-2.0072,-1.9655,-1.9371,-1.9835,-2.157,-2.2678,-2.2678,-2.5126,-2.6381,-2.5705,-2.6259,-2.6361,-2.5705,-2.5973,-2.5175,-2.3222,-2.1046,-1.9692,-1.9244,0.0,0.0,0.0,0.0,0.0,0.0,0.0,0.0,0.0,0.0,0.0,0.0,0.0,0.0,0.0,0.0,0.0,0.0,0.0,0.0,0.0,0.0,0.0,0.0,0.0,-1.9569,-2.0774,-1.9979,-1.9148,-1.892,-1.8167,-1.7272,-1.6212,-1.5315,-1.4859,-1.495,-1.5031,-1.4965,-1.4781,-1.5137,-1.5335,-1.5335,-1.5625,-1.5822,-1.5915,-1.5921,-1.5921,-1.5915,-1.5915,-1.5915,-1.5915,-1.5915,-1.6757,-1.8127,-1.8719,-1.9637,-2.0729,-2.1488,-2.167,-2.1474,-2.0937,-2.077,-2.0971,-2.0971,-2.1086,-2.0987,-1.9858,-1.8516,-1.7361,-1.7361,-1.7435,-1.7605,-1.7717,-1.7903,-1.8136,-1.8743,-1.8705,-1.8465,-1.8994,-1.9055,-1.9156,-1.9242,-1.9547,-1.9851,-1.9851,-2.0445,-2.0876,-2.0876,-2.0876,-2.1393,-2.289,-2.2968,-2.2987,-2.3177,-2.2967,-2.293,-2.2987,-2.3681,-2.4067,-2.4067,-2.5098,-2.5718,-2.5506,-2.5946,-2.6031,-2.5822,-2.5698,-2.5319,-2.4627,-2.3605,-2.3313,-2.3716,0.0,0.0,0.0,0.0,0.0,0.0,0.0,0.0,0.0,0.0,0.0,0.0,0.0,0.0,0.0,0.0,0.0,0.0,0.0,0.0,0.0,0.0,0.0,0.0,0.0,0.0,-2.1964,-2.1325,0.0,-2.05,-1.9926,-1.9194,-1.8448,-1.7469,-1.6698,-1.6219,-1.6682,-1.6107,-1.4464,-1.5352,-1.5926,-1.6132,-1.6358,-1.6842,-1.7731,-1.7851,-1.7836,-1.7716,-1.7716,-1.7716,-1.7716,-1.7716,-1.8547,-2.0009,-2.11,-2.2643,-2.4133,-2.3721,-2.3371,-2.2945,-2.245,-2.2375,-2.2547,-2.2547,-2.2754,-2.2845,-2.1435,-2.0294,-1.9251,-1.9059,-1.9059,-1.8963,-1.85,-1.8419,-1.8466,-1.8489,-1.8242,-1.8106,-1.8544,-1.859,-1.8689,-1.8889,-1.9768,-2.0743,-2.1435,-2.2273,-2.2756,-2.2756,-2.2756,-2.3229,-2.4456,-2.4645,-2.4645,-2.4645,-2.4645,-2.4645,-2.4645,-2.5303,-2.5794,-2.5794,-2.6646,-2.7228,-2.7228,-2.7403,-2.7583,-2.7583,-2.7386,-2.692,-2.6178,-2.5678,-2.5346,0.0,0.0,0.0,0.0,0.0,0.0,0.0,0.0,0.0,0.0,0.0,0.0,0.0,0.0,0.0,0.0,0.0,0.0,0.0,0.0,0.0,0.0,0.0,0.0,0.0,0.0,0.0,-2.183,-2.1621,0.0,0.0,0.0,0.0,-2.2189,-2.1319,-2.0173,-1.8935,-1.9651,-1.8188,-1.4255,-1.6156,-1.7448,-1.798,-1.8469,-1.9774,-2.1694,-2.2002,-2.2002,-2.1808,-2.1808,-2.1808,-2.1808,-2.1808,-2.1933,-2.2459,-2.4601,-2.6392,-2.7551,-2.6053,-2.5219,-2.4554,-2.2686,-2.1991,-2.1991,-2.2081,-2.2467,-2.2824,-2.2824,-2.3121,-2.3363,-2.2737,-2.2528,0.0,0.0,-1.96,-1.9314,-1.7813,-1.7443,-1.7539,-1.8035,-1.8146,-1.8323,-1.8804,-2.0493,-2.2472,0.0,-2.4739,-2.4833,-2.4739,0.0,-2.4833,-2.4927,-2.4927,-2.4927,-2.4927,-2.5021,-2.5021,-2.5021,-2.6731,-2.7968,-2.7968,-2.964,-3.0682,-3.0682,-3.0682,-3.0682,-3.0682,-3.0682,-2.9825,-2.7944,-2.731,0.0,0.0,0.0,0.0,0.0,0.0,0.0,0.0,0.0,0.0,0.0,0.0,0.0,0.0,0.0,0.0,0.0,0.0,0.0,0.0,0.0,0.0,0.0,0.0,0.0,0.0,-2.4764,-2.4157,-2.5034,-2.4367,-2.3861,0.0,0.0,0.0,0.0,0.0,0.0,-1.918,-1.9747,-1.9528,-1.8466,-1.8987,-1.9268,-1.9374,-1.9853,-2.0519,-2.1197,-2.1676,-2.1823,-2.1808,-2.1808,-2.1808,-2.1808,-2.1808,-2.2624,-2.4107,-2.5461,-2.6317,-2.6556,-2.6201,-2.593,-2.5727,-2.5285,-2.5332,-2.5737,-2.6098,-2.6623,-2.6944,-2.6085,0.0,-2.5166,-2.3599,0.0,0.0,0.0,0.0,-2.2166,-2.2207,-2.1713,-2.1237,-2.1826,-2.1921,-2.2016,-2.2472,-2.3324,-2.3985,0.0,-2.5418,-2.6263,-2.5888,0.0,0.0,0.0,0.0,-2.8898,-2.9177,-2.9177,-2.9177,-2.9177,-2.964,-2.9943,-2.9943,-3.0405,-3.0682,-3.0682,-3.0682,-3.0682,-3.0682,-3.0682,-3.0292,-2.9427,0.0,0.0,0.0,0.0,0.0,0.0,0.0,0.0,0.0,0.0,0.0,0.0,0.0,0.0,0.0,0.0,0.0,0.0,0.0,0.0,0.0,0.0,0.0,0.0,0.0,0.0,0.0,-2.5539,-2.5474,-2.6356,-2.581,-2.553,0.0,0.0,0.0,0.0,0.0,0.0,0.0,0.0,0.0,-1.9653,-2.0849,-2.1489,-2.1403,-2.1992,-2.2799,-2.3886,-2.4413,-2.4539,-2.4353,-2.4655,-2.4447,-2.4073,-2.4073,-2.5483,-2.7688,-2.833,-2.8591,-2.866,0.0,0.0,0.0,0.0,-2.6861,-2.7043,-2.6632,-2.6792,0.0,-2.6526,0.0,0.0,0.0,0.0,0.0,0.0,0.0,0.0,0.0,0.0,-2.3513,-2.389,-2.389,-2.3985,-2.4173,-2.5772,-2.6943,0.0,-2.7522,-2.8189,-2.7889,0.0,0.0,0.0,0.0,0.0,-2.9712,-3.028,-3.0671,-3.0437,-3.0619,-3.0682,-3.0682,-3.0682,-3.0682,-3.0682,-3.0682,-3.0682,-3.0682,-3.0541,-3.0255,0.0,0.0,0.0,0.0,0.0,0.0,0.0,0.0,0.0,0.0,0.0,0.0,0.0,0.0,0.0,0.0,0.0,0.0,0.0,0.0,0.0,0.0,0.0,0.0,0.0,0.0,0.0,0.0,0.0,-2.5762,-2.6255,0.0,0.0,0.0,0.0,0.0,0.0,0.0,0.0,0.0,0.0,0.0,0.0,0.0,-2.4566,-2.4466,-2.4994,-2.6285,-2.8265,-2.8724,-2.8659,-2.8298,-2.893,-2.8605,-2.746,-2.7497,0.0,-3.1277,-3.1367,0.0,0.0,0.0,0.0,0.0,0.0,0.0,0.0,0.0,0.0,0.0,0.0,0.0,0.0,0.0,0.0,0.0,0.0,0.0,0.0,0.0,0.0,-2.5209,-2.5239,-2.526,-2.5324,0.0,-2.7804,-2.994,-2.9648,-2.9583,0.0,0.0,0.0,0.0,0.0,0.0,0.0,-2.8489,-2.9648,-3.0359,-2.9866,-3.0255,-3.0541,-3.0541,-3.0619,-3.0736,-3.1012,-3.092,-3.1103,-3.1287,-3.055,0.0,0.0,0.0,0.0,0.0,0.0,0.0,0.0,0.0,0.0,0.0,0.0,0.0,0.0,0.0,0.0,0.0,0.0,0.0,0.0,0.0,0.0,0.0,0.0,0.0,0.0,0.0,0.0,0.0,0.0,0.0,0.0,0.0,0.0,0.0,0.0,0.0,0.0,0.0,0.0,0.0,0.0,0.0,0.0,0.0,0.0,0.0,0.0,0.0,0.0,-3.1665,-3.1737,-3.1676,-3.2435,-3.1656,-2.9724,-2.9974,-3.011,-3.0247,0.0,0.0,0.0,0.0,0.0,0.0,0.0,0.0,0.0,0.0,0.0,0.0,0.0,0.0,0.0,0.0,0.0,0.0,0.0,0.0,0.0,0.0,0.0,0.0,0.0,-2.8213,-2.8644,0.0,0.0,0.0,0.0,0.0,0.0,0.0,0.0,0.0,0.0,0.0,0.0,-2.8388,-2.8979,-2.9434,-2.933,-2.9408,-2.946,-2.946,-2.9814,-3.0767,-3.2348,-3.2259,-3.2882,0.0,0.0,0.0,0.0,0.0,0.0,0.0,0.0,0.0,0.0,0.0,0.0,0.0,0.0,0.0,0.0,0.0,0.0,0.0,0.0,0.0,0.0,0.0,0.0,0.0,0.0,0.0,0.0,0.0,0.0,0.0,0.0,0.0,0.0,0.0,0.0,0.0,0.0,0.0,0.0,0.0,0.0,0.0,0.0,0.0,0.0,0.0,0.0,0.0,0.0,0.0,0.0,0.0,0.0,0.0,0.0,0.0,0.0,0.0,-3.2851,0.0,0.0,0.0,0.0,0.0,0.0,0.0,0.0,0.0,0.0,0.0,0.0,0.0,0.0,0.0,0.0,0.0,0.0,0.0,0.0,0.0,0.0,0.0,0.0,0.0,0.0,0.0,0.0,0.0,0.0,0.0,0.0,0.0,0.0,0.0,0.0,0.0,0.0,0.0,0.0,-2.8935,-2.9888,-3.0313,-3.0014,-3.1089,-3.1801,-3.1801,-3.237,-3.3181,-3.4119,-3.4031,0.0,0.0,0.0,0.0,0.0,0.0,0.0,0.0,0.0,0.0,0.0,0.0,0.0,0.0,0.0,0.0,0.0,0.0,0.0,0.0,0.0,0.0,0.0,0.0,0.0,0.0,0.0,0.0,0.0,0.0,0.0,0.0,0.0,0.0,0.0,0.0,0.0,0.0,0.0,0.0,0.0,0.0,0.0,0.0,0.0,0.0,0.0,0.0,0.0,0.0,0.0,0.0,0.0,0.0,0.0,0.0,0.0,0.0,0.0,-3.4409,0.0,0.0,0.0,0.0,0.0,0.0,0.0,0.0,0.0,0.0,0.0,0.0,0.0,0.0,0.0,0.0,0.0,0.0,0.0,0.0,0.0,0.0,0.0,0.0,0.0,0.0,0.0,0.0,0.0,0.0,0.0,0.0,0.0,0.0,0.0,0.0,0.0,0.0,0.0,0.0,0.0,-2.9889,-3.0922,-3.1456,-3.0857,-3.2481,-3.3564,-3.3564,-3.4373,-3.4943,-3.5373,-3.5428,0.0,0.0,0.0,0.0,0.0,0.0,0.0,0.0,0.0,0.0,0.0,0.0,0.0,0.0,0.0,0.0,0.0,0.0,0.0,0.0,0.0,0.0,0.0,0.0,0.0,0.0,0.0,0.0,0.0,0.0,0.0,0.0,0.0,0.0,0.0,0.0,0.0,0.0,0.0,0.0,0.0,0.0,0.0,0.0,0.0,0.0,0.0,0.0,0.0,0.0,0.0,0.0,0.0,0.0,0.0,0.0,0.0,0.0,0.0,0.0,0.0,0.0,0.0,0.0,0.0,0.0,0.0,0.0,0.0,0.0,0.0,0.0,0.0,0.0,0.0,0.0,0.0,0.0,0.0,0.0,0.0,0.0,0.0,0.0,0.0,0.0,0.0,0.0,0.0,0.0,0.0,0.0,0.0,0.0,0.0,0.0,0.0,0.0,0.0,0.0,0.0,-3.0861,-3.1169,-3.1279,-3.122,-3.144,-3.1551,-3.1551,-3.2393,-3.3694,-3.5419,0.0,0.0,0.0,0.0,0.0,0.0,0.0,0.0,0.0,0.0,0.0,0.0,0.0,0.0,0.0,0.0,0.0,0.0,0.0,0.0,0.0,0.0,0.0,0.0,0.0,0.0,0.0,0.0,0.0,0.0,0.0,0.0,0.0,0.0,0.0,0.0,0.0,0.0,0.0,0.0,0.0,0.0,0.0,0.0,0.0,0.0,0.0,0.0,0.0,0.0,0.0,0.0,0.0,0.0,0.0,0.0,0.0,0.0,0.0,0.0,0.0,0.0,0.0,0.0,0.0,0.0,0.0,0.0,0.0,0.0,0.0,0.0,0.0,0.0,0.0,0.0,0.0,0.0,0.0,0.0,0.0,0.0,0.0,0.0,0.0,0.0,0.0,0.0,0.0,0.0,0.0,0.0,0.0,0.0,0.0,0.0,0.0,0.0,0.0,0.0,0.0,0.0,-3.2336,-3.2698,-3.2777,-3.2777,-3.3759,-3.4343,-3.4343,-3.4888,-3.5729,-3.7047,0.0,0.0,0.0,0.0,0.0,0.0,0.0,0.0,0.0,0.0,0.0,0.0,0.0,0.0,0.0,0.0,0.0,0.0,0.0,0.0,0.0,0.0,0.0,0.0,0.0,0.0,0.0,0.0,0.0,0.0,0.0,0.0,0.0,0.0,0.0,0.0,0.0,0.0,0.0,0.0,0.0,0.0,0.0,0.0,0.0,0.0,0.0,0.0,0.0,0.0,0.0,0.0,0.0,0.0,0.0,0.0,0.0,0.0,0.0,0.0,0.0,0.0,0.0,0.0,0.0,0.0,0.0,0.0,0.0,0.0,0.0,0.0,0.0,0.0,0.0,0.0,0.0,0.0,0.0,0.0,0.0,0.0,0.0,0.0,0.0,0.0,0.0,0.0,0.0,0.0,0.0,0.0,0.0,0.0,0.0,0.0,0.0,0.0,0.0,0.0,0.0,0.0,-3.3621,-3.4023,-3.4153,-3.4153,-3.5207,-3.5944,-3.5944,-3.6281,-3.6814,-3.7731,0.0,0.0,0.0,0.0,0.0,0.0,0.0,0.0,0.0,0.0,0.0,0.0,0.0,0.0,0.0,0.0,0.0,0.0,0.0,0.0,0.0,0.0,0.0,0.0,0.0,0.0,0.0,0.0,0.0,0.0,0.0,0.0,0.0,0.0,0.0,0.0,0.0,0.0,0.0,0.0,0.0,0.0,0.0,0.0,0.0,0.0,0.0,0.0,0.0,0.0,0.0,0.0,0.0,0.0,0.0,0.0,0.0,0.0,0.0,0.0,0.0,0.0,0.0,0.0,0.0,0.0,0.0,0.0,0.0,0.0,0.0,0.0,0.0,0.0,0.0,0.0,0.0,0.0,0.0,0.0,0.0,0.0,0.0,0.0,0.0,0.0,0.0,0.0,0.0,0.0,0.0,0.0,0.0,0.0,0.0,0.0,0.0,0.0,0.0,0.0,0.0,0.0,-3.449,-3.4772,-3.4972,-3.4972,-3.4972,-3.4972,-3.4972,-3.5151,-3.5762,0.0,0.0,0.0,0.0,0.0,0.0,0.0,0.0,0.0,0.0,0.0,0.0,0.0,0.0,0.0,0.0,0.0,0.0,0.0,0.0,0.0,0.0,0.0,0.0,0.0,0.0,0.0,0.0,0.0,0.0,0.0,0.0,0.0,0.0,0.0,0.0,0.0,0.0,0.0,0.0,0.0,0.0,0.0,0.0,0.0,0.0,0.0,0.0,0.0,0.0,0.0,0.0,0.0,0.0,0.0,0.0,0.0,0.0,0.0,0.0,0.0,0.0,0.0,0.0,0.0,0.0,0.0,0.0,0.0,0.0,0.0,0.0,0.0,0.0,0.0,0.0,0.0,0.0,0.0,0.0,0.0,0.0,0.0,0.0,0.0,0.0,0.0,0.0,0.0,0.0,0.0,0.0,0.0,0.0,0.0,0.0,0.0,0.0,0.0,0.0,0.0,0.0,0.0,-3.3711,-3.4079,-3.4484,0.0,-3.5285,-3.5705,-3.6037,-3.5263,-3.5723,-3.8061,0.0,0.0,0.0,0.0,0.0,0.0,0.0,0.0,0.0,0.0,0.0,0.0,0.0,0.0,0.0,0.0,0.0,0.0,0.0,0.0,0.0,0.0,0.0,0.0,0.0,0.0,0.0,0.0,0.0,0.0,0.0,0.0,0.0,0.0,0.0,0.0,0.0,0.0,0.0,0.0,0.0,0.0,0.0,0.0,0.0,0.0,0.0,0.0,0.0,0.0,0.0,0.0,0.0,0.0,0.0,0.0,0.0,0.0,0.0,0.0,0.0,0.0,0.0,0.0,0.0,0.0,0.0,0.0,0.0,0.0,0.0,0.0,0.0,0.0,0.0,0.0,0.0,0.0,0.0,0.0,0.0,0.0,0.0,0.0,0.0,0.0,0.0,0.0,0.0,0.0,0.0,0.0,0.0,0.0,0.0,0.0,0.0,0.0,0.0,0.0,0.0,0.0,0.0,-3.3819,-3.4404,0.0,-3.5285,-3.5723,-3.6474,-3.5246,-3.5544,-3.8121,0.0,0.0,0.0,0.0,0.0,0.0,0.0,0.0,0.0,0.0,0.0,0.0,0.0,0.0,0.0,0.0,0.0,0.0,0.0,0.0,0.0,0.0,0.0,0.0,0.0,0.0,0.0,0.0,0.0,0.0,0.0,0.0,0.0,0.0,0.0,0.0,0.0,0.0,0.0,0.0,0.0,0.0,0.0,0.0,0.0,0.0,0.0,0.0,0.0,0.0,0.0,0.0,0.0,0.0,0.0,0.0,0.0,0.0,0.0,0.0,0.0,0.0,0.0,0.0,0.0,0.0,0.0,0.0,0.0,0.0,0.0,0.0,0.0,0.0,0.0,0.0,0.0,0.0,0.0,0.0,0.0,0.0,0.0,0.0,0.0,0.0,0.0,0.0,0.0,0.0,0.0,0.0,0.0,0.0,0.0,0.0,0.0,0.0,0.0,0.0,0.0,0.0,0.0,-3.3751,-3.4643,-3.5151,-3.514,-3.5655,-3.6737,-3.5286,-3.5325,-3.7596,-3.6012,0.0,0.0,0.0,0.0,0.0,0.0,0.0,0.0,0.0,0.0,0.0,0.0,0.0,0.0,0.0,0.0,0.0,0.0,0.0,0.0,0.0,0.0,0.0,0.0,0.0,0.0,0.0,0.0,0.0,0.0,0.0,0.0,0.0,0.0,0.0,0.0,0.0,0.0,0.0,0.0,0.0,0.0,0.0,0.0,0.0,0.0,0.0,0.0,0.0,0.0,0.0,0.0,0.0,0.0,0.0,0.0,0.0,0.0,0.0,0.0,0.0,0.0,0.0,0.0,0.0,0.0,0.0,0.0,0.0,0.0,0.0,0.0,0.0,0.0,0.0,0.0,0.0,0.0,0.0,0.0,0.0,0.0,0.0,0.0,0.0,0.0,0.0,0.0,0.0,0.0,0.0,0.0,0.0,0.0,0.0,0.0,0.0,0.0,0.0,0.0,0.0,0.0,-3.2906,-3.4239,-3.6653,-3.6724,-3.7548,-3.9776,-3.8219,-3.8025,-4.0208,-3.6969,0.0,0.0,0.0,0.0,0.0,0.0,0.0,0.0,0.0,0.0,0.0,0.0,0.0,0.0,0.0,0.0,0.0,0.0,0.0,0.0,0.0,0.0,0.0,0.0,0.0,0.0,0.0,0.0,0.0,0.0,0.0,0.0,0.0,0.0,0.0,0.0,0.0,0.0,0.0,0.0,0.0,0.0,0.0,0.0,0.0,0.0,0.0,0.0,0.0,0.0,0.0,0.0,0.0,0.0,0.0,0.0,0.0,0.0,0.0,0.0,0.0,0.0,0.0,0.0,0.0,0.0,0.0,0.0,0.0,0.0,0.0,0.0,0.0,0.0,0.0,0.0,0.0,0.0,0.0,0.0,0.0,0.0,0.0,0.0,0.0,0.0,0.0,0.0,0.0,0.0,0.0,0.0,0.0,0.0,0.0,0.0,0.0,0.0,0.0,0.0,0.0,0.0,-3.2491,-3.363,-3.6405,-3.6548,-3.7363,-3.9813,-3.8149,-3.7745,-3.9696,-3.7919,0.0,0.0,0.0,0.0,0.0,0.0,0.0,0.0,0.0,0.0,0.0,0.0,0.0,0.0,0.0,0.0,0.0,0.0,0.0,0.0,0.0,0.0,0.0,0.0,0.0,0.0,0.0,0.0,0.0,0.0,0.0,0.0,0.0,0.0,0.0,0.0,0.0,0.0,0.0,0.0,0.0,0.0,0.0,0.0,0.0,0.0,0.0,0.0,0.0,0.0,0.0,0.0,0.0,0.0,0.0,0.0,0.0,0.0,0.0,0.0,0.0,0.0,0.0,0.0,0.0,0.0,0.0,0.0,0.0,0.0,0.0,0.0,0.0,0.0,0.0,0.0,0.0,0.0,0.0,0.0,0.0,0.0,0.0,0.0,0.0,0.0,0.0,0.0,0.0,0.0,0.0,0.0,0.0,0.0,0.0,0.0,0.0,0.0,0.0,0.0,0.0,0.0,0.0,-3.3151,-3.5189,-3.5662,-3.6705,-3.9,-3.7377,-3.6867,-3.8299,0.0,0.0,0.0,0.0,0.0,0.0,0.0,0.0,0.0,0.0,0.0,0.0,0.0,0.0,0.0,0.0,0.0,0.0,0.0,0.0,0.0,0.0,0.0,0.0,0.0,0.0,0.0,0.0,0.0,0.0,0.0,0.0,0.0,0.0,0.0,0.0,0.0,0.0,0.0,0.0,0.0,0.0,0.0,0.0,0.0,0.0,0.0,0.0,0.0,0.0,0.0,0.0,0.0,0.0,0.0,0.0,0.0,0.0,0.0,0.0,0.0,0.0,0.0,0.0,0.0,0.0,0.0,0.0,0.0,0.0,0.0,0.0,0.0,0.0,0.0,0.0,0.0,0.0,0.0,0.0,0.0,0.0,0.0,0.0,0.0,0.0,0.0,0.0,0.0,0.0,0.0,0.0,0.0,0.0,0.0,0.0,0.0,0.0,0.0,0.0,0.0,0.0,0.0,0.0,0.0,-3.3727,-3.5689,-3.7806,-4.0142,-3.9741,-3.9423,-3.9736,0.0,0.0,0.0,0.0,0.0,0.0,0.0,0.0,0.0,0.0,0.0,0.0,0.0,0.0]}],[{"header":{"parameterUnit":"kt","parameterCategory":2,"dx":1,"dy":1,"la1":29.285339999999998,"la2":30.599998999999997,"lo1":-89.70041500000002,"lo2":-87.6738589999976,"nx":112,"ny":82,"refTime":"2022-10-24T12:00:00:Z","depth":0,"parameterNumber":2,"parameterNumberName":"V-component_of_WINDS"},"data":[9.0583,8.6968,0.0,8.5126,8.3899,0.0,8.3787,0.0,0.0,0.0,0.0,0.0,0.0,0.0,0.0,0.0,0.0,0.0,0.0,0.0,0.0,0.0,0.0,0.0,0.0,0.0,0.0,0.0,0.0,0.0,0.0,0.0,8.4925,8.5502,8.5502,8.5502,8.5502,8.5514,8.5483,8.5483,8.5329,8.5235,8.5235,8.518,8.5116,8.5052,8.5052,8.5019,8.4883,8.4883,8.4883,8.4883,8.4883,8.4817,8.4719,8.4915,8.485,8.4686,8.4586,8.4719,8.4954,8.4752,8.4719,8.4719,8.485,8.4817,8.479,8.5566,8.5384,8.5059,8.5665,8.5475,8.5172,8.5298,8.5391,8.5483,8.5472,8.5502,8.5502,8.5502,8.5502,8.5502,8.5502,8.5502,8.5502,8.5502,8.5502,8.5502,8.5502,8.5502,8.5502,8.5502,8.5502,8.5502,8.5502,8.5502,8.5502,8.5502,8.5502,8.5502,8.5502,8.5502,8.5791,8.6441,8.5864,8.5791,8.6441,8.5791,8.5502,8.5502,8.5502,8.5502,0.0,0.0,8.2647,8.367,0.0,0.0,0.0,0.0,0.0,0.0,0.0,0.0,0.0,0.0,0.0,0.0,0.0,0.0,0.0,0.0,0.0,0.0,0.0,0.0,0.0,0.0,0.0,0.0,0.0,0.0,0.0,8.4997,8.5502,8.5502,8.5502,8.5502,8.5502,8.5502,8.5502,8.5502,8.5453,8.5422,8.5391,8.5298,8.5275,8.5212,8.5212,8.518,8.5148,8.5148,8.5148,8.5148,8.5148,8.5052,8.4915,8.5076,8.5044,8.4883,8.4785,8.4954,8.5116,8.4915,8.4883,8.4915,8.5116,8.5052,8.4915,8.5116,8.5148,8.5148,8.5212,8.5307,8.5329,8.5391,8.5483,8.5502,8.5502,8.5502,8.5502,8.5502,8.5502,8.5502,8.5502,8.5502,8.5502,8.5502,8.5502,8.5502,8.5502,8.5502,8.5502,8.5502,8.5502,8.5502,8.5502,8.5502,8.5502,8.5502,8.5502,8.5502,8.5502,8.5502,8.5502,8.5502,8.5502,8.5502,8.5502,8.5502,8.5502,8.5502,8.5712,8.583,0.0,0.0,0.0,8.4489,0.0,0.0,0.0,0.0,8.0915,0.0,0.0,0.0,0.0,0.0,0.0,0.0,0.0,0.0,0.0,0.0,0.0,0.0,0.0,0.0,0.0,0.0,0.0,0.0,0.0,0.0,8.5791,8.5502,8.5502,8.5502,8.5502,8.5502,8.5502,8.5502,8.5502,8.5502,8.5502,8.5502,8.5502,8.5502,8.5483,8.5329,8.5329,8.5307,8.5148,8.5148,8.5148,8.5148,8.5148,8.5148,8.518,8.5266,8.5307,8.5148,8.5148,8.5148,8.5148,8.5148,8.5148,8.5148,8.5148,8.5148,8.5148,8.5148,8.5148,8.518,8.5298,8.5329,8.536,8.5472,8.5502,8.5502,8.5502,8.5502,8.5502,8.5502,8.5502,8.5502,8.5502,8.5502,8.5502,8.5502,8.5502,8.5502,8.5502,8.5502,8.5502,8.5502,8.5502,8.5502,8.5502,8.5502,8.5502,8.5502,8.5502,8.5502,8.5502,8.5502,8.5502,8.5502,8.5502,8.5502,8.5502,8.5502,8.5502,8.5563,8.61,8.6301,8.5649,0.0,0.0,0.0,0.0,0.0,0.0,0.0,0.0,0.0,0.0,0.0,0.0,0.0,0.0,0.0,0.0,0.0,0.0,0.0,0.0,0.0,0.0,0.0,0.0,0.0,0.0,0.0,0.0,0.0,8.5719,8.5502,8.5502,8.5502,8.5502,8.5502,8.5502,8.5502,8.5502,8.5502,8.5502,8.5502,8.5502,8.5502,8.5472,8.5514,8.5514,8.5483,8.5422,8.5422,8.5422,8.5422,8.5422,8.5422,8.5453,8.5483,8.5391,8.5266,8.5391,8.5266,8.5148,8.5275,8.5266,8.5266,8.5391,8.536,8.5266,8.5391,8.5422,8.5453,8.5483,8.5514,8.5514,8.5575,8.5502,8.5502,8.5502,8.5502,8.5502,8.5502,8.5502,8.5502,8.5502,8.5502,8.5502,8.5502,8.5502,8.5502,8.5502,8.5502,8.5502,8.5502,8.5502,8.5502,8.5502,8.5502,8.5502,8.5502,8.5502,8.5502,8.5502,8.5502,8.5502,8.5502,8.5502,8.5502,8.5502,8.5502,8.5742,8.6128,8.622,8.6513,0.0,0.0,0.0,0.0,0.0,0.0,8.2385,0.0,8.2654,0.0,0.0,0.0,0.0,0.0,0.0,0.0,0.0,0.0,0.0,0.0,0.0,0.0,0.0,0.0,0.0,0.0,0.0,0.0,0.0,8.8969,8.5719,8.5502,8.5502,8.5502,8.5502,8.5502,8.5502,8.5502,8.5502,8.5502,8.5502,8.5502,8.5502,8.5502,8.5502,8.5502,8.5502,8.5502,8.5502,8.5502,8.5502,8.5502,8.5502,8.5502,8.5502,8.5502,8.5514,8.5453,8.5544,8.5453,8.5298,8.5391,8.5422,8.5453,8.5544,8.5514,8.5453,8.5472,8.5502,8.5502,8.5502,8.5502,8.5502,8.5502,8.5502,8.5502,8.5502,8.5502,8.5502,8.5502,8.5502,8.5502,8.5502,8.5502,8.5502,8.5502,8.5502,8.5502,8.5502,8.5502,8.5502,8.5502,8.5502,8.5502,8.5502,8.5502,8.5502,8.5502,8.5502,8.5502,8.5502,8.5502,8.5502,8.5502,8.5502,8.5502,8.5502,8.5502,8.6015,8.6965,8.6965,8.7132,0.0,0.0,0.0,0.0,8.2692,0.0,0.0,0.0,0.0,0.0,0.0,0.0,0.0,0.0,0.0,0.0,0.0,0.0,0.0,0.0,0.0,0.0,0.0,0.0,0.0,0.0,0.0,8.5647,8.8174,8.8608,8.5719,8.5502,8.5502,8.5502,8.5502,8.5502,8.5502,8.5502,8.5502,8.5502,8.5502,8.5502,8.5502,8.5502,8.5502,8.5502,8.5502,8.5502,8.5502,8.5502,8.5502,8.5502,8.5502,8.5502,8.5502,8.5502,8.5502,8.5502,8.5502,8.5502,8.5502,8.5502,8.5502,8.5502,8.5502,8.5502,8.5502,8.5502,8.5502,8.5502,8.5502,8.5502,8.5502,8.5502,8.5502,8.5502,8.5502,8.5502,8.5502,8.5502,8.5502,8.5502,8.5502,8.5502,8.5502,8.5502,8.5502,8.5502,8.5502,8.5502,8.5502,8.5502,8.5502,8.5502,8.5502,8.5502,8.5502,8.5502,8.5502,8.5502,8.5502,8.5502,8.5502,8.5502,8.5502,8.5533,8.5623,8.5623,8.6354,8.7864,8.7864,8.7884,8.1889,8.2346,0.0,0.0,0.0,8.3361,0.0,0.0,0.0,0.0,0.0,0.0,0.0,0.0,0.0,0.0,0.0,0.0,0.0,0.0,0.0,0.0,0.0,0.0,0.0,0.0,8.6351,8.5605,8.608,8.6225,8.5575,8.5502,8.5502,8.5502,8.5502,8.5502,8.5502,8.5502,8.5502,8.5502,8.5502,8.5502,8.5502,8.5502,8.5502,8.5502,8.5502,8.5502,8.5502,8.5502,8.5502,8.5502,8.5502,8.5502,8.5502,8.5502,8.5502,8.5502,8.5502,8.5502,8.5502,8.5502,8.5502,8.5502,8.5502,8.5502,8.5502,8.5502,8.5502,8.5502,8.5502,8.5502,8.5502,8.5502,8.5502,8.5502,8.5502,8.5502,8.5502,8.5502,8.5502,8.5502,8.5502,8.5502,8.5502,8.5502,8.5502,8.5502,8.5502,8.5502,8.5502,8.5502,8.5502,8.5502,8.5502,8.5502,8.5502,8.5502,8.5502,8.5502,8.5502,8.5502,8.5502,8.5502,8.5502,8.5771,8.611,8.611,8.6743,8.7864,8.7864,8.8137,8.2501,8.3215,8.379,8.379,8.4067,0.0,0.0,0.0,0.0,0.0,0.0,0.0,0.0,0.0,0.0,0.0,0.0,0.0,0.0,0.0,0.0,0.0,0.0,0.0,0.0,0.0,8.7674,8.606,8.5682,8.5502,8.5502,8.5502,8.5502,8.5502,8.5502,8.5502,8.5502,8.5502,8.5502,8.5502,8.5502,8.5502,8.5502,8.5502,8.5502,8.5502,8.5502,8.5502,8.5502,8.5502,8.5502,8.5502,8.5502,8.5502,8.5502,8.5502,8.5502,8.5502,8.5502,8.5502,8.5502,8.5502,8.5502,8.5502,8.5502,8.5502,8.5502,8.5502,8.5502,8.5502,8.5502,8.5502,8.5502,8.5502,8.5502,8.5502,8.5502,8.5502,8.5502,8.5502,8.5502,8.5502,8.5502,8.5502,8.5502,8.5502,8.5502,8.5502,8.5502,8.5502,8.5502,8.5502,8.5502,8.5502,8.5502,8.5502,8.5653,8.5902,8.5902,8.6044,8.632,8.6072,8.5902,8.5902,8.5653,8.5757,8.6301,8.6843,8.7472,8.827,8.827,8.8361,8.3291,8.3888,8.431,8.4725,8.5308,0.0,8.4794,8.5583,0.0,0.0,0.0,0.0,0.0,0.0,0.0,0.0,0.0,0.0,0.0,0.0,0.0,0.0,0.0,0.0,0.0,0.0,8.9367,8.6766,8.6044,8.5623,8.5502,8.5502,8.5502,8.5502,8.5502,8.5502,8.5502,8.5502,8.5502,8.5502,8.5502,8.5502,8.5502,8.5502,8.5502,8.5502,8.5502,8.5502,8.5502,8.5502,8.5502,8.5502,8.5502,8.5502,8.5502,8.5502,8.5502,8.5502,8.5502,8.5719,8.6008,8.5647,8.5791,8.5936,8.5647,8.5502,8.5502,8.5502,8.5502,8.5502,8.5502,8.5502,8.5502,8.5502,8.5502,8.5502,8.5502,8.5502,8.5502,8.5502,8.5502,8.5502,8.5502,8.5502,8.5502,8.5502,8.5502,8.5502,8.5502,8.5502,8.5502,8.5502,8.5502,8.5502,8.5502,8.5623,8.5844,8.6274,8.6301,8.6487,8.6916,8.6513,8.6301,8.6301,8.5987,8.61,8.6616,8.7428,8.8156,8.8629,8.8629,8.8629,8.4277,8.4238,8.4103,8.5963,8.6487,0.0,8.684,8.7008,0.0,0.0,0.0,0.0,0.0,0.0,0.0,0.0,0.0,0.0,0.0,0.0,0.0,0.0,0.0,0.0,0.0,0.0,8.9625,8.7814,8.6793,8.6044,8.5533,8.5502,8.5502,8.5502,8.5502,8.5502,8.5502,8.5502,8.5502,8.5502,8.5502,8.5502,8.5502,8.5502,8.5502,8.5502,8.5502,8.5502,8.5502,8.5502,8.5502,8.5502,8.5502,8.5502,8.5502,8.5502,8.5502,8.5502,8.5502,8.6513,8.7524,8.6008,8.6513,8.7452,8.6008,8.5502,8.5502,8.5502,8.5502,8.5502,8.5502,8.5502,8.5502,8.5502,8.5502,8.5502,8.5502,8.5502,8.5502,8.5502,8.5502,8.5502,8.5502,8.5502,8.5502,8.5502,8.5502,8.5502,8.5502,8.5502,8.5502,8.5502,8.5502,8.5502,8.5502,8.5959,8.622,8.6274,8.6301,8.6328,8.6381,8.6328,8.6301,8.6301,8.6693,8.7155,8.7719,8.7823,8.8156,8.8629,8.8629,8.8629,8.5554,8.57,8.5656,8.6768,0.0,0.0,0.0,8.7101,0.0,0.0,0.0,0.0,0.0,0.0,0.0,0.0,0.0,0.0,0.0,0.0,0.0,0.0,0.0,0.0,0.0,0.0,0.0,0.0,8.745,8.6867,8.6044,8.5712,8.5502,8.5502,8.5502,8.5502,8.5502,8.5502,8.5502,8.5502,8.5502,8.5502,8.5502,8.5502,8.5502,8.5502,8.5502,8.5502,8.5502,8.5502,8.5502,8.5502,8.5502,8.5502,8.5502,8.5502,8.5502,8.5647,8.6658,8.7452,8.8102,8.8319,8.8824,8.9113,8.7452,8.7019,8.6802,8.5791,8.5502,8.5502,8.5502,8.5502,8.5502,8.5502,8.5502,8.5502,8.5502,8.5502,8.5502,8.5502,8.5502,8.5502,8.5502,8.5502,8.5502,8.5502,8.5502,8.5502,8.5502,8.583,8.5844,8.5533,8.5757,8.5844,8.5533,8.6015,8.6434,8.6743,8.7061,8.7339,8.7623,8.7362,8.7225,8.7225,8.7108,8.7179,8.7384,8.8004,8.8397,8.8629,8.8629,8.8629,8.6418,0.0,0.0,0.0,0.0,0.0,0.0,0.0,0.0,0.0,0.0,0.0,0.0,0.0,0.0,0.0,0.0,0.0,0.0,0.0,0.0,0.0,0.0,0.0,0.0,0.0,0.0,0.0,8.7944,8.7516,8.6793,8.6265,8.5873,8.5771,8.5593,8.5502,8.5502,8.5502,8.5502,8.5502,8.5502,8.5502,8.5502,8.5502,8.5502,8.5502,8.5502,8.5502,8.5502,8.5502,8.5791,8.6225,8.6225,8.6513,8.6875,8.6875,8.6875,8.7019,8.8247,8.8969,8.9474,9.0124,9.0702,9.0702,8.9185,8.868,8.8463,8.7236,8.6875,8.6802,8.6369,8.5864,8.5502,8.5502,8.5502,8.5502,8.5502,8.5502,8.5502,8.5502,8.5502,8.5502,8.5502,8.5502,8.5502,8.5502,8.5653,8.5771,8.5771,8.6165,8.6354,8.5987,8.6274,8.6354,8.5987,8.6434,8.6916,8.7271,8.7676,8.8004,8.8379,8.8043,8.7864,8.7864,8.7602,8.7494,8.7494,8.827,8.8629,8.8629,8.8629,8.8629,0.0,0.0,0.0,8.7536,8.7174,8.6492,8.8481,0.0,0.0,0.0,0.0,0.0,0.0,0.0,0.0,0.0,0.0,0.0,0.0,0.0,0.0,0.0,0.0,0.0,0.0,0.0,0.0,0.0,0.0,8.7864,8.7823,8.7294,8.6793,8.6274,8.583,8.5502,8.5502,8.5502,8.5502,8.5502,8.5502,8.5502,8.5502,8.5502,8.5502,8.5502,8.5502,8.5502,8.5502,8.5502,8.6513,8.7958,8.7958,8.8897,9.0269,9.0269,9.0269,9.0269,9.0341,9.1352,9.2363,9.0846,9.1424,9.2363,9.0774,9.0341,9.0341,9.0269,9.0269,8.9908,8.8391,8.673,8.5502,8.5502,8.5502,8.5502,8.5502,8.5502,8.5502,8.5502,8.5502,8.5502,8.5502,8.5502,8.5502,8.5502,8.5959,8.6274,8.6274,8.6743,8.7037,8.7037,8.7037,8.7037,8.7037,8.7494,8.7843,8.7843,8.7864,8.7864,8.7884,8.7864,8.7864,8.7864,8.8325,8.8594,8.8594,8.8612,8.8629,8.8629,8.8629,8.8629,8.5675,8.6254,8.6732,8.7146,8.7595,8.845,9.0264,0.0,0.0,0.0,0.0,0.0,0.0,0.0,0.0,0.0,0.0,0.0,0.0,0.0,0.0,0.0,0.0,0.0,0.0,0.0,0.0,0.0,0.0,0.0,8.7884,8.7719,8.7339,8.6843,8.6642,8.6381,8.6072,8.5712,8.5502,8.5502,8.5502,8.5502,8.5502,8.5502,8.5502,8.5502,8.5502,8.5502,8.5502,8.5502,8.6513,8.803,8.803,8.8969,9.0413,9.0413,9.0413,9.0557,9.1569,9.2291,9.2796,9.3302,9.3879,9.4024,9.2435,9.193,9.1713,9.0702,9.0413,9.0269,8.9763,8.9185,8.8535,8.7452,8.6369,8.5502,8.5502,8.5757,8.6072,8.6072,8.6301,8.6539,8.6539,8.6539,8.6539,8.6539,8.6693,8.6818,8.6818,8.7271,8.745,8.7108,8.7384,8.7428,8.7108,8.759,8.7864,8.7864,8.8213,8.8361,8.8361,8.8361,8.8361,8.8361,8.856,8.8629,8.8629,8.8629,8.8629,8.8629,8.877,8.8679,8.6149,8.7,8.7956,8.8296,8.8727,8.9643,9.196,9.2487,0.0,0.0,0.0,0.0,0.0,0.0,0.0,0.0,0.0,0.0,0.0,0.0,0.0,0.0,0.0,0.0,0.0,0.0,0.0,0.0,0.0,0.0,8.8194,8.8101,8.7904,8.7362,8.7339,8.7108,8.659,8.6072,8.5742,8.5502,8.5502,8.5502,8.5502,8.5502,8.5502,8.5502,8.5502,8.5864,8.6441,8.6441,8.7741,8.9691,8.9691,9.0702,9.2074,9.2074,9.2074,9.2218,9.3229,9.3591,9.3735,9.4746,9.5035,9.489,9.3879,9.3591,9.3374,9.2363,9.2074,9.193,9.1352,9.1207,9.0846,8.9258,8.7597,8.6346,8.6133,8.6328,8.659,8.659,8.6843,8.7061,8.7061,8.7061,8.7061,8.7061,8.7225,8.7339,8.7339,8.7823,8.7984,8.7623,8.7924,8.7984,8.7697,8.7944,8.8101,8.8101,8.8415,8.8629,8.8629,8.8629,8.8629,8.8629,8.8629,8.8629,8.8629,8.8662,8.8754,8.8754,8.8761,8.8777,8.7735,8.734,8.7524,9.0682,9.032,9.0094,9.3539,0.0,0.0,0.0,0.0,0.0,0.0,0.0,0.0,0.0,0.0,0.0,0.0,0.0,0.0,0.0,0.0,0.0,0.0,0.0,0.0,0.0,0.0,0.0,8.8629,8.8629,8.8379,8.7924,8.7904,8.7676,8.7108,8.6642,8.6128,8.5563,8.5533,8.5502,8.5502,8.5502,8.5502,8.5502,8.5502,8.6513,8.803,8.803,8.9908,9.2724,9.2724,9.3663,9.5035,9.5035,9.5035,9.5035,9.5035,9.5035,9.5035,9.5035,9.5035,9.5035,9.5035,9.5068,9.5068,9.5035,9.5068,9.4774,9.3295,9.2934,9.2461,9.087,8.9383,8.8021,8.7235,8.7135,8.7232,8.7108,8.7132,8.7155,8.7155,8.7155,8.7155,8.7155,8.7633,8.7904,8.7904,8.8325,8.8629,8.8629,8.8629,8.8629,8.8629,8.8629,8.8629,8.8629,8.8629,8.8629,8.8629,8.8629,8.8629,8.8629,8.8629,8.8629,8.8629,8.8803,8.8836,8.8836,8.8855,8.8811,8.6593,8.7385,8.8652,8.9492,9.032,9.2111,9.6697,0.0,9.8577,0.0,0.0,0.0,0.0,0.0,0.0,0.0,0.0,0.0,0.0,0.0,0.0,0.0,0.0,0.0,0.0,0.0,0.0,0.0,0.0,0.0,8.8629,8.8629,8.8577,8.8415,8.849,8.8213,8.7697,8.7516,8.7013,8.6128,8.5742,8.5502,8.5502,8.5502,8.5502,8.5502,8.5502,8.6513,8.803,8.803,8.9908,9.2724,9.2724,9.3663,9.5035,9.5035,9.5035,9.5035,9.5035,9.5035,9.5035,9.5035,9.5035,9.5035,9.5035,9.5398,9.5686,9.5169,9.5707,9.6187,9.5423,9.5516,9.5054,9.2193,9.124,9.0292,8.7676,8.8043,8.8701,8.7856,8.7964,8.8251,8.8251,8.8251,8.8251,8.8251,8.8343,8.849,8.849,8.856,8.8629,8.8629,8.8629,8.8629,8.8629,8.8629,8.8629,8.8629,8.8629,8.8629,8.8629,8.8629,8.8629,8.8629,8.877,8.8803,8.8803,8.8808,8.8855,8.8855,8.8931,8.8946,8.6833,8.8985,9.1434,9.2186,9.4141,9.6848,10.0382,10.1134,10.1735,0.0,0.0,0.0,0.0,0.0,0.0,0.0,0.0,0.0,0.0,0.0,0.0,0.0,0.0,0.0,0.0,0.0,0.0,0.0,0.0,8.8662,8.8629,8.8629,8.8629,8.8629,8.8629,8.8525,8.8232,8.7964,8.7538,8.6989,8.6193,8.5699,8.5502,8.5502,8.5502,8.5575,8.6297,8.7597,8.9113,8.9835,9.1569,9.3735,9.3735,9.4313,9.5035,9.5035,9.5035,9.5035,9.5035,9.5035,9.5068,9.5398,9.5495,9.5559,9.5769,9.6101,9.6305,9.5909,9.6317,9.673,9.6402,9.6568,9.6294,9.4526,9.3594,9.2317,8.9477,8.9658,8.9869,8.8473,8.8472,8.8629,8.8629,8.8629,8.8629,8.8629,8.8629,8.8629,8.8629,8.8629,8.8629,8.8629,8.8629,8.8629,8.8629,8.8629,8.8629,8.8629,8.8629,8.8629,8.8629,8.8629,8.8629,8.8629,8.8745,8.8808,8.8808,8.8901,8.8931,8.8931,8.9019,8.8958,8.8066,9.0815,9.3915,9.6096,9.8878,10.166,10.3841,10.4292,10.4367,0.0,0.0,0.0,0.0,0.0,0.0,0.0,0.0,0.0,0.0,0.0,0.0,0.0,0.0,0.0,0.0,0.0,0.0,0.0,0.0,0.0,8.8662,8.8645,8.8645,8.8645,8.8629,8.8629,8.8629,8.8213,8.7904,8.7761,8.6843,8.6128,8.5502,8.5502,8.5502,8.5647,8.7308,8.8969,9.0485,9.2074,9.3663,9.5035,9.5035,9.5035,9.5035,9.5035,9.5035,9.5035,9.5135,9.5169,9.5301,9.5964,9.6101,9.6189,9.665,9.6862,9.6914,9.6836,9.694,9.7017,9.694,9.6991,9.6968,9.6747,9.5812,9.4351,9.1962,9.1435,9.093,8.9003,8.8629,8.8629,8.8629,8.8629,8.8645,8.8662,8.8662,8.8662,8.8662,8.8662,8.8662,8.8645,8.8645,8.8645,8.8629,8.8629,8.8629,8.8629,8.8629,8.8645,8.8645,8.8662,8.8662,8.8662,8.8824,8.8826,8.8826,8.8976,8.9019,8.9019,8.9014,8.9041,8.9928,9.0189,9.0983,9.5494,9.8051,10.0532,10.5044,10.6096,10.6472,10.7751,10.745,0.0,0.0,0.0,0.0,0.0,0.0,0.0,0.0,0.0,0.0,0.0,0.0,0.0,0.0,0.0,0.0,0.0,0.0,0.0,8.8765,8.8777,8.8819,8.8819,8.8662,8.8629,8.8629,8.856,8.8043,8.7202,8.7037,8.6434,8.5502,8.5502,8.5502,8.5647,8.7308,8.8969,9.0485,9.2074,9.3663,9.5035,9.5035,9.5035,9.5035,9.5035,9.5035,9.5102,9.5686,9.5872,9.5964,9.6458,9.6677,9.6677,9.6784,9.7118,9.7361,9.694,9.753,9.811,9.7571,9.7845,9.7894,9.6476,9.7018,9.6983,9.381,9.3098,9.2201,8.9227,8.8629,8.8629,8.8629,8.877,8.8761,8.8824,8.8765,8.8765,8.8765,8.8765,8.8808,8.8819,8.8819,8.8787,8.8629,8.8629,8.8629,8.8629,8.877,8.8819,8.8819,8.8808,8.8765,8.8765,8.8931,8.8976,8.8976,8.8986,8.9014,8.9014,8.9028,8.9041,9.015,9.0542,9.1584,9.6547,10.0382,10.354,10.5946,10.7149,10.7751,10.7675,10.7074,0.0,0.0,0.0,0.0,0.0,0.0,0.0,0.0,0.0,0.0,0.0,0.0,0.0,0.0,0.0,0.0,0.0,0.0,0.0,0.0,8.884,8.8824,8.8824,8.8745,8.877,8.877,8.8645,8.8361,8.7884,8.7316,8.6818,8.6301,8.6072,8.6265,8.6947,8.9402,9.0919,9.1713,9.3302,9.489,9.6335,9.6335,9.684,9.7597,9.793,9.8093,9.8045,9.7814,9.7751,9.7689,9.7363,9.7241,9.7289,9.7622,9.7867,9.8069,9.7779,9.811,9.8444,9.8172,9.8347,9.8352,9.751,9.7978,9.7604,9.4349,9.4291,9.3935,9.0708,9.0034,9.0034,9.0034,8.9392,8.884,8.8796,8.8811,8.8811,8.8811,8.8811,8.8871,8.8824,8.8824,8.8808,8.8761,8.8761,8.8761,8.8761,8.8808,8.8824,8.8824,8.8871,8.893,8.893,8.8972,8.9061,8.9061,8.9014,8.9041,8.9041,8.9041,8.9041,9.0459,9.1298,9.2712,9.766,10.1961,10.5194,10.6247,10.7149,10.745,10.6247,10.5946,10.542,0.0,0.0,0.0,0.0,0.0,0.0,0.0,0.0,0.0,0.0,0.0,0.0,0.0,0.0,0.0,0.0,0.0,0.0,0.0,0.0,0.0,8.8901,8.8824,8.8852,8.8836,8.877,8.8612,0.0,8.7676,8.7179,8.7061,8.6667,8.6949,8.7991,9.1059,9.2493,9.2868,9.4818,9.6335,9.7562,9.7851,9.8822,10.0187,10.0713,10.0924,10.0949,10.0327,9.9775,9.9335,9.8559,9.8046,9.7888,9.8386,9.8576,9.8576,9.8576,9.8576,9.8576,9.8576,9.8576,9.8576,9.8632,9.8557,9.7827,9.4903,9.5295,9.5387,9.2471,9.1886,9.1811,9.1436,9.0252,8.9292,8.8916,8.8841,8.8856,8.8856,8.8856,8.8856,8.8841,8.8901,8.8901,8.8811,8.8811,8.8811,8.8811,8.8826,8.8901,8.8901,8.8972,8.9192,8.9568,8.9568,8.9568,8.9568,8.9568,8.9568,8.9568,8.9568,8.9568,9.2223,9.238,9.2712,9.766,9.9314,10.0817,10.5495,10.542,10.4367,10.4217,10.4217,10.369,10.2052,0.0,0.0,0.0,0.0,0.0,0.0,0.0,0.0,0.0,0.0,0.0,0.0,0.0,0.0,0.0,0.0,0.0,0.0,0.0,0.0,0.0,8.8916,8.884,8.8836,8.8819,8.8543,0.0,8.7843,8.759,8.7061,8.7037,8.7063,8.7333,9.0108,9.1814,9.2941,9.6046,9.7346,9.7562,9.9079,10.0144,10.084,10.0903,10.1155,10.1654,10.2153,10.1358,10.0067,10.0451,9.9621,9.8444,9.8557,9.8576,9.8576,9.8576,9.8576,9.8576,9.8576,9.8576,9.8613,9.8719,9.8753,9.8228,9.637,9.607,9.5695,9.3987,9.3687,9.3162,9.1661,9.1348,9.0793,8.9215,8.8972,8.9014,8.9014,8.9014,8.8986,8.9005,8.899,8.8961,8.8886,8.8811,8.8811,8.8811,8.8946,8.899,8.899,8.9,8.9718,9.1283,9.1283,9.1283,9.1283,9.1283,9.1283,9.1283,9.1283,9.1283,9.2048,9.3071,9.399,9.796,9.8938,9.9765,10.2788,10.3765,10.3991,10.3991,10.3991,10.3465,10.1751,10.0607,0.0,0.0,0.0,0.0,0.0,0.0,0.0,0.0,0.0,0.0,0.0,0.0,0.0,0.0,0.0,0.0,0.0,0.0,0.0,0.0,8.899,8.8946,8.8991,8.8883,8.8662,8.849,8.8023,8.7924,8.7984,8.7719,8.8108,8.9004,8.9736,9.1453,9.3966,9.7213,9.9145,10.0139,10.1821,10.325,10.4299,10.4704,10.5006,10.5118,10.4731,10.4214,10.3341,10.1489,10.0482,9.9753,9.8875,9.8576,9.8576,9.8576,9.8576,9.8576,9.8557,9.8575,9.8612,9.8678,9.8787,9.8279,9.6677,9.7128,9.7369,9.584,9.5555,9.5029,9.3301,9.303,9.2143,8.9451,8.9916,9.0169,8.9192,8.9041,8.9028,8.9,8.9,8.8986,8.8958,8.8944,8.8944,8.8944,8.8972,8.9977,9.1993,9.2096,9.2411,9.3088,9.3088,9.3088,9.3088,9.3088,9.3088,9.3088,9.3088,9.3088,9.1392,9.3112,9.4893,9.8111,9.8938,9.9539,10.1735,10.2337,10.2487,10.2487,10.3314,10.3465,10.1751,10.0908,0.0,0.0,0.0,0.0,0.0,0.0,0.0,0.0,0.0,0.0,0.0,0.0,0.0,0.0,0.0,0.0,0.0,0.0,0.0,0.0,8.9061,8.9019,8.9005,8.8961,8.8883,8.8836,8.8343,8.8343,8.8695,8.8287,8.8735,8.9794,9.0226,9.1722,9.4161,9.7778,10.0575,10.2584,10.4206,10.5691,10.6846,10.7345,10.7595,10.7612,10.6902,10.6334,10.5511,10.3193,10.1678,10.0631,9.9604,9.8931,9.8576,9.852,9.8539,9.8557,9.8573,9.8609,9.8661,9.8763,9.8779,9.8495,9.7433,9.8109,9.8575,9.7509,9.7299,9.6772,9.5118,9.4817,9.369,9.032,9.0757,9.0983,8.9267,8.9492,8.9793,8.9793,8.9793,8.9568,8.9041,8.9492,8.9793,8.9793,9.0245,9.1584,9.399,9.4066,9.4291,9.4817,9.4817,9.4817,9.4817,9.4817,9.4817,9.4817,9.4817,9.4817,9.0393,9.2471,9.4893,9.8111,9.8938,9.984,10.3164,10.1359,9.9013,9.9013,10.166,10.3465,10.1751,10.2788,0.0,0.0,0.0,0.0,0.0,0.0,0.0,0.0,0.0,0.0,0.0,0.0,0.0,0.0,0.0,0.0,0.0,0.0,0.0,0.0,8.9041,8.9,8.9005,8.9005,8.8991,8.8836,8.8836,8.8793,8.8811,8.8796,8.8796,8.9005,9.1738,9.2907,9.3239,9.7586,10.1246,10.4353,10.5872,10.6901,10.7496,10.7496,10.7808,10.8278,10.8278,10.7231,10.596,10.5885,10.3642,10.0856,10.0856,9.9753,9.8595,9.8519,9.8555,9.8573,9.8678,9.8838,9.8919,9.8922,9.8938,9.8938,9.8938,9.8938,9.8938,9.8938,9.8938,9.8412,9.6848,9.6622,9.5419,9.2035,9.1509,9.0983,8.9267,9.047,9.1509,9.1509,9.1509,9.0832,8.9192,9.0532,9.1509,9.1509,9.3088,9.4066,9.4066,9.4066,9.4893,9.6547,9.6622,9.6622,9.6622,9.6622,9.6622,9.6622,9.6622,9.6622,9.0393,9.2471,9.4592,9.6772,9.8111,9.9539,10.1735,10.1434,10.0682,10.0682,10.2412,10.3841,10.3314,10.2713,10.2127,0.0,0.0,0.0,0.0,0.0,0.0,0.0,0.0,0.0,0.0,0.0,0.0,0.0,0.0,0.0,0.0,0.0,0.0,0.0,8.9041,8.9028,8.9,8.9033,8.8976,8.9006,8.9006,8.8916,8.8811,8.8811,8.8811,8.8946,9.1008,9.253,9.386,9.7453,10.0886,10.4055,10.6803,10.8033,10.8278,10.8215,10.8319,10.8555,10.8421,10.8141,10.7581,10.6324,10.5257,10.3984,10.1719,10.0671,10.0016,9.8911,9.8609,9.8695,9.8828,9.8891,9.8907,9.8938,9.8938,9.8938,9.8938,9.8938,9.8938,9.8938,9.8938,9.8412,9.6923,9.7524,9.7073,9.3765,9.4291,9.4366,9.2712,9.2938,9.3314,9.3314,9.3314,9.3088,9.2487,9.2938,9.3314,9.3314,9.587,9.7434,9.7434,9.7434,9.766,9.8186,9.8186,9.8186,9.8186,9.8186,9.8186,9.8186,9.8186,9.8186,8.9818,9.2114,9.4517,9.6171,9.7735,9.9239,10.0231,10.0532,10.0532,10.0532,10.1359,10.2262,10.2938,10.2713,10.2412,10.2412,10.0983,0.0,0.0,0.0,0.0,0.0,0.0,0.0,0.0,0.0,0.0,0.0,0.0,0.0,0.0,0.0,0.0,8.9041,8.9041,8.9041,8.9041,8.8986,8.9047,8.9047,8.9047,8.9019,8.8901,8.8901,8.8901,8.9051,9.1378,9.303,9.4291,9.8838,10.1822,10.3998,10.7264,10.8613,10.8651,10.8594,10.8613,10.8651,10.8594,10.8613,10.8501,10.732,10.6551,10.5671,10.3629,10.213,10.0949,9.9843,9.9237,9.8854,9.8907,9.8938,9.8938,9.8938,9.8938,9.8938,9.8938,9.8938,9.8938,9.8938,9.8938,9.8637,9.766,9.8261,9.8036,9.5419,9.5945,9.6021,9.4291,9.4667,9.5043,9.5043,9.5043,9.4817,9.4141,9.4667,9.5043,9.5043,9.8727,10.0833,10.0833,10.0833,10.0833,10.0833,10.0833,10.0833,10.0833,10.0833,10.0532,9.9931,9.9931,9.9555,8.8946,9.1584,9.4517,9.6171,9.7735,9.8938,9.8938,9.8938,9.8938,9.8938,9.9028,9.963,10.1149,10.2879,10.3932,10.3841,10.2562,10.1058,0.0,0.0,0.0,0.0,0.0,0.0,0.0,0.0,0.0,0.0,0.0,0.0,0.0,0.0,0.0,8.9041,8.9041,8.9041,8.9041,8.9041,8.9041,8.9041,8.9041,8.9041,8.9041,8.9041,8.9041,8.9192,9.2637,9.4066,9.4592,10.1114,10.3784,10.416,10.7357,10.867,10.867,10.867,10.867,10.867,10.867,10.867,10.867,10.867,10.762,10.6288,10.6213,10.4038,10.158,10.1365,10.033,9.9311,9.9148,9.9088,9.9088,9.8938,9.8938,9.8938,9.8938,9.8938,9.8938,9.8938,9.8938,9.8938,9.8938,9.8938,9.8487,9.6998,9.6772,9.6171,9.4592,9.5795,9.6772,9.6772,9.6772,9.6171,9.4592,9.6021,9.6998,9.7148,10.1434,10.3991,10.3991,10.3991,10.3991,10.3991,10.3991,10.3991,10.3991,10.3991,10.3164,10.1676,10.1676,10.0758,9.0372,9.2487,9.4517,9.6171,9.7735,9.8938,9.8938,9.8938,9.8938,9.8938,10.0051,10.1134,10.1375,10.2835,10.3527,10.2277,10.2788,10.2788,10.1134,0.0,0.0,0.0,0.0,0.0,0.0,0.0,0.0,0.0,0.0,0.0,0.0,0.0,8.9041,8.9041,8.9041,8.9041,8.9041,8.9041,8.9041,8.9041,8.9041,8.9041,8.9041,8.9041,8.9041,8.9192,9.2637,9.4066,9.4592,10.1193,10.3959,10.4259,10.7533,10.8834,10.8855,10.8855,10.8816,10.8793,10.8798,10.8816,10.8793,10.8798,10.8555,10.7954,10.6696,10.572,10.4576,10.204,10.2031,10.2547,10.1209,10.0908,10.0532,9.9239,9.8938,9.8938,9.8938,9.8938,9.8938,9.8938,9.8938,9.8938,9.8938,9.8938,9.8787,9.8487,9.8412,9.8261,9.781,9.8111,9.8412,9.8412,9.8412,9.8261,9.781,9.9329,10.0908,10.2186,10.3314,10.3991,10.3991,10.3991,10.3991,10.3991,10.3991,10.3991,10.3991,10.3991,10.3765,10.3389,10.3389,10.2487,9.2024,9.3915,9.5659,9.7461,9.8529,9.9132,9.9132,9.9132,9.9132,9.9132,9.9913,10.0544,10.0501,10.2473,10.3768,10.2835,10.3482,10.3452,10.1812,10.0864,10.0307,0.0,0.0,0.0,0.0,0.0,0.0,0.0,0.0,0.0,0.0,0.0,9.0169,9.0169,8.9417,8.9041,8.9041,8.9041,8.9041,8.9041,8.9041,8.9041,8.9041,8.9041,8.9041,8.9192,0.0,9.4066,9.4592,10.1284,10.3991,10.4292,10.76,10.8845,10.8868,10.8868,10.8828,10.8862,10.8886,10.8828,10.8862,10.8886,10.8868,10.8643,10.7759,10.7007,10.6013,10.4227,10.441,10.4743,10.3089,10.2637,10.2412,10.151,10.1284,10.1284,10.1284,10.1284,10.1284,10.1284,10.1284,10.1284,10.1284,10.1284,10.0983,10.0231,10.0758,10.0983,10.0231,10.0758,10.1284,10.1284,10.1284,10.1284,10.1284,10.2111,10.3013,10.3916,10.542,10.6247,10.6247,10.6247,10.6247,10.6247,10.6247,10.6247,10.6247,10.6247,10.5871,10.5194,10.5194,10.4217,9.3766,9.5749,9.7433,9.8914,9.9331,9.9331,9.9331,9.9331,9.9331,9.9331,9.9331,9.9345,9.9331,10.2045,10.4244,10.4155,10.4414,10.3994,0.0,0.0,9.9359,9.9359,0.0,0.0,0.0,0.0,0.0,0.0,0.0,0.0,0.0,9.2862,9.196,9.196,9.032,8.9568,8.9807,8.9793,8.9643,8.9417,8.9417,8.9267,8.9041,8.9041,8.9041,0.0,0.0,9.4066,9.4592,10.1284,10.3991,10.4292,10.76,10.8878,10.8878,10.8878,10.8878,10.8878,10.8878,10.8878,10.8878,10.8878,10.8878,10.8878,10.8878,10.7901,10.6848,10.6848,10.6848,10.6472,10.4818,10.4367,10.4292,10.4066,10.3991,10.3991,10.3991,10.3991,10.3991,10.3991,10.3991,10.3991,10.3991,10.3991,10.354,10.2052,10.3089,10.3465,10.2052,10.3089,10.3991,10.3991,10.3991,10.3991,10.3991,10.4217,10.4442,10.4743,10.7375,10.8878,10.8878,10.8878,10.8878,10.8878,10.8878,10.8878,10.8878,10.8878,10.8202,10.6848,10.6848,10.5946,9.551,9.7517,9.9003,9.9243,9.9331,9.9331,9.9331,9.9331,9.9331,9.9331,9.9308,9.9334,9.9331,10.2098,10.4298,10.423,10.5436,10.5723,10.4065,10.2318,10.1264,10.1264,10.0044,0.0,0.0,0.0,0.0,0.0,0.0,0.0,0.0,9.4592,9.369,9.369,9.2035,9.1913,9.3486,9.3342,9.2562,9.1133,9.1133,9.0395,8.9041,8.9041,8.9041,0.0,0.0,0.0,9.4592,10.1284,10.3991,10.4292,10.76,10.8878,10.8878,10.8878,10.8878,10.8878,10.8878,10.8878,10.8878,10.8878,10.8878,10.8878,10.8878,10.8653,10.8502,10.8502,10.8502,10.8127,10.6547,10.6096,10.5796,10.4367,10.3991,10.3991,10.3991,10.3991,10.3991,10.3991,10.3991,10.3991,10.3991,10.3991,10.3916,10.3615,10.3841,10.3916,10.3615,10.3841,10.3991,10.3991,10.3991,10.3991,10.3991,10.5344,10.6698,10.8051,10.8578,10.8878,10.8878,10.8878,10.8878,10.8878,10.8878,10.8878,10.8878,10.8878,10.8728,10.8502,10.8502,10.7675,9.7433,9.8755,9.9434,9.9434,9.9434,9.9434,9.9434,9.9434,9.9434,9.9434,9.9459,9.9395,9.9446,10.2188,10.4389,10.4275,10.6463,10.7582,10.5807,10.3278,10.1366,10.0462,9.9784,0.0,0.0,0.0,0.0,0.0,0.0,0.0,0.0,9.645,9.5546,9.5546,9.3924,9.3863,9.5586,9.4656,9.3801,9.2994,9.2105,9.125,9.0395,8.9492,8.9568,0.0,0.0,0.0,9.7073,10.1961,10.4517,10.557,10.7976,10.8878,10.8878,10.8878,10.8878,10.8878,10.8878,10.8878,10.8878,10.8878,10.8878,10.8878,10.8878,10.8878,10.8878,10.8878,10.8878,10.8653,10.7976,10.7826,10.76,10.6848,10.6623,10.6623,10.6623,10.6623,10.6623,10.6623,10.6623,10.6623,10.6623,10.6655,10.6445,10.5511,10.6176,10.6448,10.5499,10.6207,10.684,10.684,10.6794,10.6762,10.6762,10.7407,10.8127,10.8803,10.8878,10.8878,10.8878,10.8878,10.8878,10.8878,10.8878,10.8878,10.8878,10.8878,10.8878,10.8878,10.8878,10.8502,9.9832,0.0,10.0662,10.0662,10.036,10.0058,0.0,9.9831,9.9529,9.9529,9.9529,9.968,9.9982,10.2474,10.4525,10.4903,10.7458,10.8805,10.7018,10.4174,10.1596,9.9609,9.9334,0.0,0.0,0.0,0.0,0.0,0.0,0.0,0.0,9.8126,9.7372,9.7372,9.6127,9.6065,9.7398,9.6104,9.5236,9.4882,9.3526,9.2672,9.2166,9.0436,0.0,0.0,0.0,0.0,9.9239,10.3013,10.5344,10.6698,10.8277,10.8878,10.8878,10.8878,10.8878,10.8878,10.8878,10.8878,10.8878,10.8878,10.8878,10.8878,10.8878,10.8878,10.8878,10.8878,10.8878,10.8878,10.8878,10.8878,10.8878,10.8878,10.8878,10.8878,10.8878,10.8878,10.8878,10.8895,10.8878,10.8878,10.8928,10.8976,10.86,10.7332,10.8361,10.8723,10.7261,10.8301,10.9175,10.9145,10.9083,10.8976,10.8976,10.8912,10.8878,10.8878,10.8878,10.8878,10.8878,10.8878,10.8878,10.8878,10.8878,10.8878,10.8878,10.8878,10.8878,10.8878,10.8878,10.8878,0.0,10.406,10.4072,10.4072,10.2852,10.1644,10.1644,10.0586,0.0,9.9529,9.9529,9.9982,10.1417,10.3154,10.4903,10.6477,10.8289,10.8818,10.7144,10.5332,10.2996,9.9861,9.9496,0.0,0.0,0.0,0.0,0.0,0.0,0.0,0.0,9.9256,9.9181,9.9181,9.9019,9.9044,9.9132,9.9056,9.8201,9.6618,9.6468,9.5639,9.4056,9.231,0.0,0.0,0.0,0.0,0.0,10.4292,10.6397,10.6698,10.8277,10.8878,10.8878,10.8878,10.8878,10.8878,10.8878,10.8878,10.8878,10.8878,10.8878,10.8878,10.8878,10.8878,10.8878,10.8878,10.8878,10.8878,10.8878,10.8878,10.8878,10.8878,10.8878,10.8878,10.8878,10.8878,10.8895,10.8976,10.8928,10.8928,10.916,10.913,10.9008,10.8917,10.9069,10.9069,10.8761,10.8885,10.8976,10.8895,10.8878,10.8878,10.8878,10.8878,10.8878,10.8878,10.8878,10.8878,10.8878,10.8878,10.8878,10.8878,10.8878,10.8878,10.8878,10.8878,10.8878,10.8878,10.8878,10.8878,10.3734,10.4374,10.4374,10.4374,10.3921,10.3468,10.3468,10.2172,10.0964,10.0964,10.0964,10.119,10.1719,10.4136,10.6174,10.6854,10.8364,10.9195,10.8591,10.7005,10.5123,10.2907,0.0,0.0,0.0,0.0,0.0,0.0,0.0,0.0,0.0,9.9459,9.9459,9.9459,9.9483,9.9419,9.9419,9.9471,9.9132,9.8341,9.7297,9.6443,9.5789,9.4093,0.0,0.0,0.0,0.0,0.0,10.5725,10.7122,10.8051,10.8653,10.8878,10.8878,10.8878,10.8878,10.8878,10.8878,10.8878,10.8878,10.8878,10.8878,10.8878,10.8878,10.8878,10.8878,10.8878,10.8878,10.8878,10.8944,10.896,10.8976,10.9099,10.9114,10.9114,10.9114,10.9114,10.9114,10.916,10.913,10.913,10.919,10.9219,10.9129,10.9099,10.919,10.9219,10.8976,10.9099,10.9145,10.9114,10.9067,10.8976,10.9099,10.9114,10.9114,10.9114,10.9114,10.9114,10.9114,10.9114,10.9114,10.9114,10.9114,10.9083,10.896,10.896,10.8928,10.8878,10.8878,10.8878,10.5356,10.596,10.596,10.596,10.5582,10.5193,10.5193,10.3909,10.2625,10.2625,10.2625,10.2852,10.338,10.5344,10.7081,10.7609,10.8667,10.9271,10.8742,10.7156,10.5501,10.3967,10.1392,9.9713,0.0,0.0,0.0,0.0,0.0,0.0,0.0,9.9529,9.9529,9.9529,9.9529,9.9529,9.9529,9.9529,9.9506,9.9395,9.8188,9.7636,9.7587,9.5877,0.0,0.0,0.0,0.0,0.0,10.7141,10.7998,10.8912,10.8878,10.8878,10.8878,10.8878,10.8878,10.8878,10.8878,10.8878,10.8878,10.8878,10.8878,10.8878,10.8878,10.8878,10.8878,10.8878,10.8895,10.8928,10.9067,10.9099,10.913,10.919,10.928,10.928,10.928,10.928,10.9219,10.9233,10.9219,10.9294,10.9276,10.9303,10.9214,10.9099,10.92,10.9303,10.9145,10.919,10.9233,10.9204,10.916,10.9145,10.928,10.928,10.928,10.928,10.928,10.928,10.928,10.928,10.928,10.928,10.928,10.9175,10.9114,10.9114,10.9083,10.896,10.896,10.896,10.8515,10.9422,10.9422,10.9422,10.8138,10.693,10.693,10.5646,10.4374,10.4374,10.4374,10.4903,10.6552,10.693,10.7458,10.9195,10.9422,10.8818,10.7156,10.5431,10.3784,10.2242,10.0715,9.9713,9.9713,0.0,0.0,0.0,0.0,0.0,0.0,9.9529,9.9529,9.9529,9.9529,9.9529,9.9529,9.9529,9.9529,9.9529,9.9529,9.9529,9.9454,9.7792,9.8815,0.0,0.0,0.0,0.0,10.8436,10.9083,10.8992,10.8912,10.8878,10.8878,10.8878,10.8878,10.8878,10.8878,10.8878,10.8878,10.8878,10.8878,10.8878,10.8878,10.8878,10.8878,10.8878,10.8944,10.9083,10.9083,10.9145,10.928,10.9204,10.9204,10.9204,10.9204,10.9204,10.9233,10.9228,10.9262,10.9262,10.9396,10.9295,10.9242,10.9242,10.9383,10.937,10.9294,10.9276,10.9214,10.9219,10.928,10.9204,10.9204,10.9204,10.9204,10.9204,10.9204,10.9204,10.9204,10.9204,10.9204,10.9204,10.9204,10.9204,10.928,10.928,10.928,10.928,10.928,10.928,10.7081,10.8515,10.9422,10.9422,10.9044,10.8667,10.8667,10.7383,10.5797,10.4676,10.4374,10.4525,10.5042,10.6099,10.7458,10.9195,10.844,10.7518,10.714,10.557,10.394,10.2393,0.0,10.1064,0.0,0.0,0.0,0.0,0.0,0.0,0.0,9.9529,9.9529,9.9529,9.9529,9.9529,9.9529,9.9529,9.9529,9.9529,9.9529,9.9529,9.9529,10.0162,10.1596,10.3734,0.0,0.0,0.0,10.896,10.9219,10.916,10.9145,10.913,10.913,10.913,10.913,10.913,10.9067,10.896,10.896,10.8895,10.8878,10.8895,10.9099,10.913,10.9114,10.8976,10.8992,10.9083,10.9083,10.9114,10.9303,10.9357,10.9357,10.9357,10.9357,10.9357,10.937,10.9396,10.9383,10.937,10.9422,10.9409,10.9383,10.9255,10.9255,10.9317,10.9219,10.9219,10.9233,10.9204,10.9303,10.9357,10.9357,10.9357,10.9357,10.9357,10.9357,10.9357,10.9357,10.9357,10.9357,10.9357,10.9357,10.9344,10.9214,10.9214,10.9262,10.928,10.928,10.928,10.625,10.7685,10.844,10.844,10.844,10.8213,10.7534,10.7156,10.6401,10.4752,10.4903,10.5193,10.4525,10.5797,10.7232,10.8289,10.7609,10.6675,10.6126,10.4622,10.3018,10.1425,10.129,0.0,0.0,0.0,0.0,0.0,0.0,0.0,9.9541,9.9529,9.9529,9.9529,9.9529,9.9529,9.9529,9.9529,9.9529,9.9529,9.9529,9.9529,9.9605,10.1143,10.2816,10.445,10.6062,0.0,0.0,10.9255,10.9214,10.9248,10.9219,10.928,10.928,10.928,10.928,10.9204,10.9145,10.913,10.9114,10.8992,10.8976,10.8992,10.9175,10.928,10.919,10.9145,10.913,10.9145,10.9099,10.9172,10.9255,10.9409,10.9422,10.9422,10.9422,10.9422,10.9422,10.9422,10.9422,10.9422,10.9422,10.9422,10.9409,10.937,10.9282,10.9344,10.9303,10.929,10.929,10.929,10.937,10.9422,10.9422,10.9422,10.9422,10.9422,10.9422,10.9422,10.9422,10.9422,10.9422,10.9422,10.9422,10.9409,10.9282,10.9282,10.9344,10.929,10.929,10.929,10.557,10.6477,10.6477,10.6628,10.6703,10.625,10.4752,0.0,10.6174,10.4525,10.5344,10.6023,10.4676,10.5646,10.6703,10.693,10.6779,10.6111,10.4397,10.2845,10.1344,9.9941,0.0,0.0,9.9948,9.9941,0.0,0.0,0.0,0.0,9.9498,9.9541,9.9529,9.9529,9.9529,9.9529,9.9529,9.9529,9.9529,9.9529,9.9529,9.9605,9.9831,10.1342,10.3003,10.4752,10.6401,0.0,0.0,10.9282,10.9255,10.9242,10.9248,10.9233,10.9233,10.9233,10.9233,10.9294,10.9219,10.9219,10.9219,10.9204,10.9143,10.8993,10.8993,10.8917,10.8767,10.8767,10.8767,10.8856,10.9002,10.9015,10.9104,10.9409,10.9422,10.9422,10.9422,10.9422,10.9422,10.9422,10.9422,10.9422,10.9422,10.9422,10.9422,10.9422,10.9422,10.9422,10.9422,10.9422,10.9422,10.9422,10.9422,10.9422,10.9422,10.9422,10.9422,10.9422,10.9422,10.9422,10.9422,10.9422,10.9422,10.9422,10.9422,10.9422,10.9422,10.9422,10.9422,10.9422,10.9422,10.9422,10.2399,10.2927,10.3229,10.4589,10.4903,10.4827,10.445,10.4676,10.4438,10.2776,10.2701,10.3229,10.4223,10.4676,10.5344,10.6703,10.5797,10.4356,10.2779,10.1199,10.0096,9.9921,9.9917,0.0,9.9941,9.9941,0.0,0.0,0.0,0.0,9.9559,9.9551,9.9529,9.9529,9.9529,9.9529,9.9529,9.9529,9.9529,9.9529,9.9529,10.0133,10.1417,10.3078,10.474,10.6477,10.8138,0.0,0.0,10.9409,10.9409,10.9396,10.9383,10.9383,10.9383,10.9383,10.9383,10.937,10.9317,10.9214,10.9214,10.9219,10.8385,10.7408,10.7408,10.6515,10.5445,10.547,10.5443,10.5683,10.689,10.7267,10.7595,10.9107,10.9422,10.9422,10.9422,10.9422,10.9422,10.9422,10.9422,10.9422,10.9422,10.9422,10.9422,10.9422,10.9422,10.9422,10.9422,10.9422,10.9422,10.9422,10.9422,10.9422,10.9422,10.9422,10.9422,10.9422,10.9422,10.9422,10.9422,10.9422,10.9422,10.9422,10.9422,10.9422,10.9422,10.9422,10.9422,10.9422,10.9422,10.9422,10.1417,10.187,10.2097,10.2927,10.3154,10.3003,10.2248,0.0,0.0,10.0888,10.1342,10.2097,10.3003,10.4513,10.5646,10.5721,10.4966,10.3805,10.2183,10.0614,9.9664,9.9713,9.9849,9.9908,9.9908,9.9885,9.9894,0.0,0.0,9.9648,9.9488,9.952,9.9529,9.9529,9.9529,9.9529,9.9529,9.9529,9.9529,9.9529,9.9529,10.036,10.1946,10.3619,10.5344,10.7005,10.8667,0.0,10.9422,10.9422,10.9422,10.9422,10.9422,10.9422,10.9422,10.9422,10.9422,10.9422,10.9383,10.937,10.9069,10.7444,10.6351,10.5721,10.5721,10.5042,10.4362,10.4401,10.4389,10.454,10.537,10.5596,10.5835,10.6779,10.7005,10.7232,10.8062,10.8818,10.9422,10.9422,10.9422,10.9422,10.9422,10.9422,10.9422,10.9422,10.9422,10.9422,10.9422,10.9422,10.9422,10.9422,10.9422,10.9422,10.9422,10.9422,10.9422,10.9422,10.9422,10.9422,10.9422,10.9422,10.9422,10.9422,10.9422,10.9422,10.9422,10.9422,10.9422,10.9422,10.9422,10.9422,10.0586,10.1039,10.1039,10.1039,10.1039,10.0662,9.9378,9.885,0.0,9.9001,10.036,10.1644,10.2172,10.4589,10.6099,10.4966,10.4299,10.3468,10.2021,10.0548,9.9531,0.0,9.972,9.9925,9.9926,9.9915,0.0,0.0,0.0,9.967,9.9552,9.9529,9.9529,9.9529,9.9529,9.9529,9.9529,9.9529,9.9529,9.9529,9.9831,10.0737,10.2323,10.406,10.5721,10.7458,10.8818,0.0,10.9422,10.9422,10.9422,10.9422,10.9422,10.9271,10.8969,10.8969,10.8818,10.8591,10.8591,10.8591,10.8062,10.528,10.4223,10.3921,10.3921,10.377,10.3543,10.3543,10.3543,10.3619,10.3921,10.3921,10.3996,10.4299,10.4374,10.4752,10.6174,10.7534,10.8667,10.8969,10.8969,10.912,10.9346,10.9422,10.9422,10.9422,10.9422,10.9422,10.9422,10.9422,10.9422,10.9422,10.9422,10.9422,10.9422,10.9422,10.9422,10.9422,10.9422,10.9422,10.9422,10.9422,10.9422,10.9422,10.9422,10.9422,10.9422,10.9422,10.9422,10.9422,10.9422,10.9422,9.7199,9.7652,9.7652,9.7652,9.7652,9.7577,9.7426,9.6206,9.5527,9.7048,9.8698,10.0662,10.3543,10.445,10.5117,10.6401,0.0,10.2097,10.187,10.0548,9.9531,9.9531,9.9664,9.9823,9.9925,9.9838,9.9737,9.9727,9.9637,9.955,9.9541,9.9529,9.9529,9.9529,9.9529,9.9529,9.9529,9.9529,9.9529,9.9529,10.0888,10.2399,10.4147,10.5797,10.7458,10.912,0.0,0.0,10.9422,10.9422,10.9422,10.9422,10.9422,10.8515,10.7232,10.7232,10.6326,10.5054,10.5054,10.5054,10.4978,10.4525,10.3392,10.2172,10.2172,10.1266,10.0133,10.0133,10.0133,10.0511,10.187,10.2172,10.255,10.4072,10.4374,10.445,10.4676,10.4903,10.5507,10.7005,10.7232,10.7685,10.9195,10.9422,10.9422,10.9422,10.9422,10.9422,10.9422,10.9422,10.9422,10.9422,10.9422,10.9422,10.9422,10.9422,10.9422,10.9422,10.9422,10.9422,10.9422,10.9422,10.9422,10.9422,10.9422,10.9422,10.9422,10.9422,10.9422,10.9422,10.9422,10.9422,9.7943,9.7717,9.6973,9.6973,9.6293,9.5602,9.5602,9.4243,9.379,9.6444,9.8321,10.0511,10.377,10.5193,0.0,0.0,0.0,0.0,10.0662,9.9919,9.9526,0.0,9.9614,0.0,9.9692,9.9705,9.9692,0.0,9.9559,9.9562,9.9529,9.9529,9.9529,9.9529,9.9529,9.9529,9.9529,9.9529,9.9529,9.9529,10.1115,10.2776,10.445,10.6099,10.7836,10.9346,0.0,10.7987,10.7911,10.7005,10.664,10.664,10.664,10.6174,10.5495,10.5495,10.5042,10.4374,10.4374,10.3154,10.1644,10.1644,10.119,10.0586,10.0586,10.0058,9.9529,9.9529,9.9529,9.968,10.036,10.0586,10.0737,10.1493,10.1644,10.187,10.2776,10.2927,10.3456,10.5193,10.5495,10.5721,10.6489,10.7383,10.7987,10.7987,10.8818,10.8742,10.6866,10.7458,10.7987,10.7987,10.8893,10.9422,10.9422,10.9422,10.9422,10.9422,10.9422,10.9422,10.9422,10.9422,10.9422,10.9422,10.9422,10.9422,10.9422,10.9422,10.9422,10.9422,10.9422,10.9422,9.727,9.723,9.6822,9.5915,9.4772,9.3866,9.3866,9.2506,9.228,9.5689,9.7717,9.9907,0.0,0.0,0.0,10.4525,10.2625,0.0,10.0209,9.9756,0.0,9.9529,0.0,9.9559,9.9523,9.9594,0.0,0.0,9.9551,9.9529,9.9529,9.9529,9.9529,9.9529,9.9529,9.9529,9.9529,9.9529,9.9529,9.9529,10.1115,10.255,10.377,10.5495,10.693,10.8062,10.6779,10.625,10.6174,10.4903,10.4374,10.4374,10.4374,10.4147,10.377,10.377,10.3468,10.3154,10.3154,10.1568,9.9529,9.9529,9.9529,9.9529,9.9529,9.9529,9.9529,9.9529,9.9529,9.9529,9.9529,9.9529,9.9529,9.9529,9.9529,9.9831,10.1039,10.1266,10.1644,10.2927,10.3468,10.377,10.377,10.5117,10.625,10.625,10.7307,10.7232,10.4752,10.5495,10.625,10.625,10.776,10.8818,10.8818,10.9195,10.9422,10.9422,10.9422,10.9422,10.9422,10.9422,10.9422,10.9422,10.9422,10.9422,10.9422,10.9422,10.9422,10.9422,10.9422,10.9422,9.2397,9.4419,9.6217,9.3035,9.2129,9.2043,9.2043,9.0769,9.0478,9.3941,9.598,9.8106,0.0,0.0,10.2625,10.4147,10.1719,10.0133,10.1568,10.0435,9.9529,0.0,0.0,0.0,0.0,0.0,0.0,9.9541,0.0,9.9529,9.9529,9.9529,9.9529,9.9529,9.9529,9.9529,9.9529,9.9529,9.9529,9.9529,10.1115,10.187,10.2021,10.377,10.4525,10.4676,10.4525,10.4525,10.4525,10.445,10.4374,10.4374,10.4374,10.3392,10.2021,10.2021,10.1039,9.9756,9.9756,9.968,9.9529,9.9529,9.9529,9.9529,9.9529,9.9529,9.9529,9.9529,9.9529,9.9529,9.9529,9.9529,9.9529,9.9529,9.9529,9.9529,9.9605,9.968,9.968,9.9756,10.0964,10.2021,10.2021,10.338,10.4525,10.4525,10.4601,10.4601,10.4374,10.445,10.4525,10.4525,10.6023,10.7081,10.7081,10.8515,10.9422,10.9422,10.9422,10.9422,10.9422,10.9422,10.9422,10.9422,10.9422,10.9422,10.9422,10.9422,10.9422,10.9422,10.9422,10.9422,9.3021,9.334,9.3264,9.2172,9.1147,9.0316,9.0316,8.9863,9.009,9.2355,9.5074,9.7652,9.9982,10.119,10.2021,10.2625,10.0964,9.9756,10.0284,9.9907,9.9529,9.9529,9.9529,9.9563,0.0,0.0,0.0,9.9529,9.9529,9.9529,9.9529,9.9529,9.9529,9.9529,9.9529,9.9034,9.7899,9.7899,9.7445,9.6462,9.9108,10.0891,10.1946,10.3687,10.4432,10.4299,10.3229,10.2776,10.2701,10.1644,10.1266,10.1266,10.1266,10.0888,10.036,10.036,9.9982,9.9529,9.9529,9.9529,9.9529,9.9529,9.9529,9.9529,9.9529,9.9529,9.9529,9.9529,9.9529,9.9529,9.9529,9.9529,9.9529,9.9529,9.9529,9.9529,9.9529,9.9529,9.9529,9.9529,9.9982,10.036,10.036,10.0888,10.1568,10.2625,10.187,10.1266,10.1266,10.2097,10.2776,10.2776,10.4287,10.5268,10.5268,10.6854,10.7836,10.7836,10.8818,10.9422,10.9422,10.9422,10.9422,10.9422,10.9422,10.9422,10.9422,10.9422,10.9422,10.9422,10.9422,10.9422,9.1964,9.1899,9.1506,9.1101,9.0199,8.942,8.942,8.942,9.009,9.2355,9.4621,9.6811,9.9152,10.036,10.1115,10.1115,10.0209,9.9529,9.9529,9.9529,9.9529,9.9529,9.9529,0.0,0.0,0.0,0.0,9.8698,9.817,9.7868,9.7868,9.7868,9.7868,9.7868,9.7901,9.7349,9.6208,9.6244,9.5723,9.4664,9.7397,9.9252,10.0328,10.2127,10.2864,10.2694,10.1549,10.1074,10.0964,9.9982,9.9529,9.9529,9.9529,9.9529,9.9529,9.9529,9.9529,9.9529,9.9529,9.9529,9.9529,9.9529,9.9529,9.9529,9.9529,9.9529,9.9529,9.9529,9.9529,9.9529,9.9529,9.9529,9.9529,9.9529,9.9529,9.9529,9.9529,9.9529,9.9529,9.9529,9.9529,9.9529,9.9529,9.9529,9.9907,10.0888,10.0209,9.9529,9.9529,10.0435,10.1115,10.1115,10.255,10.3543,10.3543,10.5117,10.6023,10.6023,10.7685,10.8591,10.8591,10.912,10.9422,10.9422,10.9422,10.9422,10.9422,10.9422,10.9422,10.9422,10.9422,10.9422,8.8938,8.998,9.1153,8.966,8.9355,8.9475,8.9475,8.9475,9.0381,9.3704,9.4459,9.5451,9.885,9.9454,9.9529,9.9529,9.9529,9.9529,9.9529,9.9529,9.9529,9.9529,9.9529,9.9454,0.0,9.7868,9.6897,9.6897,9.5376,9.447,9.447,9.447,9.447,9.448,9.4572,9.4629,9.4553,9.4562,9.46,9.4524,9.6274,9.7107,9.7182,9.8925,9.9634,9.9545,9.9545,9.9486,9.9541,9.9529,9.9529,9.9529,9.9529,9.9529,9.9529,9.9529,9.9529,9.9529,9.9529,9.9529,9.9529,9.9529,9.9529,9.9529,9.9529,9.9529,9.9529,9.9529,9.9529,9.9529,9.9529,9.9529,9.9529,9.9529,9.9529,9.9529,9.9529,9.9529,9.9529,9.9529,9.9529,9.9529,9.9529,9.9529,9.9529,9.9529,9.9529,9.9529,9.9529,9.9529,9.9518,9.9518,10.0877,10.1783,10.1783,10.3293,10.4275,10.4275,10.586,10.6829,10.6829,10.8352,10.9271,10.9271,10.9346,10.9346,10.9346,10.9422,10.9422,10.9422,10.9422,10.9422,8.8791,8.9716,9.09,9.0717,9.0657,9.0701,9.0701,9.0701,9.0983,9.2121,9.3365,9.4922,9.7241,9.8698,9.9529,9.9529,9.9529,9.9529,9.9529,9.9529,9.9529,9.9529,9.9529,9.8547,9.6131,9.5451,9.5149,9.5149,9.4772,9.447,9.447,9.447,9.4512,9.4582,9.461,9.4151,9.2975,9.2994,9.2324,9.1193,9.4073,9.5514,9.5595,9.8416,9.9667,9.9643,9.9643,9.9634,9.9676,9.9526,9.9496,9.9486,9.9563,9.9529,9.9541,9.9541,9.952,9.9529,9.9529,9.9529,9.9529,9.9529,9.9529,9.9529,9.9529,9.9529,9.9529,9.9529,9.9529,9.9529,9.9529,9.9529,9.9529,9.9529,9.9529,9.9529,9.9529,9.9529,9.9529,9.9529,9.9529,9.9529,9.9529,9.9529,9.9529,9.9529,9.9529,9.9529,9.9529,9.9529,9.9471,9.9256,9.9619,9.9777,9.9464,10.1027,10.2004,10.2004,10.3599,10.4501,10.4501,10.5123,10.5497,10.5497,10.6854,10.7609,10.7609,10.8818,10.9422,10.9422,10.9422,10.9422,8.7654,8.8456,8.9702,8.9111,8.9617,8.998,8.9305,8.968,9.0402,9.1227,9.2172,9.3445,9.5387,9.6555,9.7258,0.0,9.7415,9.7415,9.7415,9.7415,9.7415,9.7415,9.7415,9.666,9.4696,9.3866,9.3412,9.3412,9.2733,9.2355,9.2355,9.2355,9.2407,9.2577,9.2621,9.2169,9.1291,9.207,9.1932,9.1026,9.4284,9.5876,9.6033,9.8575,9.9771,9.9771,9.9815,9.9787,9.975,9.9626,9.96,9.96,9.9621,9.9562,9.9531,9.9541,9.9509,9.9518,9.9434,9.9334,9.9334,9.9334,9.9334,9.9422,9.9506,9.9529,9.9529,9.9529,9.9529,9.9529,9.9529,9.9529,9.9529,9.9529,9.9529,9.9529,9.9529,9.9529,9.9529,9.9529,9.9529,9.9529,9.9529,9.9529,9.9529,9.9529,9.9308,9.9154,9.9321,9.9181,9.9071,9.8863,9.8847,9.8801,9.8562,9.9462,10.0062,10.0062,10.1638,10.2555,10.2555,10.3384,10.3825,10.3825,10.4943,10.5587,10.5669,10.6663,10.7231,10.7307,10.7307,10.7307,8.6507,8.7243,8.8063,8.6776,8.7714,8.8643,0.0,0.0,8.9408,9.0864,9.1314,9.1918,9.3746,9.4239,9.4381,9.4414,9.4448,9.4448,9.447,9.447,9.4319,9.3941,9.3941,9.3941,9.3941,9.2582,9.1676,9.1676,9.0241,8.942,8.942,8.942,8.947,8.9653,8.9731,8.9799,8.9789,9.165,9.25,9.2576,9.5839,9.7357,9.7433,9.9106,9.9941,9.9937,9.9897,9.9841,9.9704,9.9773,9.9773,9.9765,9.9674,9.96,9.9476,9.9454,9.9395,9.9359,9.9174,9.9117,9.9117,9.9117,9.9117,9.9146,9.9334,9.9383,9.9383,9.9383,9.9383,9.9395,9.9494,9.9494,9.9494,9.9518,9.9529,9.9529,9.9529,9.9529,9.9529,9.9529,9.9529,9.9529,9.9529,9.9506,9.9483,9.9395,9.8923,9.8645,9.9013,9.8769,9.8562,9.8562,9.8528,9.8511,9.8511,9.8476,9.8459,9.8459,9.9882,10.0707,10.0707,10.2185,10.3027,10.3027,10.3213,10.3426,10.3633,10.3859,10.4051,10.4338,10.4338,10.4099,0.0,0.0,0.0,0.0,0.0,0.0,0.0,0.0,9.028,9.0841,9.2016,9.3077,9.3659,9.4892,9.542,9.4368,9.4181,9.4232,9.4448,9.447,9.3488,9.0704,9.0402,9.0402,9.0402,9.009,8.9863,8.9863,8.9647,8.942,8.942,8.942,8.9507,8.9738,8.9759,8.9898,8.9989,9.1666,9.25,9.2576,9.5839,9.7357,9.7433,9.9106,9.9941,9.9941,9.9933,9.9924,9.9911,9.9864,9.9847,9.9834,9.9634,9.9325,9.8873,9.892,9.8818,9.8694,9.872,9.8704,9.8704,9.8704,9.8704,9.8645,9.8694,9.8785,9.8785,9.8785,9.8785,9.8832,9.916,9.9216,9.9256,9.9494,9.9529,9.9529,9.9529,9.9529,9.9529,9.9529,9.9529,9.9529,9.9529,9.9321,9.9071,9.8816,9.8612,9.8579,9.8629,9.8579,9.8562,9.8562,9.8333,9.8256,9.8256,9.8036,9.7941,9.7941,9.8239,9.8409,9.8409,9.8959,9.9247,9.9247,10.0763,10.158,10.1631,10.3,10.3825,10.4037,10.4037,10.2519,0.0,0.0,0.0,0.0,0.0,0.0,0.0,0.0,0.0,0.0,0.0,9.0972,0.0,0.0,9.2373,9.2625,9.1993,9.1551,9.1831,9.1855,9.1252,8.9517,8.9291,8.9291,8.9291,8.942,8.946,8.9303,8.945,8.9498,8.9498,8.945,8.9516,8.9835,8.9842,9.0283,9.1214,9.2883,9.4097,9.5004,9.7433,9.855,9.8494,9.9334,9.9676,9.9531,9.9531,9.9531,9.9523,9.9559,9.9524,9.9488,9.9227,9.9017,9.8727,9.865,9.8629,9.8528,9.8387,9.8333,9.8333,9.8333,9.8333,9.8351,9.8511,9.8562,9.8562,9.8562,9.8562,9.8579,9.8785,9.8816,9.8847,9.8967,9.9071,9.9071,9.9071,9.9071,9.9071,9.9071,9.9071,9.9071,9.9071,9.8801,9.862,9.8545,9.8314,9.8237,9.8314,9.8275,9.8476,9.9372,9.9282,9.925,9.925,9.9095,9.8707,9.7816,9.7742,9.7742,9.7742,9.7898,9.8005,9.8005,9.8918,9.9452,9.9605,10.0447,10.1042,10.1237,9.9471,9.8204,0.0,0.0,0.0,0.0,0.0,0.0,0.0,0.0,0.0,0.0,0.0,0.0,0.0,0.0,0.0,9.0317,8.9317,8.8451,8.9055,8.9116,8.9116,8.9157,8.9157,8.9157,8.9157,8.9336,8.941,8.9192,8.9324,8.9479,8.9479,8.94,8.944,8.9693,8.9996,9.082,9.2368,9.4269,9.5937,9.7302,0.0,0.0,9.9475,9.9475,9.9318,9.914,9.914,9.914,9.914,9.9129,9.9105,9.9032,9.8066,9.7717,9.7701,9.7611,9.7542,9.7507,9.7246,9.7242,9.7242,9.7222,9.7202,9.7187,9.7416,9.7713,0.0,9.7938,9.8163,9.8405,9.8459,9.8476,9.8476,9.8545,9.8562,9.8562,9.8562,9.8562,9.8562,9.8562,9.8562,9.8562,9.8562,9.8034,9.7804,9.8351,9.7812,9.7609,9.8483,9.7845,9.7965,9.9673,9.9822,9.9822,9.9822,10.0416,9.9896,9.789,9.8336,9.8559,9.8262,9.8262,9.8113,9.7742,9.7742,9.7578,9.7182,9.7182,9.7285,9.7502,9.5193,9.4894,0.0,0.0,0.0,0.0,0.0,0.0,0.0,0.0,0.0,0.0,0.0,0.0,0.0,0.0,0.0,0.0,8.733,8.6908,8.8586,8.8653,8.8587,8.8826,8.8841,8.8841,8.8841,8.8869,8.8925,8.8897,8.898,8.9108,8.9108,0.0,0.0,0.0,0.0,9.1524,9.1802,9.4986,9.6724,9.6875,9.8462,9.9207,9.9185,9.9185,9.9174,9.914,9.914,9.914,9.914,9.9169,9.9145,9.878,9.5271,9.3941,9.3922,9.3939,9.39,9.3881,9.3841,0.0,0.0,9.372,9.3699,9.3678,9.3562,9.4603,9.5793,9.5793,9.676,9.7919,9.8158,9.8217,9.8295,9.8494,9.8562,9.8562,9.8562,9.8562,9.8562,9.8562,9.8562,9.8562,9.8562,9.6983,9.627,9.7631,9.662,9.6799,9.9719,9.7467,9.6331,9.789,0.0,0.0,9.8039,10.0713,10.1084,9.7965,10.049,10.1456,10.0044,10.0021,9.9302,9.7816,9.7742,9.6353,9.3477,9.3477,9.3666,9.3922,9.6176,9.6611,0.0,0.0,0.0,0.0,0.0,0.0,0.0,0.0,0.0,0.0,0.0,0.0,0.0,0.0,0.0,0.0,8.702,8.7058,8.6889,8.6798,8.7226,8.8546,8.8695,8.8604,8.8728,8.8825,8.8925,8.8721,8.898,8.9159,8.9159,8.9971,9.0073,8.9232,9.0728,9.1605,9.1741,9.3186,9.4329,9.5322,9.6002,9.6225,9.6065,9.6065,9.597,0.0,9.587,9.587,9.587,9.584,9.5824,0.0,0.0,0.0,0.0,0.0,9.544,9.439,9.3434,9.3157,9.3199,9.3157,9.3178,9.3219,9.3178,9.3604,9.4199,9.4136,9.4561,9.5326,9.6304,9.6548,9.6814,9.7853,9.8097,9.8097,9.8097,9.8097,9.8097,9.8097,9.7371,0.0,9.5431,9.4518,9.4177,9.4845,9.44,9.4474,9.5789,9.4845,9.4622,9.6256,9.6405,9.6405,9.6405,9.8485,0.0,0.0,0.0,9.9524,9.8856,9.7965,0.0,0.0,0.0,0.0,0.0,0.0,0.0,0.0,9.2904,9.3679,0.0,0.0,0.0,0.0,0.0,0.0,0.0,0.0,0.0,0.0,0.0,0.0,0.0,0.0,0.0,0.0,0.0,8.567,8.4712,8.4813,8.5585,8.754,8.7316,8.7242,8.776,8.764,8.746,8.7188,8.7502,8.7714,8.7701,8.8808,8.8883,8.7802,8.9656,9.0763,9.0891,9.2235,9.329,9.4068,9.4521,9.4403,9.3796,9.3796,9.3654,9.3472,9.3472,9.3771,9.422,9.4183,9.4165,9.4221,9.4898,9.4497,9.3529,9.4919,9.4621,9.3252,9.2054,9.1703,9.1764,9.1744,9.1859,9.1919,9.1919,9.2217,9.2569,9.2454,9.2806,9.3381,9.4582,9.4858,9.5155,9.6227,9.6524,9.6502,9.6479,9.6405,9.6405,9.6405,9.5142,9.3657,9.2469,9.2224,9.2373,9.2818,9.2521,0.0,9.3508,9.284,9.2914,9.4548,9.4608,9.4518,9.4518,9.6253,9.6403,9.4405,9.6181,9.6921,9.5959,9.5293,9.4452,9.3383,9.4259,9.4474,0.0,0.0,0.0,0.0,0.0,0.0,0.0,0.0,0.0,0.0,0.0,0.0,0.0,0.0,0.0,0.0,0.0,0.0,0.0,0.0,0.0,0.0,0.0,0.0,8.2215,8.2831,8.3853,8.5413,8.4246,8.4024,8.5642,8.456,8.3677,8.359,8.3835,8.3901,8.3744,8.3959,8.3991,8.3933,8.7074,8.872,8.8737,9.3508,9.5079,9.3508,9.5154,9.5154,9.349,9.349,9.3472,9.3472,9.3472,9.4444,9.594,9.5827,9.5769,9.5208,8.9838,8.7768,8.7812,8.8341,8.8549,8.8474,8.84,8.84,8.8381,8.8434,8.8415,8.8415,8.8415,8.9437,9.0722,9.0821,9.2033,9.328,9.3354,9.3354,9.3334,9.3232,9.3286,9.3244,9.3063,9.3041,9.3041,9.3041,9.1726,9.0538,9.0463,9.0463,9.1057,9.267,9.1503,0.0,9.4942,9.2469,9.1132,9.2818,9.2509,9.2243,9.2243,9.4595,9.4726,9.1525,9.4287,9.4653,9.1525,9.2869,9.3954,9.4455,9.3485,9.215,9.0538,0.0,0.0,0.0,0.0,0.0,0.0,0.0,0.0,0.0,0.0,0.0,0.0,0.0,0.0,0.0,0.0,0.0,0.0,0.0,0.0,0.0,0.0,0.0,0.0,0.0,8.1512,8.2936,8.2819,8.2937,8.3613,8.3235,8.3038,8.3406,8.3653,8.3735,8.3719,8.4707,8.4873,8.3826,8.5845,8.6966,8.6966,8.8612,8.9733,9.0257,9.0872,9.0872,9.0257,9.0257,9.0257,9.0257,9.0257,9.0413,9.0613,9.0492,9.0919,9.1611,9.0812,8.9831,8.902,9.0239,8.9966,8.9061,8.9061,8.8254,8.7419,8.776,8.8053,8.8288,8.8288,8.866,8.9014,8.9069,8.9496,9.0147,9.1108,9.1426,9.1784,9.2839,9.3137,9.3116,9.3021,9.2957,9.2893,9.2893,9.0352,8.8226,8.8226,8.8226,8.8258,8.8509,8.8018,8.8092,8.9219,8.8411,8.7871,8.8484,8.8379,8.8275,8.8275,9.0118,9.0811,8.9687,9.1615,9.2301,9.1176,9.0738,9.0529,9.072,8.9264,8.9341,9.0884,0.0,0.0,0.0,0.0,0.0,0.0,0.0,0.0,0.0,0.0,0.0,0.0,0.0,0.0,0.0,0.0,0.0,0.0,0.0,0.0,0.0,0.0,0.0,0.0,0.0,0.0,7.9876,8.0285,0.0,8.2222,8.1816,8.1913,8.2785,8.3074,8.3,8.2476,8.3391,8.3349,8.2031,8.3337,8.4389,8.4968,8.6161,8.7151,8.8137,8.8732,8.8658,8.8062,8.8062,8.8062,8.8062,8.8062,8.8202,8.8426,8.7469,8.7161,8.7391,8.8526,8.7991,8.6768,8.7995,8.7701,8.6794,8.6794,8.6426,8.6009,8.6371,8.7036,8.774,8.7781,8.7781,8.7802,8.7979,8.8073,8.8296,8.9377,8.966,8.9998,9.1148,9.1372,9.1351,9.131,9.1046,9.0751,9.059,8.851,8.6818,8.6818,8.6818,8.6693,8.6354,8.6301,8.6301,8.6301,8.6301,8.6301,8.6301,8.611,8.6044,8.6044,8.6817,8.7352,8.7352,8.8252,8.8832,8.8832,8.7859,8.7368,8.7672,8.5999,8.6256,0.0,0.0,0.0,0.0,0.0,0.0,0.0,0.0,0.0,0.0,0.0,0.0,0.0,0.0,0.0,0.0,0.0,0.0,0.0,0.0,0.0,0.0,0.0,0.0,0.0,0.0,0.0,7.6444,7.6661,0.0,0.0,0.0,0.0,8.1389,8.17,8.1286,8.0024,7.9929,7.9574,7.8829,7.9856,8.1216,8.281,8.5967,8.739,8.7011,8.8656,8.8656,8.7061,8.7061,8.7061,8.7061,8.7061,8.7969,8.9246,8.6866,8.467,8.2941,8.3264,8.2489,8.1263,8.1804,8.2072,8.2072,8.2048,8.3123,8.4443,8.4443,8.5542,8.6814,8.6745,8.672,0.0,0.0,8.7507,8.757,8.8043,8.8194,8.8175,8.8153,8.8207,8.8093,8.7992,8.7458,8.6892,0.0,8.6274,8.6247,8.6274,0.0,8.6247,8.622,8.622,8.622,8.622,8.6193,8.6193,8.6193,8.5757,8.5442,8.5442,8.4876,8.4586,8.4586,8.4586,8.4586,8.4586,8.4586,8.4811,8.5369,8.374,0.0,0.0,0.0,0.0,0.0,0.0,0.0,0.0,0.0,0.0,0.0,0.0,0.0,0.0,0.0,0.0,0.0,0.0,0.0,0.0,0.0,0.0,0.0,0.0,0.0,0.0,7.4825,7.5183,7.4014,7.5275,7.6551,0.0,0.0,0.0,0.0,0.0,0.0,7.8012,7.9201,7.9803,7.9588,7.9855,8.0257,8.07,8.2693,8.4251,8.5413,8.6937,8.7527,8.7061,8.7061,8.7061,8.7061,8.7061,8.7088,8.6926,8.3606,8.1906,8.143,8.1545,8.1312,8.0979,8.1118,8.1898,8.2886,8.2773,8.3801,8.5133,8.5321,0.0,8.5992,8.5096,0.0,0.0,0.0,0.0,8.5324,8.6647,8.7085,8.7202,8.7135,8.7111,8.7087,8.6892,8.6667,8.6487,0.0,8.6155,8.5902,8.6015,0.0,0.0,0.0,0.0,8.5131,8.5036,8.5036,8.5036,8.5036,8.4876,8.485,8.485,8.4686,8.4586,8.4586,8.4586,8.4586,8.4586,8.4586,8.4081,8.31,0.0,0.0,0.0,0.0,0.0,0.0,0.0,0.0,0.0,0.0,0.0,0.0,0.0,0.0,0.0,0.0,0.0,0.0,0.0,0.0,0.0,0.0,0.0,0.0,0.0,0.0,0.0,7.2877,7.3462,7.2908,7.3908,7.5209,0.0,0.0,0.0,0.0,0.0,0.0,0.0,0.0,0.0,7.7738,7.884,7.9848,8.0579,8.1364,8.256,8.3991,8.4788,8.5225,8.5279,8.5982,8.5963,8.5358,8.5358,8.5344,8.5214,8.3159,8.1301,7.9826,0.0,0.0,0.0,0.0,7.8847,7.9667,7.9885,8.0952,0.0,8.2557,0.0,0.0,0.0,0.0,0.0,0.0,0.0,0.0,0.0,0.0,8.6616,8.6513,8.6513,8.6487,8.6434,8.5971,8.5452,0.0,8.4389,8.4249,8.4268,0.0,0.0,0.0,0.0,0.0,8.2756,8.3762,8.4267,8.3625,8.4124,8.4586,8.4586,8.4586,8.4586,8.4586,8.4586,8.4586,8.4586,8.391,8.3125,0.0,0.0,0.0,0.0,0.0,0.0,0.0,0.0,0.0,0.0,0.0,0.0,0.0,0.0,0.0,0.0,0.0,0.0,0.0,0.0,0.0,0.0,0.0,0.0,0.0,0.0,0.0,0.0,0.0,7.0781,7.238,0.0,0.0,0.0,0.0,0.0,0.0,0.0,0.0,0.0,0.0,0.0,0.0,0.0,7.9115,8.0337,8.0493,8.1198,8.2379,8.2542,8.2645,8.2769,8.4318,8.4269,8.2971,8.2479,0.0,8.2827,8.2793,0.0,0.0,0.0,0.0,0.0,0.0,0.0,0.0,0.0,0.0,0.0,0.0,0.0,0.0,0.0,0.0,0.0,0.0,0.0,0.0,0.0,0.0,8.6138,8.5892,8.5964,8.6183,0.0,8.5256,8.3965,8.2295,8.1834,0.0,0.0,0.0,0.0,0.0,0.0,0.0,8.0451,8.2295,8.3411,8.2055,8.3125,8.391,8.391,8.4124,8.4162,8.4061,8.4095,8.4027,8.3959,8.2532,0.0,0.0,0.0,0.0,0.0,0.0,0.0,0.0,0.0,0.0,0.0,0.0,0.0,0.0,0.0,0.0,0.0,0.0,0.0,0.0,0.0,0.0,0.0,0.0,0.0,0.0,0.0,0.0,0.0,0.0,0.0,0.0,0.0,0.0,0.0,0.0,0.0,0.0,0.0,0.0,0.0,0.0,0.0,0.0,0.0,0.0,0.0,0.0,0.0,0.0,8.0644,8.1349,8.1455,8.287,8.3008,8.1945,7.8855,7.6931,7.5815,0.0,0.0,0.0,0.0,0.0,0.0,0.0,0.0,0.0,0.0,0.0,0.0,0.0,0.0,0.0,0.0,0.0,0.0,0.0,0.0,0.0,0.0,0.0,0.0,0.0,8.4321,8.5298,0.0,0.0,0.0,0.0,0.0,0.0,0.0,0.0,0.0,0.0,0.0,0.0,8.0165,8.0438,8.0596,8.031,8.0524,8.0667,8.0667,8.1912,8.2289,8.1598,8.1634,8.1385,0.0,0.0,0.0,0.0,0.0,0.0,0.0,0.0,0.0,0.0,0.0,0.0,0.0,0.0,0.0,0.0,0.0,0.0,0.0,0.0,0.0,0.0,0.0,0.0,0.0,0.0,0.0,0.0,0.0,0.0,0.0,0.0,0.0,0.0,0.0,0.0,0.0,0.0,0.0,0.0,0.0,0.0,0.0,0.0,0.0,0.0,0.0,0.0,0.0,0.0,0.0,0.0,0.0,0.0,0.0,0.0,0.0,0.0,0.0,7.6462,0.0,0.0,0.0,0.0,0.0,0.0,0.0,0.0,0.0,0.0,0.0,0.0,0.0,0.0,0.0,0.0,0.0,0.0,0.0,0.0,0.0,0.0,0.0,0.0,0.0,0.0,0.0,0.0,0.0,0.0,0.0,0.0,0.0,0.0,0.0,0.0,0.0,0.0,0.0,0.0,7.8433,7.8888,7.8969,7.8189,7.8422,7.871,7.871,8.0118,8.0853,8.0379,8.0417,0.0,0.0,0.0,0.0,0.0,0.0,0.0,0.0,0.0,0.0,0.0,0.0,0.0,0.0,0.0,0.0,0.0,0.0,0.0,0.0,0.0,0.0,0.0,0.0,0.0,0.0,0.0,0.0,0.0,0.0,0.0,0.0,0.0,0.0,0.0,0.0,0.0,0.0,0.0,0.0,0.0,0.0,0.0,0.0,0.0,0.0,0.0,0.0,0.0,0.0,0.0,0.0,0.0,0.0,0.0,0.0,0.0,0.0,0.0,7.6607,0.0,0.0,0.0,0.0,0.0,0.0,0.0,0.0,0.0,0.0,0.0,0.0,0.0,0.0,0.0,0.0,0.0,0.0,0.0,0.0,0.0,0.0,0.0,0.0,0.0,0.0,0.0,0.0,0.0,0.0,0.0,0.0,0.0,0.0,0.0,0.0,0.0,0.0,0.0,0.0,0.0,7.612,7.7017,7.7129,7.5897,7.629,7.6733,7.6733,7.8119,7.8946,7.8755,7.8647,0.0,0.0,0.0,0.0,0.0,0.0,0.0,0.0,0.0,0.0,0.0,0.0,0.0,0.0,0.0,0.0,0.0,0.0,0.0,0.0,0.0,0.0,0.0,0.0,0.0,0.0,0.0,0.0,0.0,0.0,0.0,0.0,0.0,0.0,0.0,0.0,0.0,0.0,0.0,0.0,0.0,0.0,0.0,0.0,0.0,0.0,0.0,0.0,0.0,0.0,0.0,0.0,0.0,0.0,0.0,0.0,0.0,0.0,0.0,0.0,0.0,0.0,0.0,0.0,0.0,0.0,0.0,0.0,0.0,0.0,0.0,0.0,0.0,0.0,0.0,0.0,0.0,0.0,0.0,0.0,0.0,0.0,0.0,0.0,0.0,0.0,0.0,0.0,0.0,0.0,0.0,0.0,0.0,0.0,0.0,0.0,0.0,0.0,0.0,0.0,0.0,7.3595,7.3877,7.3913,7.3773,7.3845,7.388,7.388,7.5171,7.5679,7.4887,0.0,0.0,0.0,0.0,0.0,0.0,0.0,0.0,0.0,0.0,0.0,0.0,0.0,0.0,0.0,0.0,0.0,0.0,0.0,0.0,0.0,0.0,0.0,0.0,0.0,0.0,0.0,0.0,0.0,0.0,0.0,0.0,0.0,0.0,0.0,0.0,0.0,0.0,0.0,0.0,0.0,0.0,0.0,0.0,0.0,0.0,0.0,0.0,0.0,0.0,0.0,0.0,0.0,0.0,0.0,0.0,0.0,0.0,0.0,0.0,0.0,0.0,0.0,0.0,0.0,0.0,0.0,0.0,0.0,0.0,0.0,0.0,0.0,0.0,0.0,0.0,0.0,0.0,0.0,0.0,0.0,0.0,0.0,0.0,0.0,0.0,0.0,0.0,0.0,0.0,0.0,0.0,0.0,0.0,0.0,0.0,0.0,0.0,0.0,0.0,0.0,0.0,7.2627,7.2798,7.2762,7.2762,7.2396,7.2204,7.2204,7.2533,7.3053,7.3501,0.0,0.0,0.0,0.0,0.0,0.0,0.0,0.0,0.0,0.0,0.0,0.0,0.0,0.0,0.0,0.0,0.0,0.0,0.0,0.0,0.0,0.0,0.0,0.0,0.0,0.0,0.0,0.0,0.0,0.0,0.0,0.0,0.0,0.0,0.0,0.0,0.0,0.0,0.0,0.0,0.0,0.0,0.0,0.0,0.0,0.0,0.0,0.0,0.0,0.0,0.0,0.0,0.0,0.0,0.0,0.0,0.0,0.0,0.0,0.0,0.0,0.0,0.0,0.0,0.0,0.0,0.0,0.0,0.0,0.0,0.0,0.0,0.0,0.0,0.0,0.0,0.0,0.0,0.0,0.0,0.0,0.0,0.0,0.0,0.0,0.0,0.0,0.0,0.0,0.0,0.0,0.0,0.0,0.0,0.0,0.0,0.0,0.0,0.0,0.0,0.0,0.0,7.1286,7.1936,7.221,7.221,7.1787,7.1506,7.1506,7.0824,7.0719,7.1525,0.0,0.0,0.0,0.0,0.0,0.0,0.0,0.0,0.0,0.0,0.0,0.0,0.0,0.0,0.0,0.0,0.0,0.0,0.0,0.0,0.0,0.0,0.0,0.0,0.0,0.0,0.0,0.0,0.0,0.0,0.0,0.0,0.0,0.0,0.0,0.0,0.0,0.0,0.0,0.0,0.0,0.0,0.0,0.0,0.0,0.0,0.0,0.0,0.0,0.0,0.0,0.0,0.0,0.0,0.0,0.0,0.0,0.0,0.0,0.0,0.0,0.0,0.0,0.0,0.0,0.0,0.0,0.0,0.0,0.0,0.0,0.0,0.0,0.0,0.0,0.0,0.0,0.0,0.0,0.0,0.0,0.0,0.0,0.0,0.0,0.0,0.0,0.0,0.0,0.0,0.0,0.0,0.0,0.0,0.0,0.0,0.0,0.0,0.0,0.0,0.0,0.0,6.9177,7.0901,7.1902,7.1902,7.1902,7.1902,7.1902,7.0119,6.8699,0.0,0.0,0.0,0.0,0.0,0.0,0.0,0.0,0.0,0.0,0.0,0.0,0.0,0.0,0.0,0.0,0.0,0.0,0.0,0.0,0.0,0.0,0.0,0.0,0.0,0.0,0.0,0.0,0.0,0.0,0.0,0.0,0.0,0.0,0.0,0.0,0.0,0.0,0.0,0.0,0.0,0.0,0.0,0.0,0.0,0.0,0.0,0.0,0.0,0.0,0.0,0.0,0.0,0.0,0.0,0.0,0.0,0.0,0.0,0.0,0.0,0.0,0.0,0.0,0.0,0.0,0.0,0.0,0.0,0.0,0.0,0.0,0.0,0.0,0.0,0.0,0.0,0.0,0.0,0.0,0.0,0.0,0.0,0.0,0.0,0.0,0.0,0.0,0.0,0.0,0.0,0.0,0.0,0.0,0.0,0.0,0.0,0.0,0.0,0.0,0.0,0.0,0.0,6.7614,6.9296,7.0703,0.0,7.1749,7.1031,6.9412,6.8102,6.6659,6.5264,0.0,0.0,0.0,0.0,0.0,0.0,0.0,0.0,0.0,0.0,0.0,0.0,0.0,0.0,0.0,0.0,0.0,0.0,0.0,0.0,0.0,0.0,0.0,0.0,0.0,0.0,0.0,0.0,0.0,0.0,0.0,0.0,0.0,0.0,0.0,0.0,0.0,0.0,0.0,0.0,0.0,0.0,0.0,0.0,0.0,0.0,0.0,0.0,0.0,0.0,0.0,0.0,0.0,0.0,0.0,0.0,0.0,0.0,0.0,0.0,0.0,0.0,0.0,0.0,0.0,0.0,0.0,0.0,0.0,0.0,0.0,0.0,0.0,0.0,0.0,0.0,0.0,0.0,0.0,0.0,0.0,0.0,0.0,0.0,0.0,0.0,0.0,0.0,0.0,0.0,0.0,0.0,0.0,0.0,0.0,0.0,0.0,0.0,0.0,0.0,0.0,0.0,0.0,6.8577,7.0151,0.0,7.1749,7.0682,6.8238,6.717,6.5634,6.3287,0.0,0.0,0.0,0.0,0.0,0.0,0.0,0.0,0.0,0.0,0.0,0.0,0.0,0.0,0.0,0.0,0.0,0.0,0.0,0.0,0.0,0.0,0.0,0.0,0.0,0.0,0.0,0.0,0.0,0.0,0.0,0.0,0.0,0.0,0.0,0.0,0.0,0.0,0.0,0.0,0.0,0.0,0.0,0.0,0.0,0.0,0.0,0.0,0.0,0.0,0.0,0.0,0.0,0.0,0.0,0.0,0.0,0.0,0.0,0.0,0.0,0.0,0.0,0.0,0.0,0.0,0.0,0.0,0.0,0.0,0.0,0.0,0.0,0.0,0.0,0.0,0.0,0.0,0.0,0.0,0.0,0.0,0.0,0.0,0.0,0.0,0.0,0.0,0.0,0.0,0.0,0.0,0.0,0.0,0.0,0.0,0.0,0.0,0.0,0.0,0.0,0.0,0.0,6.8441,6.9864,7.1476,7.1651,7.0546,6.7837,6.6891,6.5061,6.1652,6.0832,0.0,0.0,0.0,0.0,0.0,0.0,0.0,0.0,0.0,0.0,0.0,0.0,0.0,0.0,0.0,0.0,0.0,0.0,0.0,0.0,0.0,0.0,0.0,0.0,0.0,0.0,0.0,0.0,0.0,0.0,0.0,0.0,0.0,0.0,0.0,0.0,0.0,0.0,0.0,0.0,0.0,0.0,0.0,0.0,0.0,0.0,0.0,0.0,0.0,0.0,0.0,0.0,0.0,0.0,0.0,0.0,0.0,0.0,0.0,0.0,0.0,0.0,0.0,0.0,0.0,0.0,0.0,0.0,0.0,0.0,0.0,0.0,0.0,0.0,0.0,0.0,0.0,0.0,0.0,0.0,0.0,0.0,0.0,0.0,0.0,0.0,0.0,0.0,0.0,0.0,0.0,0.0,0.0,0.0,0.0,0.0,0.0,0.0,0.0,0.0,0.0,0.0,6.6911,6.8114,6.8573,6.8706,6.7392,6.3965,6.3139,6.1298,5.7959,5.9451,0.0,0.0,0.0,0.0,0.0,0.0,0.0,0.0,0.0,0.0,0.0,0.0,0.0,0.0,0.0,0.0,0.0,0.0,0.0,0.0,0.0,0.0,0.0,0.0,0.0,0.0,0.0,0.0,0.0,0.0,0.0,0.0,0.0,0.0,0.0,0.0,0.0,0.0,0.0,0.0,0.0,0.0,0.0,0.0,0.0,0.0,0.0,0.0,0.0,0.0,0.0,0.0,0.0,0.0,0.0,0.0,0.0,0.0,0.0,0.0,0.0,0.0,0.0,0.0,0.0,0.0,0.0,0.0,0.0,0.0,0.0,0.0,0.0,0.0,0.0,0.0,0.0,0.0,0.0,0.0,0.0,0.0,0.0,0.0,0.0,0.0,0.0,0.0,0.0,0.0,0.0,0.0,0.0,0.0,0.0,0.0,0.0,0.0,0.0,0.0,0.0,0.0,6.5167,6.672,6.793,6.8198,6.6887,6.3405,6.2559,6.0847,5.7759,5.867,0.0,0.0,0.0,0.0,0.0,0.0,0.0,0.0,0.0,0.0,0.0,0.0,0.0,0.0,0.0,0.0,0.0,0.0,0.0,0.0,0.0,0.0,0.0,0.0,0.0,0.0,0.0,0.0,0.0,0.0,0.0,0.0,0.0,0.0,0.0,0.0,0.0,0.0,0.0,0.0,0.0,0.0,0.0,0.0,0.0,0.0,0.0,0.0,0.0,0.0,0.0,0.0,0.0,0.0,0.0,0.0,0.0,0.0,0.0,0.0,0.0,0.0,0.0,0.0,0.0,0.0,0.0,0.0,0.0,0.0,0.0,0.0,0.0,0.0,0.0,0.0,0.0,0.0,0.0,0.0,0.0,0.0,0.0,0.0,0.0,0.0,0.0,0.0,0.0,0.0,0.0,0.0,0.0,0.0,0.0,0.0,0.0,0.0,0.0,0.0,0.0,0.0,0.0,6.5771,6.8141,6.8323,6.6904,6.3641,6.267,6.1206,5.8694,0.0,0.0,0.0,0.0,0.0,0.0,0.0,0.0,0.0,0.0,0.0,0.0,0.0,0.0,0.0,0.0,0.0,0.0,0.0,0.0,0.0,0.0,0.0,0.0,0.0,0.0,0.0,0.0,0.0,0.0,0.0,0.0,0.0,0.0,0.0,0.0,0.0,0.0,0.0,0.0,0.0,0.0,0.0,0.0,0.0,0.0,0.0,0.0,0.0,0.0,0.0,0.0,0.0,0.0,0.0,0.0,0.0,0.0,0.0,0.0,0.0,0.0,0.0,0.0,0.0,0.0,0.0,0.0,0.0,0.0,0.0,0.0,0.0,0.0,0.0,0.0,0.0,0.0,0.0,0.0,0.0,0.0,0.0,0.0,0.0,0.0,0.0,0.0,0.0,0.0,0.0,0.0,0.0,0.0,0.0,0.0,0.0,0.0,0.0,0.0,0.0,0.0,0.0,0.0,0.0,6.7096,6.6246,6.4182,6.0936,5.9197,5.8037,5.7547,0.0,0.0,0.0,0.0,0.0,0.0,0.0,0.0,0.0,0.0,0.0,0.0,0.0,0.0]}]]]